     2              OBSERVATION DATA    G                   RINEX VERSION / TYPE
Leica SKI-Pro 3.0 V3 11-9-5 16:21                           PGM / RUN BY / DATE
                                                            OBSERVER / AGENCY
walref                                                      MARKER NAME
walref                                                      MARKER NUMBER
REF1 LEICA SR530 4.20                                       REC # / TYPE / VERS
LEIAT502                                                    ANT # / TYPE
 -1345950.2275 -5233717.4745  3378662.5767                  APPROX POSITION XYZ
        1.2500        0.0000        0.0000                  ANTENNA: DELTA H/E/N
L1PhaOff: 0.0683 L2PhaOff: 0.0712                           COMMENT
     1     1                                                WAVELENGTH FACT L1/2
     4    C1    L1    P2    L2                              # / TYPES OF OBSERV
  2005     2    13    15    34   25.000000                  TIME OF FIRST OBS
  2005     2    13    23    54    5.000000                  TIME OF LAST OBS
    13                                                      LEAP SECONDS
    20                                                      # OF SATELLITES
C1 P1 L1 D1 P2 L2 D2                                        COMMENT
   G 1     0     0     0     0     0     0     0            PRN / # OF OBS
   G 2  4581     0  4581     0  4548  4548     0            PRN / # OF OBS
   G 3     0     0     0     0     0     0     0            PRN / # OF OBS
   G 4  3565     0  3565     0  3565  3565     0            PRN / # OF OBS
   G 5  3747     0  3747     0  3742  3742     0            PRN / # OF OBS
   G 6  3146     0  3146     0  3145  3145     0            PRN / # OF OBS
   G 7  2619     0  2619     0  2605  2605     0            PRN / # OF OBS
   G 8   396     0   396     0   395   395     0            PRN / # OF OBS
   G 9  2924     0  2924     0  2920  2920     0            PRN / # OF OBS
   G10  3672     0  3672     0  3670  3670     0            PRN / # OF OBS
   G11   179     0   179     0   168   168     0            PRN / # OF OBS
   G12     0     0     0     0     0     0     0            PRN / # OF OBS
   G13     0     0     0     0     0     0     0            PRN / # OF OBS
   G14     0     0     0     0     0     0     0            PRN / # OF OBS
   G15   615     0   615     0   600   600     0            PRN / # OF OBS
   G16   855     0   855     0   854   854     0            PRN / # OF OBS
   G17  4821     0  4821     0  4772  4772     0            PRN / # OF OBS
   G18  1614     0  1614     0  1576  1576     0            PRN / # OF OBS
   G19     0     0     0     0     0     0     0            PRN / # OF OBS
   G20     0     0     0     0     0     0     0            PRN / # OF OBS
   G21  2319     0  2319     0  2305  2305     0            PRN / # OF OBS
   G22   704     0   704     0   698   698     0            PRN / # OF OBS
   G23     0     0     0     0     0     0     0            PRN / # OF OBS
   G24  2798     0  2798     0  2798  2798     0            PRN / # OF OBS
   G25     0     0     0     0     0     0     0            PRN / # OF OBS
   G26  2288     0  2288     0  2272  2272     0            PRN / # OF OBS
   G27     0     0     0     0     0     0     0            PRN / # OF OBS
   G28  1627     0  1627     0  1605  1605     0            PRN / # OF OBS
   G29  2410     0  2410     0  2408  2408     0            PRN / # OF OBS
   G30  3398     0  3398     0  3371  3371     0            PRN / # OF OBS
   G31     0     0     0     0     0     0     0            PRN / # OF OBS
   G32     0     0     0     0     0     0     0            PRN / # OF OBS
                                                            END OF HEADER
  5  2 13 15 34 25.0000000  0  8G 4G 7G 8G11G24G26G28G29
  22328920.723   117339281.56358  22328923.085    91433209.52158
  20760120.076   109095167.30259  20760121.288    85009227.16559
  22340488.501   117400067.70657  22340491.434    91480578.16758
  24102098.811   126657398.86754         0.000           0.00040
  21292737.809   111894096.53259  21292740.409    87190214.46159
  23954105.648   125879669.67557  23954108.508    98088073.58958
  20990974.197   110308314.48859  20990973.819    85954530.87959
  23903426.520   125613350.24457  23903429.312    97880547.50557
  5  2 13 15 34 30.0000000  0  8G 4G 7G 8G11G24G26G28G29
  22325646.390   117322074.70147  22325648.761    91419801.55648
  20760513.680   109097235.60949  20760514.887    85010838.82549
  22343712.926   117417012.14648  22343715.827    91493781.64148
  24104936.684   126672312.64944         0.000           0.00040
  21290672.688   111883244.22049  21290675.288    87181758.10549
  23955729.110   125888201.02147  23955731.976    98094721.38948
  20991319.801   110310130.58549  20991319.416    85955946.00849
  23905111.987   125622207.34147  23905114.761    97887449.13547
  5  2 13 15 34 35.0000000  0  8G 4G 7G 8G11G24G26G28G29
  22322406.774   117305050.43347  22322409.148    91406535.91348
  20760942.149   109099487.20049  20760943.351    85012593.31349
  22346972.454   117434140.98447  22346975.335    91507128.77948
  24107809.661   126687409.90145         0.000           0.00040
  21288643.447   111872580.48348  21288646.040    87173448.70649
  23957387.941   125896918.17547  23957390.827    98101513.95048
  20991700.090   110312128.98548  20991699.705    85957503.19749
  23906832.362   125631247.94347  23906835.102    97894493.76947
  5  2 13 15 34 40.0000000  0  8G 4G 7G 8G11G24G26G28G29
  22319143.210   117287900.60447  22319145.598    91393172.47148
  20761346.846   109101613.80149  20761348.036    85014250.39849
  22350208.397   117451146.01347  22350211.289    91520379.43948
  24110659.010   126702382.77144         0.000           0.00040
  21286591.455   111861797.16148  21286594.042    87165046.11549
  23959023.460   125905512.91847  23959026.339    98108211.16248
  20992056.433   110314001.55149  20992056.042    85958962.33749
  23908529.041   125640163.95647  23908531.758    97901441.29347
  5  2 13 15 34 45.0000000  0  7G 4G 7G 8G24G26G28G29
  22315914.381   117270932.96147  22315916.802    91379950.90648
  20761786.292   109103923.07649  20761787.482    85016049.82849
  22353479.323   117468334.84547  22353482.226    91533773.31748
  21284575.264   111851201.94549  21284577.831    87156790.10049
  23960694.248   125914292.97146  23960697.104    98115052.75948
  20992447.367   110316055.95548  20992446.976    85960563.17749
  23910260.513   125649262.87247  23910263.211    97908531.36447
  5  2 13 15 34 50.0000000  0  7G 4G 7G 8G24G26G28G29
  22312632.274   117253685.34347  22312634.688    91366511.19848
  20762172.571   109105952.98449  20762173.755    85017631.58149
  22356697.296   117485245.34448  22356700.198    91546950.31448
  21282506.921   111840332.73048  21282509.475    87148320.58949
  23962312.391   125922796.24047  23962315.218    98121678.66548
  20992784.972   110317830.08048  20992784.582    85961945.61749
  23911938.869   125658082.59847  23911941.554    97915403.86747
  5  2 13 15 34 55.0000000  0  8G 4G 7G 8G11G24G26G28G29
  22309414.013   117236773.17347  22309416.393    91353332.87848
  20762622.804   109108318.91149  20762623.982    85019475.15549
  22359979.450   117502493.05647  22359982.355    91560390.07048
  24119271.072   126747625.77356         0.000           0.00040
  21280503.560   111829804.99848  21280506.107    87140117.16549
  23963994.939   125931638.06247  23963997.759    98128568.38948
  20993186.363   110319939.37448  20993185.981    85963589.21949
  23913681.234   125667238.66047  23913683.899    97922538.45048
  5  2 13 15 35  0.0000000  0  8G 4G 7G 8G11G24G26G28G29
  22306142.333   117219580.34447  22306144.696    91339935.85948
  20763019.708   109110404.68849  20763020.887    85021100.44549
  22363208.492   117519461.69347  22363211.405    91573612.36948
  24122112.367   126762559.28245         0.000           0.00040
  21278447.917   111819002.54948  21278450.471    87131699.67949
  23965624.679   125940202.34147  23965627.493    98135241.84648
  20993534.283   110321767.67748  20993533.902    85965013.86549
  23915370.296   125676114.80547  23915372.955    97929454.94348
  5  2 13 15 35  5.0000000  0  8G 4G 7G 8G11G24G26G28G29
  22302934.380   117202722.56347  22302936.736    91326799.95448
  20763480.487   109112826.03349  20763481.659    85022987.20049
  22366501.596   117536767.04047  22366504.510    91587097.05248
  24125017.686   126777828.65046         0.000           0.00040
  21276457.174   111808541.09648  21276459.721    87123547.89249
  23967318.768   125949104.74247  23967321.590    98142178.76448
  20993945.911   110323930.69949  20993945.538    85966699.32149
  23917123.322   125685326.80346  23917125.975    97936633.08047
  5  2 13 15 35 10.0000000  0  8G 4G 7G 8G11G24G26G28G29
  22299643.619   117185429.68347  22299646.003    91313325.01648
  20763858.557   109114812.77749  20763859.723    85024535.30949
  22369712.193   117553638.84047  22369715.106    91600243.90348
  24127840.470   126792663.79246         0.000           0.00040
  21274384.770   111797650.53948  21274387.303    87115061.74749
  23968930.626   125957575.08447  23968933.471    98148779.02348
  20994274.668   110325658.30149  20994274.290    85968045.50649
  23918793.654   125694104.42647  23918796.307    97943472.77847
  5  2 13 15 35 15.0000000  0  8G 4G 7G 8G11G24G26G28G29
  22296387.236   117168317.40448  22296389.672    91299990.79148
  20764271.071   109116980.55349  20764272.238    85026224.48949
  22372957.455   117570692.83647  22372960.371    91613532.72448
  24130697.886   126807680.36946         0.000           0.00040
  21272347.855   111786946.50748  21272350.375    87106720.96049
  23970577.422   125966228.96247  23970580.271    98155522.29948
  20994637.726   110327566.12048  20994637.350    85969532.11049
  23920498.482   125703063.32247  23920501.107    97950453.74347
  5  2 13 15 35 20.0000000  0  8G 4G 7G 8G11G24G26G28G29
  22293135.898   117151231.47647  22293138.363    91286677.06848
  20764688.688   109119175.11449  20764689.855    85027934.53049
  22376208.010   117587774.68047  22376210.928    91626843.24248
  24133560.533   126822724.08346         0.000           0.00040
  21270317.087   111776274.78148  21270319.606    87098405.33549
  23972229.788   125974912.13947  23972232.632    98162288.40948
  20995005.732   110329499.94348  20995005.350    85971038.98049
  23922208.468   125712049.23547  23922211.066    97957455.74248
  5  2 13 15 35 25.0000000  0  8G 4G 7G 8G11G24G26G28G29
  22289918.829   117134325.56747  22289921.293    91273503.61248
  20765140.641   109121550.14249  20765141.808    85029785.20249
  22379493.125   117605038.01647  22379496.036    91640295.17748
  24136457.595   126837948.65246         0.000           0.00040
  21268321.732   111765789.05748  21268324.245    87090234.63349
  23973916.984   125983778.35247  23973919.829    98169197.13948
  20995407.919   110331613.41849  20995407.539    85972685.84449
  23923952.814   125721215.77547  23923955.387    97964598.50647
  5  2 13 15 35 30.0000000  0  8G 4G 7G 8G11G24G26G28G29
  22286677.310   117117291.36647  22286679.766    91260230.22448
  20765568.252   109123797.25249  20765569.411    85031536.19649
  22382754.091   117622174.47847  22382757.003    91653648.26348
  24139330.281   126853045.65846  24139330.326    98846523.19157
  21266303.071   111755180.92648  21266305.578    87081968.55949
  23975580.331   125992519.20747  23975583.199    98176008.17248
  20995785.614   110333598.21849  20995785.234    85974232.44449
  23925672.874   125730254.65746  23925675.439    97971641.77148
  5  2 13 15 35 35.0000000  0  8G 4G 7G 8G11G24G26G28G29
  22283440.655   117100282.72348  22283443.122    91246976.74148
  20766000.808   109126070.28849  20766001.962    85033307.38649
  22386020.214   117639337.94147  22386023.141    91667022.36248
  24142208.158   126868168.87746  24142208.459    98858307.50847
  21264290.399   111744604.32149  21264292.897    87073727.06049
  23977249.086   126001288.44847  23977251.964    98182841.32748
  20996168.097   110335608.11749  20996167.719    85975798.59349
  23927397.898   125739319.68547  23927400.461    97978705.41248
  5  2 13 15 35 40.0000000  0  8G 4G 7G 8G11G24G26G28G29
  22280238.141   117083453.46147  22280240.616    91233863.04248
  20766467.552   109128523.04549  20766468.699    85035218.62949
  22389320.719   117656682.18447  22389323.666    91680537.33548
  24145120.284   126883472.17447  24145120.826    98870232.13347
  21262312.990   111734213.00248  21262315.489    87065629.93649
  23978952.486   126010239.90547  23978955.364    98189816.49948
  20996584.634   110337797.00049  20996584.257    85977504.21449
  23929157.153   125748564.60447  23929159.722    97985909.23248
  5  2 13 15 35 45.0000000  0  8G 4G 7G 8G11G24G26G28G29
  22276981.824   117066341.46347  22276984.314    91220529.03248
  20766880.557   109130693.39949  20766881.703    85036909.81149
  22392567.691   117673745.13646  22392570.662    91693833.11848
  24147978.744   126898493.41846  24147979.406    98881936.97847
  21260282.921   111723544.91748  21260285.418    87057317.13849
  23980602.659   126018911.49847  23980605.539    98196573.56448
  20996947.294   110339702.73049  20996946.919    85978989.19349
  23930862.717   125757527.31147  23930865.313    97992893.12348
  5  2 13 15 35 50.0000000  0  8G 4G 7G 8G11G24G26G28G29
  22273730.232   117049254.35847  22273732.743    91207214.42448
  20767298.369   109132888.98349  20767299.508    85038620.65049
  22395819.640   117690834.33946  22395822.616    91707149.38848
  24150842.045   126913540.16646  24150842.740    98893661.72447
  21258258.724   111712907.65748  21258261.221    87049028.35849
  23982258.093   126027610.77047  23982260.974    98203352.20148
  20997314.608   110341632.91548  20997314.242    85980493.22549
  23932573.117   125766515.42847  23932575.720    97999896.82748
  5  2 13 15 35 55.0000000  0  8G 4G 7G 8G11G24G26G28G29
  22270512.703   117032346.18647  22270515.234    91194039.22948
  20767750.275   109135263.76749  20767751.414    85040471.13149
  22399105.912   117708103.78347  22399108.872    91720606.08748
  24153739.463   126928766.41946  24153740.253    98905526.33947
  21256269.670   111702455.17248  21256272.153    87040883.58049
  23983948.075   126036491.71846  23983950.949    98210272.42748
  20997715.876   110343741.59348  20997715.505    85982136.36149
  23934317.613   125775682.90747  23934320.201    98007040.34447
  5  2 13 15 36  0.0000000  0  9G 4G 7G 8G 9G11G24G26G28G29
  22267270.581   117015308.66147  22267273.119    91180763.21648
  20768177.640   109137509.55149  20768178.778    85042221.08449
  22402367.814   117725245.25447  22402370.758    91733963.09148
  24241913.024   127392113.26756         0.000           0.00040
  24156612.414   126943863.97246  24156613.313    98917290.63447
  21254257.154   111691879.32949  21254259.630    87032642.66649
  23985614.000   126045246.11847  23985616.874    98217094.01848
  20998092.449   110345720.53249  20998092.080    85983678.40249
  23936037.606   125784721.53447  23936040.180    98014083.43247
  5  2 13 15 36  5.0000000  0  9G 4G 7G 8G 9G11G24G26G28G29
  22264062.413   116998449.62547  22264064.951    91167626.30748
  20768638.998   109139934.00649  20768640.130    85044110.27349
  22405663.930   117742566.46046  22405666.866    91747460.13348
  24238719.586   127375330.38746  24238721.431    99253510.83657
  24159519.460   126959140.51247  24159520.390    98929194.40946
  21252279.730   111681487.89349  21252282.206    87024545.44449
  23987314.392   126054181.70947  23987317.266    98224056.80848
  20998502.913   110347877.47148  20998502.552    85985359.12549
  23937791.641   125793939.08247  23937794.207    98021265.94147
  5  2 13 15 36 10.0000000  0  9G 4G 7G 8G 9G11G24G26G28G29
  22260800.241   116981306.88647  22260802.772    91154268.35548
  20769046.429   109142075.04249  20769047.554    85045778.60849
  22408906.327   117759605.30947  22408909.283    91760737.13248
  24235471.536   127358263.30246  24235473.746    99240211.79647
  24162372.580   126974133.91046  24162373.518    98940877.58547
  21250249.443   111670818.69848  21250251.912    87016231.79649
  23988961.315   126062836.34547  23988964.194    98230800.67348
  20998859.321   110349750.28349  20998858.969    85986818.43749
  23939491.786   125802873.34146  23939494.365    98028227.67848
  5  2 13 15 36 15.0000000  0  9G 4G 7G 8G 9G11G24G26G28G29
  22257601.293   116964496.45747  22257603.847    91141169.35448
  20769517.139   109144548.60849  20769518.251    85047706.06449
  22412212.192   117776977.71746  22412215.173    91774274.04448
  24232286.870   127341528.04746  24232289.272    99227171.31447
  24165289.089   126989460.14646  24165290.041    98952820.06947
  21248283.522   111660487.71148  21248285.990    87008181.67249
  23990671.990   126071826.00247  23990674.881    98237805.58747
  20999278.864   110351954.93248  20999278.514    85988536.34249
  23941255.233   125812140.28747  23941257.839    98035448.65548
  5  2 13 15 36 20.0000000  0  9G 4G 7G 8G 9G11G24G26G28G29
  22254348.358   116947402.26347  22254350.941    91127849.21648
  20769933.868   109146738.53449  20769934.979    85049412.49849
  22415464.291   117794067.51747  22415467.291    91787590.73748
  24229048.121   127324508.43246  24229050.667    99213909.30047
  24168151.643   127004503.00046  24168152.558    98964541.78546
  21246264.710   111649878.78048  21246267.165    86999914.98249
  23992329.159   126080534.48546  23992332.048    98244591.41047
  20999644.281   110353875.24449  20999643.933    85990032.70249
  23942964.734   125821123.71147  23942967.362    98042448.70848
  5  2 13 15 36 25.0000000  0  9G 4G 7G 8G 9G11G24G26G28G29
  22251158.613   116930639.98047  22251161.212    91114787.68148
  20770413.801   109149260.56349  20770414.905    85051377.71349
  22418779.767   117811490.46147  22418782.774    91801167.05248
  24225872.360   127307820.26146  24225875.080    99200905.52147
  24171077.446   127019878.23146  24171078.351    98976522.48446
  21244310.193   111639607.72849  21244312.641    86991911.56549
  23994049.976   126089577.53147  23994052.849    98251637.95547
  21000072.803   110356127.05048  21000072.457    85991787.34349
  23944737.468   125830439.40047  23944740.125    98049707.65948
  5  2 13 15 36 30.0000000  0  9G 4G 7G 8G 9G11G24G26G28G29
  22247885.543   116913439.72447  22247888.132    91101384.84348
  20770810.421   109151344.81749  20770811.525    85053001.80649
  22422012.117   117828476.57747  22422015.111    91814402.99348
  24222613.132   127290693.58846  24222616.031    99187560.07347
  24173920.004   127034816.00346  24173920.850    98988162.32046
  21242273.453   111628904.61548  21242275.893    86983571.48849
  23995687.946   126098185.15447  23995690.797    98258345.20648
  21000417.865   110357940.39348  21000417.528    85993200.34949
  23946426.873   125839317.37747  23946429.530    98056625.58348
  5  2 13 15 36 35.0000000  0  9G 4G 7G 8G 9G11G24G26G28G29
  22244704.957   116896725.69647  22244707.538    91088360.93648
  20771299.590   109153915.38849  20771300.688    85055004.84849
  22425337.200   117845950.03647  22425340.179    91828018.68548
  24219446.386   127274052.62946  24219449.431    99174593.12647
  24176855.206   127050240.37446  24176856.000    99000181.26946
  21240330.352   111618693.55348  21240332.779    86975614.81949
  23997418.959   126107281.56547  23997421.810    98265433.28848
  21000855.365   110360239.40548  21000855.035    85994991.77449
  23948208.854   125848681.84447  23948211.504    98063922.59548
  5  2 13 15 36 40.0000000  0  9G 4G 7G 8G 9G11G24G26G28G29
  22241470.284   116879727.52947  22241472.874    91075115.65148
  20771734.733   109156201.98649  20771735.818    85056786.60149
  22428608.446   117863140.49047  22428611.416    91841413.82548
  24216225.632   127257127.05046  24216228.741    99161404.31448
  24179736.395   127065381.06247  24179737.143    99011979.22447
  21238334.329   111608204.35149  21238336.748    86967441.40949
  23999096.385   126116096.43647  23999099.229    98272302.00848
  21001238.706   110362253.81449  21001238.377    85996561.43449
  23949936.854   125857762.44847  23949939.496    98070998.36948
  5  2 13 15 36 45.0000000  0  9G 4G 7G 8G 9G11G24G26G28G29
  22238240.219   116862753.54748  22238242.833    91061889.20648
  20772174.474   109158512.83949  20772175.560    85058587.26849
  22431884.497   117880356.25547  22431887.465    91854828.69848
  24213009.320   127240225.15246  24213012.479    99148234.03947
  24182622.295   127080546.32246  24182623.025    99023796.27546
  21236344.029   111597745.22048  21236346.441    86959291.43349
  24000778.893   126124938.04547  24000781.744    98279191.56348
  21001626.532   110364291.85448  21001626.205    85998149.52349
  23951669.497   125866867.48847  23951672.139    98078093.19148
  5  2 13 15 36 50.0000000  0  9G 4G 7G 8G 9G11G24G26G28G29
  22235014.811   116845803.88048  22235017.455    91048681.66748
  20772618.872   109160848.07349  20772619.952    85060406.92049
  22435165.369   117897597.28747  22435168.349    91868263.24148
  24209797.538   127223346.96746  24209800.735    99135082.20147
  24185512.836   127095736.15246  24185513.581    99035632.49247
  21234359.459   111587316.23649  21234361.864    86951164.95649
  24002466.484   126133806.33347  24002469.327    98286101.90047
  21002018.874   110366353.59349  21002018.555    85999756.06849
  23953406.781   125875996.91247  23953409.416    98085207.01748
  5  2 13 15 36 55.0000000  0  9G 4G 7G 8G 9G11G24G26G28G29
  22231823.317   116829032.34147  22231825.962    91035612.91048
  20773097.170   109163361.57549  20773098.244    85062365.50649
  22438480.351   117915017.57547  22438483.346    91881837.47548
  24206619.556   127206646.49746  24206622.804    99122068.85748
  24188437.334   127111104.49646  24188438.083    99047607.83847
  21232409.935   111577071.38349  21232412.333    86943181.94949
  24004188.456   126142855.29447  24004191.278    98293153.03547
  21002445.036   110368593.03048  21002444.727    86001501.07749
  23955178.005   125885304.72847  23955180.642    98092459.86248
  5  2 13 15 37  0.0000000  0  9G 4G 7G 8G 9G11G24G26G28G29
  22228607.133   116812131.18048  22228609.769    91022443.16948
  20773550.811   109165745.41649  20773551.887    85064223.03649
  22441770.853   117932309.21447  22441773.855    91895311.46748
  24203416.796   127189815.84946  24203420.093    99108954.07248
  24191337.258   127126343.47946  24191338.036    99059482.32047
  21230436.852   111566702.76349  21230439.237    86935102.51349
  24005886.212   126151777.06147  24005889.025    98300105.05747
  21002846.410   110370702.23348  21002846.102    86003144.61249
  23956924.585   125894482.97247  23956927.223    98099611.72648
  5  2 13 15 37  5.0000000  0  9G 4G 7G 8G 9G11G24G26G28G29
  22225366.304   116795100.44948  22225368.933    91009172.45548
  20773979.785   109167999.65548  20773980.861    85065979.58249
  22445036.890   117949472.29347  22445039.900    91908685.28248
  24200189.255   127172855.07046  24200192.606    99095737.89648
  24194212.565   127141453.16546  24194213.349    99071256.08747
  21228440.220   111556210.42449  21228442.592    86926926.68049
  24007559.787   126160571.66246  24007562.591    98306957.96847
  21003223.003   110372681.23948  21003222.695    86004686.69549
  23958646.517   125903531.72847  23958649.164    98106662.69248
  5  2 13 15 37 10.0000000  0  9G 4G 7G 8G 9G11G24G26G28G29
  22222159.488   116778248.51548  22222162.096    90996041.09048
  20774442.800   109170432.78348  20774443.877    85067875.52449
  22448337.126   117966815.12147  22448340.142    91922199.16048
  24196995.676   127156072.60446  24196999.049    99082660.62848
  24197121.935   127156741.85046  24197122.697    99083169.34947
  21226478.751   111545902.83549  21226481.115    86918894.79049
  24009267.825   126169547.46247  24009270.622    98313952.10248
  21003633.518   110374838.51348  21003633.218    86006367.68749
  23960402.503   125912759.42947  23960405.157    98113853.09748
  5  2 13 15 37 15.0000000  0  9G 4G 7G 8G 9G11G24G26G28G29
  22218957.356   116761421.29147  22218959.967    90982928.99948
  20774910.509   109172890.58248  20774911.588    85069790.69049
  22451642.244   117984183.63047  22451645.272    91935733.05148
  24193806.700   127139314.36146  24193810.072    99069602.26748
  24200036.049   127172055.49546  24200036.809    99095102.05846
  21224523.111   111535625.87549  21224525.468    86910886.77449
  24010981.028   126178550.34247  24010983.831    98320967.31348
  21004048.635   110377019.93648  21004048.336    86008067.49649
  23962163.186   125922011.88547  23962165.840    98121062.79948
  5  2 13 15 37 20.0000000  0  9G 4G 7G 8G 9G11G24G26G28G29
  22215730.664   116744465.03548  22215733.284    90969716.36448
  20775353.641   109175219.25448  20775354.720    85071605.24149
  22454922.985   118001424.01147  22454926.005    91949167.10448
  24190593.074   127122426.54746  24190596.464    99056442.92448
  24202925.613   127187240.26146  24202926.404    99106934.34046
  21222544.031   111525225.71048  21222546.388    86902782.74149
  24012670.110   126187426.52846  24012672.921    98327883.82247
  21004439.082   110379071.71948  21004438.791    86009666.28149
  23963899.329   125931135.31647  23963901.984    98128171.95748
  5  2 13 15 37 25.0000000  0  9G 4G 7G 8G 9G11G24G26G28G29
  22212538.084   116727687.85248  22212540.718    90956643.21648
  20775830.851   109177726.94948  20775831.939    85073559.28049
  22458237.957   118018844.27547  22458240.970    91962741.33348
  24187413.416   127105717.26847  24187416.799    99043422.72948
  24205849.295   127202604.25146  24205850.114    99118906.26046
  21220600.120   111515010.45248  21220602.464    86894822.82249
  24014393.690   126196484.03646  24014396.521    98334941.61247
  21004863.499   110381301.98048  21004863.215    86011404.13249
  23965669.552   125940437.80647  23965672.208    98135420.63348
  5  2 13 15 37 30.0000000  0  9G 4G 7G 8G 9G11G24G26G28G29
  22209321.020   116710781.85048  22209323.653    90943469.65548
  20776283.524   109180105.76049  20776284.612    85075412.90249
  22461528.581   118036136.59047  22461531.588    91976215.86148
  24184209.152   127088878.62447  24184212.536    99030301.71248
  24208748.507   127217839.52146  24208749.336    99130777.87046
  21218632.821   111504672.25547  21218635.163    86886767.08849
  24016093.167   126205414.96947  24016095.991    98341900.81247
  21005263.264   110383402.79148  21005262.995    86013041.13249
  23967415.236   125949611.43847  23967417.892    98142568.91648
  5  2 13 15 37 35.0000000  0  9G 4G 7G 8G 9G11G24G26G28G29
  22206079.433   116693747.19648  22206082.039    90930195.91148
  20776711.691   109182355.79449  20776712.787    85077166.17549
  22464794.901   118053301.12547  22464797.922    91989590.79648
  24180980.292   127071910.81846  24180983.675    99017080.06448
  24211623.244   127232946.30446  24211624.092    99142549.38746
  21216642.173   111494211.27148  21216644.516    86878615.65849
  24017768.635   126214219.52147  24017771.466    98348761.47848
  21005638.437   110385374.34049  21005638.175    86014577.40249
  23969136.420   125958656.31847  23969139.082    98149616.87048
  5  2 13 15 37 40.0000000  0  9G 4G 7G 8G 9G11G24G26G28G29
  22202872.015   116676892.22247  22202874.614    90917062.19948
  20777174.049   109184785.47049  20777175.146    85079059.42649
  22468095.572   118070646.20747  22468098.601    92003106.43248
  24177785.570   127055122.22246  24177788.943    99003998.01748
  24214532.186   127248232.90146  24214533.044    99154461.02946
  21214686.808   111483935.82049  21214689.151    86870608.82649
  24019478.707   126223206.03946  24019481.551    98355763.95848
  21006047.689   110387524.94348  21006047.434    86016253.18849
  23970891.809   125967880.88747  23970894.470    98156804.82748
  5  2 13 15 37 45.0000000  0  9G 4G 7G 8G 9G11G24G26G28G29
  22199698.798   116660217.07348  22199701.412    90904068.62448
  20777670.583   109187394.74449  20777671.689    85081092.62449
  22471430.609   118088171.84746  22471433.657    92016762.74248
  24174624.934   127038512.87246  24174628.269    98991055.67747
  24217475.351   127263699.33546  24217476.223    99166512.79346
  21212766.775   111473846.00748  21212769.118    86862746.64249
  24021223.410   126232374.48646  24021226.274    98362908.18448
  21006491.029   110389854.67948  21006490.775    86018068.56349
  23972681.373   125977285.08147  23972684.034    98164132.76248
  5  2 13 15 37 50.0000000  0  9G 4G 7G 8G 9G11G24G26G28G29
  22196501.255   116643413.87548  22196503.885    90890975.22148
  20778142.700   109189875.76449  20778143.812    85083025.89049
  22474741.403   118105570.18847  22474744.450    92030319.88548
  24171439.821   127021774.90146  24171443.133    98978013.10847
  24220394.159   127279037.65247  24220395.061    99178464.69546
  21210823.480   111463633.92548  21210825.830    86854789.17449
  24022944.162   126241417.00747  24022947.048    98369954.27948
  21006909.858   110392055.67148  21006909.597    86019783.63249
  23974446.518   125986560.98047  23974449.178    98171360.73348
  5  2 13 15 37 55.0000000  0  9G 4G 7G 8G 9G11G24G26G28G29
  22193279.395   116626482.69648  22193282.032    90877782.05648
  20778590.446   109192228.65749  20778591.559    85084859.30949
  22478028.006   118122841.34247  22478031.054    92043777.91548
  24168230.275   127004908.49546  24168233.550    98964870.46547
  24223288.627   127294248.08646  24223289.551    99190316.96346
  21208856.961   111453299.82948  21208859.319    86846736.63749
  24024640.961   126250333.77446  24024643.860    98376902.41048
  21007304.228   110394128.06848  21007303.976    86021398.48249
  23976187.311   125995708.84546  23976189.971    98178488.92748
  5  2 13 15 38  0.0000000  0  9G 4G 7G 8G 9G11G24G26G28G29
  22190091.821   116609731.82147  22190094.438    90864729.42048
  20779072.462   109194761.69649  20779073.588    85086833.10649
  22481349.032   118140293.44847  22481352.065    92057376.96248
  24165054.938   126988221.83247  24165058.182    98951867.86747
  24226217.398   127309638.82046  24226218.356    99202309.74046
  21206925.867   111443151.89348  21206928.231    86838829.15649
  24026372.478   126259432.99047  24026375.371    98383992.71847
  21007732.788   110396380.13449  21007732.542    86023153.32849
  23977962.371   126005036.78447  23977965.039    98185757.43948
  5  2 13 15 38  5.0000000  0  9G 4G 7G 8G 9G11G24G26G28G29
  22186879.918   116592853.21747  22186882.521    90851577.28248
  20779530.144   109197166.80249  20779531.278    85088707.20649
  22484645.894   118157618.51547  22484648.927    92070876.99948
  24161855.177   126971406.91247  24161858.400    98938765.35648
  24229121.870   127324901.76846  24229122.851    99214202.91246
  21204971.578   111432882.06648  21204973.948    86830826.69649
  24028080.095   126268406.55047  24028082.995    98390985.09147
  21008136.922   110398503.80748  21008136.677    86024808.13049
  23979713.094   126014236.83447  23979715.763    98192926.29848
  5  2 13 15 38 10.0000000  0  9G 4G 7G 8G 9G11G24G26G28G29
  22183673.052   116576001.17948  22183675.654    90838445.85448
  20779992.825   109199598.17749  20779993.961    85090601.78249
  22487947.932   118174970.77847  22487950.966    92084398.23448
  24158660.393   126954618.02047  24158663.591    98925683.08548
  24232031.329   127340191.17046  24232032.340    99226116.75246
  21203023.441   111422644.59948  21203025.813    86822849.46949
  24029793.172   126277408.67147  24029796.072    98397999.69948
  21008545.959   110400653.31349  21008545.715    86026483.07149
  23981468.811   126023463.09447  23981471.487    98200115.56948
  5  2 13 15 38 15.0000000  0  9G 4G 7G 8G 9G11G24G26G28G29
  22180500.633   116559330.03948  22180503.250    90825455.35848
  20780489.863   109202210.12648  20780491.006    85092637.06849
  22491284.510   118192504.52147  22491287.557    92098060.86348
  24155499.903   126938009.47247  24155503.085    98912741.37148
  24234975.214   127355661.36246  24234976.239    99238171.43246
  21201110.839   111412593.80948  21201113.211    86815017.68549
  24031541.028   126286593.71847  24031543.930    98405156.88347
  21008989.278   110402982.97248  21008989.035    86028298.39349
  23983258.897   126032869.96747  23983261.582    98207445.58348
  5  2 13 15 38 20.0000000  0  9G 4G 7G 8G 9G11G24G26G28G29
  22177333.376   116542685.86248  22177335.993    90812485.84848
  20780991.978   109204848.76249  20780993.122    85094693.15049
  22494626.336   118210065.81247  22494629.398    92111744.95648
  24152344.451   126921427.36247  24152347.614    98899820.24448
  24237924.215   127371158.37246  24237925.267    99250246.99046
  21199204.478   111402575.81348  21199206.851    86807211.45749
  24033294.412   126295807.75047  24033297.313    98412336.63548
  21009437.598   110405338.91149  21009437.362    86030134.18749
  23985054.040   126042303.50947  23985056.719    98214796.40148
  5  2 13 15 38 25.0000000  0  9G 4G 7G 8G 9G11G24G26G28G29
  22174112.660   116525760.79347  22174115.265    90799297.47148
  20781440.611   109207206.27848  20781441.756    85096530.16749
  22497914.824   118227346.87147  22497917.887    92125210.70448
  24149135.450   126904563.85847  24149138.601    98886679.84448
  24240819.750   127386374.38446  24240820.809    99262103.59746
  21197245.787   111392282.82348  21197248.167    86799190.94449
  24034994.731   126304742.92647  24034997.634    98419299.09947
  21009832.346   110407413.25948  21009832.110    86031750.55149
  23986795.692   126051455.91847  23986798.372    98221928.15048
  5  2 13 15 38 30.0000000  0  9G 4G 7G 8G 9G11G24G26G28G29
  22170897.108   116508863.08047  22170899.692    90786130.45548
  20781894.379   109209590.84549  20781895.524    85098388.27449
  22501208.616   118244655.82947  22501211.671    92138698.20048
  24145931.553   126887727.20447  24145934.692    98873560.37048
  24243720.460   127401617.62546  24243721.541    99273981.42146
  21195293.398   111382023.01348  21195295.779    86791196.30349
  24036700.603   126313707.40147  24036703.497    98426284.42048
  21010232.155   110409514.23848  21010231.920    86033387.67349
  23988542.486   126060635.28947  23988545.167    98229080.88748
  5  2 13 15 38 35.0000000  0  9G 4G 7G 8G 9G11G24G26G28G29
  22167686.832   116491993.08848  22167689.421    90772985.02848
  20782353.339   109212002.69649  20782354.484    85100267.63749
  22504507.774   118261992.95947  22504510.816    92152207.64848
  24142732.807   126870917.64647  24142735.921    98860462.03248
  24246626.354   127416888.29846  24246627.438    99285880.67746
  21193347.388   111371796.65849  21193349.774    86783227.70949
  24038412.127   126322701.46147  24038415.022    98433292.76648
  21010637.074   110411642.13448  21010636.846    86035045.77949
  23990294.447   126069841.90647  23990297.127    98236254.87248
  5  2 13 15 38 40.0000000  0  9G 4G 7G 8G 9G11G24G26G28G29
  22164511.193   116475304.99348  22164513.790    90759981.31848
  20782846.850   109214596.08549  20782847.996    85102288.45449
  22507841.636   118279512.55447  22507844.671    92165859.28948
  24139568.596   126854289.47947  24139571.706    98847505.00748
  24249566.881   127432340.65346  24249568.007    99297921.40846
  21191437.097   111361758.04649  21191439.485    86775405.42249
  24040158.620   126331879.31047  24040161.523    98440444.33248
  21011076.475   110413951.17148  21011076.247    86036845.02249
  23992080.964   126079229.99647  23992083.651    98243570.23548
  5  2 13 15 38 45.0000000  0  9G 4G 7G 8G 9G11G24G26G28G29
  22161370.232   116458799.13248  22161372.817    90747119.62148
  20783374.982   109217371.37349  20783376.129    85104451.00949
  22511210.299   118297214.84547  22511213.328    92179653.25048
  24136438.960   126837843.04147  24136442.054    98834689.60348
  24252542.006   127447975.03746  24252543.167    99310104.03746
  21189562.607   111351907.53149  21189564.994    86767729.69949
  24041940.168   126341241.34647  24041943.078    98447739.40847
  21011550.411   110416441.72248  21011550.184    86038785.71349
  23993902.063   126088799.99647  23993904.756    98251027.38448
  5  2 13 15 38 50.0000000  0  9G 4G 7G 8G 9G11G24G26G28G29
  22158146.794   116441859.79047  22158149.366    90733920.12848
  20783820.534   109219712.76849  20783821.682    85106275.47349
  22514496.539   118314484.05747  22514499.561    92193109.76248
  24133226.722   126820962.55247  24133229.805    98821535.98448
  24255434.587   127463175.68446  24255435.778    99321948.70246
  21187606.736   111341629.32748  21187609.124    86759720.70349
  24043639.546   126350171.70447  24043642.450    98454698.14547
  21011941.731   110418498.02948  21011941.511    86040388.00949
  23995640.609   126097936.02147  23995643.308    98258146.34048
  5  2 13 15 38 55.0000000  0  9G 4G 7G 8G 9G11G24G26G28G29
  22154958.107   116425103.12748  22154960.663    90720862.98748
  20784300.788   109222236.52049  20784301.936    85108242.03249
  22517817.627   118331936.46047  22517820.634    92206709.03448
  24130049.156   126804264.26647  24130052.230    98808524.34248
  24258361.883   127478558.72946  24258363.093    99333935.50446
  21185686.729   111331539.65749  21185689.117    86751858.63149
  24045374.064   126359286.62347  24045376.974    98461800.66848
  21012367.662   110420736.31248  21012367.436    86042132.13349
  23997413.804   126107254.25947  23997416.504    98265407.31048
  5  2 13 15 39  0.0000000  0  9G 4G 7G 8G 9G11G24G26G28G29
  22151804.294   116408529.66248  22151806.841    90707948.58248
  20784815.797   109224942.91049  20784816.945    85110350.90949
  22521173.662   118349572.42147  22521176.670    92220451.31548
  24126906.325   126787748.55047  24126909.380    98795654.96348
  24261324.005   127494124.62946  24261325.237    99346064.73846
  21183802.690   111321638.93049  21183805.071    86744143.77749
  24047143.768   126368586.45047  24047146.677    98469047.27747
  21012828.282   110423156.94848  21012828.056    86044018.35549
  23999221.759   126116755.06247  23999224.465    98272810.51748
  5  2 13 15 39  5.0000000  0  9G 4G 7G 8G 9G11G24G26G28G29
  22148568.161   116391523.76648  22148570.710    90694697.25748
  20785248.411   109227216.27949  20785249.552    85112122.36249
  22524447.436   118366776.24847  22524450.437    92233856.90548
  24123681.100   126770799.78047  24123684.157    98782448.11847
  24264203.737   127509257.63146  24264204.978    99357856.67146
  21181837.434   111311311.50349  21181839.814    86736096.44149
  24048831.501   126377455.51347  24048834.417    98475958.22847
  21013206.481   110425144.27349  21013206.255    86045566.89449
  24000947.323   126125822.86647  24000950.036    98279876.31648
  5  2 13 15 39 10.0000000  0  9G 4G 7G 8G 9G11G24G26G28G29
  22145366.983   116374701.49248  22145369.526    90681589.00948
  20785715.888   109229672.88849  20785717.035    85114036.59749
  22527756.262   118384164.09347  22527759.264    92247405.84448
  24120490.718   126754034.18047  24120493.758    98769384.02947
  24267118.351   127524573.96746  24267119.607    99369791.46646
  21179908.252   111301173.55549  21179910.634    86728196.73949
  24050554.524   126386510.03147  24050557.433    98483013.68948
  21013619.456   110427314.47349  21013619.232    86047257.96249
  24002707.716   126135073.79547  24002710.435    98287084.82448
  5  2 13 15 39 15.0000000  0  9G 4G 7G 8G 9G11G24G26G28G29
  22142230.159   116358217.40448  22142232.712    90668744.27748
  20786247.642   109232467.24149  20786248.782    85116214.01249
  22531129.490   118401890.46047  22531132.485    92261218.58948
  24117364.616   126737606.21547  24117367.660    98756582.99648
  24270097.234   127540228.10446  24270098.507    99381989.50046
  21178044.520   111291379.57449  21178046.894    86720565.06749
  24052342.247   126395904.45447  24052345.164    98490333.99448
  21014096.652   110429822.09049  21014096.427    86049211.93749
  24004532.378   126144662.39746  24004535.111    98294556.44148
  5  2 13 15 39 20.0000000  0  9G 4G 7G 8G 9G11G24G26G28G29
  22139040.509   116341455.64448  22139043.060    90655683.15548
  20786726.448   109234983.35449  20786727.589    85118174.61549
  22534449.949   118419339.49747  22534452.938    92274815.22648
  24114185.555   126720900.04147  24114188.608    98743565.18347
  24273023.234   127555604.12046  24273024.551    99393970.75446
  21176129.055   111281313.74149  21176131.437    86712721.55949
  24054077.436   126405022.87047  24054080.360    98497439.23548
  21014520.832   110432051.20248  21014520.615    86050948.91549
  24006304.079   126153972.65246  24006306.817    98301811.15848
  5  2 13 15 39 25.0000000  0  9G 4G 7G 8G 9G11G24G26G28G29
  22135886.043   116324878.69048  22135888.587    90642766.02148
  20787240.300   109237683.69749  20787241.448    85120278.78049
  22537805.615   118436973.57647  22537808.603    92288556.04848
  24111041.534   126704378.10047  24111044.577    98730690.96247
  24275984.269   127571164.55446  24275985.615    99406095.78447
  21174249.860   111271438.50649  21174252.243    86705026.57349
  24055848.091   126414327.72747  24055851.015    98504689.77447
  21014980.031   110434464.24649  21014979.814    86052829.19549
  24008110.785   126163466.95847  24008113.522    98309209.31248
  5  2 13 15 39 30.0000000  0  9G 4G 7G 8G 9G11G24G26G28G29
  22132708.196   116308178.96248  22132710.728    90629753.25148
  20787730.692   109240260.72449  20787731.839    85122286.85249
  22541137.960   118454485.10547  22541140.941    92302201.38548
  24107874.073   126687732.82448  24107877.126    98717720.59447
  24278921.895   127586601.79246  24278923.265    99418124.78246
  21172348.391   111261446.24749  21172350.767    86697240.41049
  24057595.700   126423511.41147  24057598.625    98511845.88047
  21015415.700   110436753.66949  21015415.483    86054613.15649
  24009894.013   126172837.88647  24009896.751    98316511.33848
  5  2 13 15 39 35.0000000  0  9G 4G 7G 8G 9G11G24G26G28G29
  22129536.328   116291510.74348  22129538.839    90616765.05148
  20788226.974   109242868.69948  20788228.121    85124319.04149
  22544476.349   118472028.42947  22544479.323    92315871.50148
  24104712.490   126671118.56148  24104715.546    98704774.42147
  24281865.407   127602070.02046  24281866.809    99430177.94746
  21170454.019   111251491.28949  21170456.389    86689483.31049
  24059349.615   126432728.29647  24059352.534    98519027.87548
  21015857.202   110439073.78148  21015856.986    86056421.03749
  24011683.113   126182239.63847  24011685.857    98323837.36548
  5  2 13 15 39 40.0000000  0  9G 4G 7G 8G 9G11G24G26G28G29
  22126341.211   116274720.41648  22126343.723    90603681.71048
  20788699.893   109245353.87848  20788701.033    85126255.54049
  22547791.525   118489449.73347  22547794.492    92329446.53348
  24101527.576   126654381.53947  24101530.642    98691732.55247
  24284785.574   127617415.50846  24284787.000    99442135.45246
  21168537.508   111241419.92449  21168539.872    86681635.49249
  24061080.590   126441824.56947  24061083.516    98526115.86548
  21016275.286   110441270.82548  21016275.077    86058133.01849
  24013448.814   126191518.43047  24013451.572    98331067.58048
  5  2 13 15 39 45.0000000  0  9G 4G 7G 8G 9G11G24G26G28G29
  22123210.881   116258270.39248  22123213.386    90590863.50748
  20789237.444   109248178.72849  20789238.585    85128456.72349
  22551171.477   118507211.49847  22551174.437    92343286.87548
  24098407.293   126637984.27847  24098410.355    98678955.46647
  24287770.365   127633100.78446  24287771.821    99454357.76546
  21166686.859   111231694.63549  21166689.223    86674057.33349
  24062876.605   126451262.72447  24062879.523    98533470.27548
  21016757.966   110443807.32548  21016757.750    86060109.51249
  24015279.125   126201136.77647  24015281.884    98338562.40048
  5  2 13 15 39 50.0000000  0  9G 4G 7G 8G 9G11G24G26G28G29
  22119998.875   116241391.05948  22120001.379    90577710.75048
  20789693.184   109250573.65848  20789694.324    85130322.89949
  22554469.781   118524544.14147  22554472.740    92356792.81348
  24095205.215   126621157.18347  24095208.272    98665843.44347
  24290673.408   127648356.15646  24290674.907    99466245.01046
  21164755.611   111221545.82748  21164757.969    86666149.17149
  24064591.222   126460273.09847  24064594.147    98540491.34148
  21017158.786   110445913.68048  21017158.563    86061750.84149
  24017027.623   126210325.07346  24017030.389    98345722.08148
  5  2 13 15 39 55.0000000  0  9G 4G 7G 8G 9G11G24G26G28G29
  22116851.722   116224852.63048  22116854.207    90564823.66748
  20790213.680   109253308.85048  20790214.821    85132454.21549
  22557832.987   118542217.84547  22557835.940    92370564.52348
  24092067.907   126604670.45947  24092070.959    98652996.64047
  24293641.164   127663951.82046  24293642.698    99478397.46547
  21162890.313   111211743.68049  21162892.671    86658511.14949
  24066371.012   126469625.86347  24066373.937    98547779.19047
  21017624.323   110448360.03449  21017624.107    86063657.07249
  24018840.817   126219853.47146  24018843.596    98353146.79848
  5  2 13 15 40  0.0000000  0  9G 4G 7G 8G 9G11G24G26G28G29
  22113652.285   116208039.59648  22113654.762    90551722.63148
  20790681.790   109255768.78548  20790682.924    85134371.04949
  22561143.971   118559617.05947  22561146.925    92384122.32648
  24088878.253   126587908.58847  24088881.306    98639935.41847
  24296556.584   127679272.24046  24296558.154    99490335.39447
  21160973.875   111201672.73149  21160976.234    86650663.66249
  24068098.823   126478705.50847  24068101.747    98554854.22148
  21018037.432   110450530.90448  21018037.216    86065348.65349
  24020601.618   126229106.44746  24020604.417    98360356.87748
  5  2 13 15 40  5.0000000  0  9G 4G 7G 8G 9G11G24G26G28G29
  22110517.931   116191568.48948  22110520.408    90538888.00948
  20791214.812   109258569.83548  20791215.946    85136553.68649
  22564519.985   118577358.13347  22564522.932    92397946.54248
  24085753.538   126571487.97247  24085756.598    98627140.10247
  24299536.884   127694933.85346  24299538.489    99502539.24347
  21159123.593   111191949.37049  21159125.945    86643087.00549
  24069891.947   126488128.40647  24069894.877    98562196.72548
  21018515.403   110453042.68948  21018515.180    86067305.89649
  24022427.285   126238700.36347  24022430.092    98367832.65048
  5  2 13 15 40 10.0000000  0  9G 4G 7G 8G 9G11G24G26G28G29
  22107331.470   116174823.49348  22107333.941    90525839.95848
  20791695.600   109261096.36048  20791696.741    85138522.40049
  22567843.931   118594825.43047  22567846.878    92411557.38948
  24082576.587   126554793.01247  24082579.632    98614131.05247
  24302464.951   127710320.97846  24302466.584    99514529.20746
  21157222.281   111181957.97149  21157224.634    86635301.51649
  24071633.236   126497278.90947  24071636.159    98569326.98448
  21018941.110   110455279.73049  21018940.880    86069049.03749
  24024200.663   126248019.55747  24024203.464    98375094.37348
  5  2 13 15 40 15.0000000  0  9G 4G 7G 8G 9G11G24G26G28G29
  22104180.906   116158267.13148  22104183.377    90512938.89248
  20792212.113   109263810.68848  20792213.254    85140637.46649
  22571203.758   118612481.34847  22571206.705    92425315.22548
  24079435.414   126538286.07347  24079438.446    98601268.51647
  24305428.772   127725895.99646  24305430.434    99526665.58646
  21155357.967   111172160.90449  21155360.320    86627667.43149
  24073410.657   126506619.35147  24073413.579    98576605.25447
  21019402.509   110457704.43048  21019402.280    86070938.42149
  24026009.776   126257526.41747  24026012.592    98382502.29348
  5  2 13 15 40 20.0000000  0  9G 4G 7G 8G 9G11G24G26G28G29
  22101007.711   116141591.84947  22101010.174    90499945.15848
  20792705.872   109266405.40549  20792707.013    85142659.32449
  22574540.948   118630018.36947  22574543.895    92438980.43048
  24076271.556   126521659.69647  24076274.580    98588312.85547
  24308369.843   127741351.39646  24308371.534    99538708.74246
  21153472.128   111162250.72349  21153474.475    86619945.21149
  24075165.732   126515842.30147  24075168.647    98583791.96548
  21019841.122   110460009.36049  21019840.892    86072734.46749
  24027796.089   126266913.46247  24027798.920    98389816.85148
  5  2 13 15 40 25.0000000  0  9G 4G 7G 8G 9G11G24G26G28G29
  22097841.276   116124952.21548  22097843.724    90486979.22948
  20793206.261   109269034.96749  20793207.408    85144708.32849
  22577884.904   118647590.91647  22577887.838    92452673.31648
  24073114.343   126505068.36847  24073117.351    98575384.53347
  24311317.569   127756841.61145  24311319.289    99550778.99146
  21151594.140   111152381.86249  21151596.480    86612255.19949
  24076927.866   126525102.28347  24076930.795    98591007.51048
  21020286.336   110462348.91249  21020286.107    86074557.48549
  24029588.984   126276335.15746  24029591.823    98397158.42748
  5  2 13 15 40 30.0000000  0  9G 4G 7G 8G 9G11G24G26G28G29
  22094681.702   116108348.60548  22094684.150    90474041.36548
  20793713.346   109271699.71748  20793714.492    85146784.75349
  22581235.684   118665199.32047  22581238.611    92466394.14148
  24069963.857   126488512.48147  24069966.837    98562483.85847
  24314271.940   127772367.09146  24314273.675    99562876.80246
  21149724.093   111142554.73049  21149726.426    86604597.70149
  24078697.079   126534399.49947  24078700.022    98598252.07548
  21020738.203   110464723.51948  21020737.972    86076407.82949
  24031388.546   126285791.79146  24031391.392    98404527.20648
  5  2 13 15 40 35.0000000  0  9G 4G 7G 8G 9G11G24G26G28G29
  22091558.373   116091935.40147  22091560.808    90461251.86548
  20794256.514   109274554.08449  20794257.660    85149008.93449
  22584622.692   118682998.13447  22584625.612    92480263.34648
  24066849.510   126472146.48047  24066852.476    98549731.13347
  24317262.471   127788082.21946  24317264.229    99575122.30846
  21147891.397   111132923.78549  21147893.723    86597093.06049
  24080502.781   126543888.49547  24080505.731    98605646.09048
  21021226.143   110467287.63349  21021225.913    86078405.83449
  24033224.141   126295437.91046  24033227.001    98412043.65648
  5  2 13 15 40 40.0000000  0  9G 4G 7G 8G 9G11G24G26G28G29
  22088383.458   116075251.11047  22088385.886    90448251.11948
  20794747.932   109277136.50549  20794749.086    85151021.20949
  22587958.113   118700525.73347  22587961.026    92493921.18448
  24063683.462   126455508.84647  24063686.414    98536766.76647
  24320201.211   127803525.37346  24320202.964    99587155.93646
  21146008.187   111123027.44749  21146010.514    86589381.63049
  24082257.121   126553107.61747  24082260.078    98612829.81448
  21021662.300   110469579.65149  21021662.077    86080191.81949
  24035007.947   126304811.77847  24035010.829    98419347.94448
  5  2 13 15 40 45.0000000  0  9G 4G 7G 8G 9G11G24G26G28G29
  22085215.638   116058604.10547  22085218.051    90435279.43048
  20795246.287   109279755.37948  20795247.434    85153061.89549
  22591300.608   118718090.57047  22591303.528    92507608.04448
  24060524.435   126438907.95647  24060527.393    98523830.97747
  24323146.885   127819005.05746  24323148.638    99599218.04246
  21144133.161   111113174.18049  21144135.473    86581703.77749
  24084018.808   126562365.31047  24084021.765    98620043.59748
  21022105.361   110471908.01748  21022105.131    86082006.14649
  24036798.634   126314221.96847  24036801.510    98426680.57748
  5  2 13 15 40 50.0000000  0  9G 4G 7G 8G 9G11G24G26G28G29
  22082055.028   116041994.95348  22082057.433    90422337.22748
  20795751.673   109282411.16749  20795752.827    85155131.33049
  22594650.233   118735692.93547  22594653.151    92521324.16048
  24057372.458   126422344.26547  24057375.408    98510924.22147
  24326099.590   127834521.59545  24326101.343    99611308.84446
  21142266.434   111103364.40348  21142268.747    86574059.78649
  24085787.902   126571661.93147  24085790.860    98627287.71248
  21022555.450   110474273.15449  21022555.226    86083849.08649
  24038596.308   126323668.77546  24038599.197    98434041.71148
  5  2 13 15 40 55.0000000  0  9G 4G 7G 8G 9G11G24G26G28G29
  22078930.981   116025578.00948  22078933.386    90409544.80948
  20796293.452   109285258.27048  20796294.613    85157349.85349
  22598036.419   118753487.34147  22598039.338    92535189.90248
  24054256.940   126405972.20047  24054259.890    98498166.78947
  24329088.702   127850229.42146  24329090.453    99623548.69046
  21140437.354   111093752.52249  21140439.660    86566570.00949
  24087593.799   126581151.95347  24087596.764    98634682.52648
  21023041.890   110476829.51049  21023041.674    86085841.06949
  24040430.347   126333306.71546  24040433.235    98441551.79148
  5  2 13 15 41  0.0000000  0  9G 4G 7G 8G 9G11G24G26G28G29
  22075755.705   116008891.88447  22075758.103    90396542.64848
  20796783.843   109287835.25849  20796784.997    85159357.89249
  22601371.309   118771012.30347  22601374.220    92548845.71848
  24051090.128   126389330.42947  24051093.086    98485199.15947
  24332026.450   127865667.23746  24332028.215    99635578.11346
  21138558.148   111083877.22849  21138560.453    86558874.97249
  24089348.701   126590373.93147  24089351.673    98641868.46048
  21023476.942   110479115.69149  21023476.725    86087622.50049
  24042212.957   126342674.26746  24042215.859    98448851.14848
  5  2 13 15 41  5.0000000  0  9G 4G 7G 8G 9G11G24G26G28G29
  22072617.198   115992399.01247  22072619.589    90383691.08348
  20797310.808   109290604.51049  20797311.968    85161515.75349
  22604742.927   118788730.27647  22604745.831    92562651.93648
  24047959.936   126372881.28847  24047962.886    98472381.67247
  24335000.760   127881297.31046  24335002.525    99647757.38546
  21136716.798   111074200.86748  21136719.095    86551334.95249
  24091140.562   126599790.25846  24091143.542    98649205.86548
  21023948.573   110481594.09948  21023948.357    86089553.72249
  24044032.091   126352233.81946  24044035.000    98456300.13448
  5  2 13 15 41 10.0000000  0  9G 4G 7G 8G 9G11G24G26G28G29
  22069486.292   115975945.95748  22069488.675    90370870.51248
  20797845.193   109293412.69349  20797846.353    85163703.94049
  22608122.097   118806487.87447  22608124.988    92576489.01548
  24044837.252   126356471.47247  24044840.204    98459594.81047
  24337982.454   127896966.21946  24337984.220    99659966.92746
  21134884.123   111064570.06848  21134886.414    86543830.42649
  24092940.225   126609247.51747  24092943.204    98656575.15048
  21024427.587   110484111.33248  21024427.377    86091515.20049
  24045858.584   126361832.04646  24045861.501    98463779.25648
  5  2 13 15 41 15.0000000  0  9G 4G 7G 8G 9G11G24G26G28G29
  22066333.731   115959379.13647  22066336.113    90357961.29948
  20798357.740   109296106.11149  20798358.893    85165802.70549
  22611479.546   118824131.38847  22611482.435    92590237.20248
  24041692.811   126339947.26047  24041695.764    98446718.79447
  24340942.347   127912520.34246  24340944.133    99672086.96346
  21133030.858   111054831.15649  21133033.141    86536241.67949
  24094718.444   126618592.03147  24094721.438    98663856.56448
  21024884.752   110486513.68649  21024884.548    86093387.14549
  24047663.193   126371315.26647  24047666.124    98471168.76047
  5  2 13 15 41 20.0000000  0  9G 4G 7G 8G 9G11G24G26G28G29
  22063218.177   115943006.85347  22063220.544    90345203.69148
  20798907.098   109298993.00649  20798908.252    85168052.23649
  22614873.986   118841969.10347  22614876.874    92604136.67648
  24038585.286   126323617.01047  24038588.233    98433993.91047
  24343939.035   127928267.97946  24343940.841    99684357.82546
  21131215.715   111045292.48448  21131217.991    86528808.94149
  24096533.869   126628132.11847  24096536.869    98671290.38848
  21025378.703   110489109.54649  21025378.493    86095409.92449
  24049504.554   126380991.68247  24049507.477    98478708.82848
  5  2 13 15 41 25.0000000  0  9G 4G 7G 8G 9G11G24G26G28G29
  22060051.825   115926367.65647  22060054.186    90332238.10748
  20799405.499   109301612.09149  20799406.652    85170093.07249
  22618217.556   118859539.65147  22618220.443    92617828.00048
  24035426.856   126307019.38247  24035429.791    98421060.71348
  24346884.740   127943747.76546  24346886.545    99696419.99046
  21129350.885   111035492.70349  21129353.152    86521172.74049
  24098298.689   126637406.37447  24098301.696    98678517.08848
  21025821.725   110491437.51649  21025821.516    86097223.90149
  24051294.904   126390399.97347  24051297.834    98486039.94748
  5  2 13 15 41 30.0000000  0  9G 4G 7G 8G 9G11G24G26G28G29
  22056893.469   115909770.41547  22056895.836    90319305.19148
  20799911.671   109304272.04348  20799912.824    85172165.76149
  22621569.031   118877151.70547  22621571.910    92631551.66548
  24032276.285   126290463.07847  24032279.214    98408159.71948
  24349838.216   127959268.35246  24349840.014    99708513.95247
  21127495.106   111025740.52048  21127497.367    86513573.63949
  24100071.703   126646723.53447  24100074.716    98685777.18648
  21026272.481   110493806.31648  21026272.270    86099069.72749
  24053092.975   126399848.90246  24053095.906    98493402.74748
  5  2 13 15 41 35.0000000  0  9G 4G 7G 8G 9G11G24G26G28G29
  22053743.176   115893215.54048  22053745.540    90306405.28848
  20800425.677   109306973.16149  20800426.830    85174270.52949
  22624928.478   118894805.69047  22624931.345    92645308.01948
  24029133.658   126273948.49847  24029136.580    98395291.21947
  24352799.546   127974830.15745  24352801.344    99720640.01246
  21125648.446   111016036.28548  21125650.699    86506011.90749
  24101852.910   126656083.92947  24101855.915    98693071.02348
  21026731.100   110496216.34249  21026730.889    86100947.66549
  24054898.841   126409338.72846  24054901.785    98500797.39648
  5  2 13 15 41 40.0000000  0  9G 4G 7G 8G 9G11G24G26G28G29
  22050630.357   115876857.56947  22050632.722    90293658.81848
  20800976.965   109309870.17249  20800978.119    85176527.93549
  22628325.314   118912656.11947  22628328.179    92659217.42448
  24026028.427   126257630.30147  24026031.347    98382575.71748
  24355798.108   127990587.73546  24355799.898    99732918.65246
  21123840.352   111006534.69049  21123842.605    86498608.06549
  24103671.813   126665642.20647  24103674.825    98700519.00048
  21027226.974   110498822.24249  21027226.764    86102978.25149
  24056741.904   126419024.12247  24056744.842    98508344.46848
  5  2 13 15 41 45.0000000  0  9G 4G 7G 8G 9G11G24G26G28G29
  22047496.454   115860388.88947  22047498.811    90280826.10448
  20801506.984   109312655.40549  20801508.137    85178698.23849
  22631700.996   118930395.41747  22631703.847    92673040.25348
  24022901.992   126241200.80847  24022904.899    98369773.52847
  24358775.430   128006233.48046  24358777.228    99745110.10146
  21122012.264   110996928.05148  21122014.502    86491122.38149
  24105469.802   126675090.73547  24105472.814    98707881.49348
  21027701.584   110501316.30449  21027701.373    86104921.66649
  24058563.623   126428597.41147  24058566.567    98515804.19048
  5  2 13 15 41 50.0000000  0  9G 4G 7G 8G 9G11G24G26G28G29
  22044341.604   115843810.13447  22044343.960    90267907.61048
  20802015.831   109315329.44949  20802016.977    85180781.91649
  22635055.634   118948024.12547  22635058.484    92686776.89848
  24019754.509   126224660.67147  24019757.415    98356885.10748
  24361731.515   128021767.87346  24361733.306    99757214.84146
  21120164.311   110987216.99448  21120166.542    86483555.32649
  24107247.012   126684430.06747  24107250.036    98715158.89047
  21028155.052   110503699.23048  21028154.841    86106778.47849
  24060364.151   126438059.18847  24060367.108    98523176.98148
  5  2 13 15 41 55.0000000  0  9G 4G 7G 8G 9G11G24G26G28G29
  22041224.552   115827429.88748  22041226.907    90255143.76948
  20802562.231   109318200.76548  20802563.376    85183019.29849
  22638447.942   118965850.76147  22638450.790    92700667.76448
  24016644.677   126208318.39647  24016647.577    98344150.87048
  24364725.173   128037499.49746  24364726.980    99769473.21446
  21118355.210   110977710.07549  21118357.441    86476147.32749
  24109062.171   126693968.66647  24109065.202    98722591.53548
  21028646.048   110506279.46149  21028645.836    86108789.05148
  24062202.154   126447717.92647  24062205.112    98530703.26948
  5  2 13 15 42  0.0000000  0  9G 4G 7G 8G 9G11G24G26G28G29
  22038086.726   115810940.52947  22038089.080    90242294.92148
  20803087.652   109320961.84348  20803088.799    85185170.78549
  22641819.392   118983567.79347  22641822.240    92714473.22648
  24013513.970   126191866.45147  24013516.863    98331331.18348
  24367697.813   128053120.82746  24367699.628    99781645.67947
  21116526.413   110968099.71148  21116528.638    86468658.74749
  24110856.698   126703398.96847  24110859.736    98729939.82048
  21029116.078   110508749.45549  21029115.867    86110713.71749
  24064019.105   126457266.06847  24064022.078    98538143.37848
  5  2 13 15 42  5.0000000  0  9G 4G 7G 8G 9G11G24G26G28G29
  22034957.586   115794496.82047  22034959.932    90229481.64448
  20803621.533   109323767.40648  20803622.680    85187356.93749
  22645199.412   119001329.94847  22645202.246    92728313.87748
  24010391.830   126175459.58946  24010394.723    98318546.63748
  24370678.917   128068786.60046  24370680.724    99793852.77147
  21114707.381   110958540.66448  21114709.598    86461210.14649
  24112660.071   126712875.72547  24112663.109    98737324.30048
  21029594.590   110511263.99049  21029594.378    86112673.08149
  24065844.477   126466858.37147  24065847.464    98545617.87448
  5  2 13 15 42 10.0000000  0  9G 4G 7G 8G 9G11G24G26G28G29
  22031837.233   115778099.35048  22031839.578    90216704.41148
  20804163.994   109326618.02548  20804165.134    85189578.19649
  22648588.147   119019137.80547  22648590.972    92742190.11448
  24007278.387   126159098.42747  24007281.280    98305797.70148
  24373668.572   128084497.31646  24373670.374    99806094.88847
  21112898.236   110949033.54249  21112900.453    86453801.99749
  24114472.381   126722399.54547  24114475.419    98744745.46948
  21030081.669   110513823.64249  21030081.452    86114667.62749
  24067678.356   126476495.37646  24067681.358    98553127.20648
  5  2 13 15 42 15.0000000  0  9G 4G 7G 8G 9G11G24G26G28G29
  22028667.147   115761440.49448  22028669.483    90203723.49848
  20804656.469   109329206.00149  20804657.609    85191594.80149
  22651927.014   119036683.61047  22651929.841    92755862.15948
  24004115.104   126142475.29447  24004118.003    98292844.61148
  24376608.258   128099945.31246  24376610.061    99818132.25747
  21111040.417   110939270.64048  21111042.628    86446194.54649
  24116235.112   126731662.69447  24116238.156    98751963.48948
  21030518.792   110516120.70449  21030518.581    86116457.53649
  24069462.191   126485869.42847  24069465.206    98560431.64148
  5  2 13 15 42 20.0000000  0  9G 4G 7G 8G 9G11G24G26G28G29
  22025564.684   115745136.97148  22025567.027    90191019.45648
  20805216.325   109332148.03149  20805217.465    85193887.28549
  22655333.367   119054584.05147  22655336.199    92769810.53548
  24001019.326   126126206.87447  24001022.224    98280167.91548
  24379615.291   128115747.28146  24379617.093    99830445.45847
  21109251.282   110929868.66948  21109253.485    86438868.33949
  24118065.587   126741281.81347  24118068.645    98759458.87748
  21031023.311   110518771.93848  21031023.099    86118523.42349
  24071313.311   126495597.12847  24071316.333    98568011.66547
  5  2 13 15 42 25.0000000  0  9G 4G 7G 8G 9G11G24G26G28G29
  22022442.004   115728727.21347  22022444.347    90178232.63548
  20805755.714   109334982.57349  20805756.854    85196096.02349
  22658719.371   119072377.59047  22658722.202    92783675.62048
  23997903.211   126109831.60647  23997906.110    98267407.97848
  24382601.820   128131441.66146  24382603.615    99842674.85847
  21107443.016   110920366.13748  21107445.218    86431463.75649
  24119875.954   126750795.38847  24119879.012    98766872.06248
  21031507.379   110521315.76449  21031507.168    86120505.63549
  24073143.916   126505216.99347  24073146.939    98575507.65848
  5  2 13 15 42 30.0000000  0  9G 4G 7G 8G 9G11G24G26G28G29
  22019299.255   115712211.95247  22019301.588    90165363.59448
  20806274.787   109337710.31749  20806275.926    85198221.53849
  22662085.191   119090064.97347  22662088.023    92797457.96748
  23994766.921   126093350.29547  23994769.821    98254565.39948
  24385568.055   128147029.20746  24385569.857    99854820.96847
  21105615.732   110910763.72648  21105617.928    86423981.36849
  24121666.381   126760204.11447  24121669.445    98774203.52348
  21031971.159   110523752.94449  21031970.948    86122404.73749
  24074954.131   126514729.73947  24074957.161    98582920.18548
  5  2 13 15 42 35.0000000  0  9G 4G 7G 8G 9G11G24G26G28G29
  22016195.084   115695899.52047  22016197.410    90152652.62948
  20806832.216   109340639.59449  20806833.355    85200504.08649
  22665489.457   119107954.44547  22665492.289    92811397.80648
  23991669.125   126077071.17347  23991672.032    98241880.34747
  24388572.594   128162818.13546  24388574.389    99867124.02647
  21103828.117   110901369.77749  21103830.305    86416661.41549
  24123495.510   126769816.25247  24123498.568    98781693.50748
  21032473.306   110526391.68449  21032473.096    86124460.88549
  24076802.628   126524443.59147  24076805.659    98590489.41048
  5  2 13 15 42 40.0000000  0  9G 4G 7G 8G 9G11G24G26G28G29
  22013071.053   115679482.65547  22013073.370    90139860.27148
  20807369.506   109343463.07249  20807370.645    85202704.19849
  22668873.693   119125738.69647  22668876.524    92825255.65248
  23988551.318   126060687.01447  23988554.231    98229113.47547
  24391557.011   128178501.16646  24391558.822    99879344.52747
  21102021.695   110891876.96848  21102023.883    86409264.42049
  24125304.910   126779324.58547  24125307.975    98789102.56748
  21032955.335   110528924.76149  21032955.138    86126434.70449
  24078630.929   126534051.25547  24078633.967    98597975.87347
  5  2 13 15 42 45.0000000  0  9G 4G 7G 8G 9G11G24G26G28G29
  22009956.534   115663115.75047  22009958.843    90127106.83648
  20807916.059   109346335.23149  20807917.199    85204942.24349
  22672267.310   119143572.21347  22672270.142    92839151.88748
  23985442.922   126044352.28747  23985445.836    98216385.11347
  24394550.668   128194232.78146  24394552.493    99891602.89147
  21100225.861   110882439.76148  21100228.047    86401910.74149
  24127123.931   126788883.51247  24127127.001    98796551.05248
  21033446.652   110531506.65149  21033446.448    86128446.56949
  24080468.410   126543707.22046  24080471.449    98605499.99047
  5  2 13 15 42 50.0000000  0  9G 4G 7G 8G 9G11G24G26G28G29
  22006822.361   115646645.61947  22006824.654    90114272.98048
  20808442.704   109349102.70648  20808443.837    85207098.70749
  22675641.136   119161301.69347  22675643.974    92852967.03948
  23982314.765   126027913.67747  23982317.679    98203575.80247
  24397524.343   128209859.58246  24397526.176    99903779.62747
  21098411.440   110872904.91549  21098413.620    86394480.99549
  24128923.371   126798339.66547  24128926.442    98803919.49248
  21033918.081   110533983.99749  21033917.879    86130376.96649
  24082285.877   126553258.13746  24082288.916    98612942.27547
  5  2 13 15 42 55.0000000  0  9G 4G 7G 8G 9G11G24G26G28G29
  22003697.950   115630226.76047  22003700.241    90101479.06348
  20808978.840   109351920.12149  20808979.973    85209294.09549
  22679024.553   119179081.63847  22679027.391    92866821.53748
  23979196.251   126011525.77747  23979199.158    98190806.01247
  24400507.504   128225536.13546  24400509.352    99915995.11147
  21096607.845   110863426.99448  21096610.031    86387095.60149
  24130732.690   126807847.63747  24130735.761    98811328.28748
  21034399.042   110536511.43149  21034398.839    86132346.38849
  24084112.824   126562858.55647  24084115.883    98620423.05848
  5  2 13 15 43  0.0000000  0  9G 4G 7G 8G 9G11G24G26G28G29
  22000583.396   115613859.70047  22000585.686    90088725.50948
  20809524.555   109354787.87249  20809525.687    85211528.70249
  22682417.661   119196912.44747  22682420.493    92880715.65748
  23976087.450   125995189.04247  23976090.349    98178076.11847
  24403500.244   128241262.93646  24403502.115    99928249.72347
  21094815.166   110854006.39848  21094817.337    86379754.87949
  24132551.939   126817407.85347  24132555.009    98818777.80348
  21034889.606   110539089.36149  21034889.410    86134355.16249
  24085949.215   126572508.92147  24085952.274    98627942.83248
  5  2 13 15 43  5.0000000  0  9G 4G 7G 8G 9G11G24G26G28G29
  21997478.782   115597544.93747  21997481.063    90076012.72448
  20810079.963   109357706.56249  20810081.095    85213803.00449
  22685820.554   119214794.76847  22685823.384    92894649.92848
  23972988.518   125978904.07647  23972991.417    98165386.54047
  24406502.617   128257040.50946  24406504.497    99940543.94347
  21093033.523   110844643.80149  21093035.686    86372459.34949
  24134381.267   126827020.91247  24134384.344    98826268.46948
  21035389.900   110541718.39448  21035389.711    86136403.75149
  24087795.240   126582209.78447  24087798.312    98635501.92747
  5  2 13 15 43 10.0000000  0  9G 4G 7G 8G 9G11G24G26G28G29
  21994384.300   115581283.32347  21994386.580    90063341.33548
  20810645.221   109360677.00849  20810646.352    85216117.64049
  22689233.406   119232729.36747  22689236.237    92908624.92848
  23969899.590   125962671.71047  23969902.482    98152737.96147
  24409514.826   128272869.65146  24409516.720    99952878.30847
  21091263.068   110835339.99849  21091265.231    86365209.63349
  24136220.769   126836687.62547  24136223.847    98833800.98948
  21035900.074   110544399.37749  21035899.879    86138492.83449
  24089651.004   126591961.95046  24089654.069    98643101.03247
  5  2 13 15 43 15.0000000  0  9G 4G 7G 8G 9G11G24G26G28G29
  21991270.701   115564921.31447  21991272.980    90050591.72348
  20811191.083   109363545.50149  20811192.214    85218352.82349
  22692626.960   119250562.55147  22692629.791    92922520.90348
  23966791.455   125946338.25847  23966794.361    98140010.56847
  24412507.587   128288596.71646  24412509.491    99965133.17047
  21089474.546   110825941.34548  21089476.701    86357886.02649
  24138041.275   126846254.22947  24138044.353    98841255.43948
  21036390.885   110546978.60848  21036390.698    86140502.62549
  24091487.303   126601611.76647  24091490.368    98650620.37247
  5  2 13 15 43 20.0000000  0  9G 4G 7G 8G 9G11G24G26G28G29
  21988138.102   115548459.45748  21988140.379    90037764.31048
  20811717.655   109366312.66049  20811718.787    85220509.04849
  22696001.339   119268294.93847  22696004.177    92936338.32548
  23963664.191   125929904.37347  23963667.092    98127204.95347
  24415481.059   128304222.28946  24415482.970    99977308.91647
  21087668.104   110816448.39948  21087670.252    86350488.91749
  24139842.800   126855721.36747  24139845.877    98848632.44148
  21036862.456   110549456.69648  21036862.262    86142433.60149
  24093304.242   126611159.81547  24093307.300    98658060.40547
  5  2 13 15 43 25.0000000  0  9G 4G 7G 8G 9G11G24G26G28G29
  21985045.236   115532206.37148  21985047.512    90025099.56948
  20812283.664   109369287.08849  20812284.795    85222826.79049
  22699415.266   119286235.14947  22699418.117    92950317.68148
  23960576.552   125913678.65846  23960579.445    98114561.52647
  24418493.942   128320054.91246  24418495.876    99989645.98147
  21085902.454   110807169.84448  21085904.601    86343258.87249
  24141684.141   126865397.62047  24141687.212    98856172.37048
  21037373.501   110552142.25949  21037373.316    86144526.24749
  24095160.544   126620914.65547  24095163.609    98665661.55347
  5  2 13 15 43 30.0000000  0  9G 4G 7G 8G 9G11G24G26G28G29
  21981962.851   115516008.36047  21981965.112    90012477.74948
  20812859.874   109372315.05648  20812860.997    85225186.24149
  22702839.474   119304229.45747  22702842.319    92964339.21848
  23957499.267   125897507.41947  23957502.160    98101960.55747
  24421516.942   128335940.91446  24421518.884   100002024.69347
  21084148.334   110797951.91248  21084150.474    86336076.08049
  24143536.011   126875129.26047  24143539.095    98863755.45748
  21037894.789   110554881.58248  21037894.604    86146660.77449
  24097026.946   126630722.56746  24097030.011    98673304.06347
  5  2 13 15 43 35.0000000  0  9G 4G 7G 8G 9G11G24G26G28G29
  21978832.458   115499558.09247  21978834.724    89999659.36448
  20813387.799   109375089.32449  20813388.930    85227348.00449
  22706215.516   119321970.58347  22706218.374    92978163.44148
  23954373.878   125881083.41747  23954376.763    98089162.64247
  24424491.652   128351573.05746  24424493.595   100014205.57347
  21082347.291   110788487.36948  21082349.424    86328701.10949
  24145339.952   126884609.03847  24145343.036    98871142.29348
  21038367.831   110557367.43348  21038367.653    86148597.79849
  24098844.968   126640276.30747  24098848.034    98680748.53247
  5  2 13 15 43 40.0000000  0  9G 4G 7G 8G 9G11G24G26G28G29
  21975712.810   115483164.32748  21975715.069    89986885.02248
  20813926.162   109377918.44248  20813927.293    85229552.51249
  22709602.082   119339767.04347  22709604.933    92992030.80248
  23951259.123   125864715.20747  23951262.007    98076408.17747
  24427476.776   128367259.89546  24427478.727   100026429.06647
  21080558.043   110779084.80649  21080560.175    86321374.43649
  24147154.695   126894145.48247  24147157.793    98878573.26448
  21038851.355   110559908.36949  21038851.177    86150577.75049
  24100673.334   126649884.40446  24100676.406    98688235.34847
  5  2 13 15 43 45.0000000  0  9G 4G 7G 8G 9G11G24G26G28G29
  21972633.299   115466981.42048  21972635.557    89974274.96948
  20814504.360   109380956.85748  20814505.490    85231920.10349
  22713028.573   119357773.37547  22713031.424    93006061.71048
  23948184.358   125848557.30247  23948187.236    98063817.62847
  24430501.656   128383155.78046  24430503.615   100038815.47947
  21078810.001   110769898.78649  21078812.126    86314216.50049
  24149009.604   126903893.06447  24149012.702    98886168.77548
  21039374.753   110562658.84448  21039374.577    86152720.98549
  24102541.440   126659701.36947  24102544.492    98695884.94247
  5  2 13 15 43 50.0000000  0  9G 4G 7G 8G 9G11G24G26G28G29
  21969535.410   115450701.93348  21969537.674    89961589.65648
  20815063.879   109383897.15448  20815065.003    85234211.24549
  22716436.472   119375681.97447  22716439.316    93020016.45848
  23945091.128   125832302.23747  23945094.006    98051151.33747
  24433507.872   128398953.39646  24433509.846   100051125.27247
  21077044.637   110760621.76448  21077046.753    86306987.65549
  24150846.158   126913544.31547  24150849.257    98893689.25548
  21039879.530   110565311.43648  21039879.361    86154787.92849
  24104390.772   126669419.64247  24104393.815    98703457.61347
  5  2 13 15 43 55.0000000  0  9G 4G 7G 8G 9G11G24G26G28G29
  21966448.556   115434480.40647  21966450.814    89948949.51048
  20815634.121   109386893.76048  20815635.238    85236546.26349
  22719855.190   119393647.39747  22719858.035    93034015.47748
  23942008.794   125816104.55947  23942011.680    98038529.78747
  24436524.759   128414807.15247  24436526.742   100063478.83347
  21075291.374   110751408.24348  21075293.491    86299808.27749
  24152693.820   126923253.68547  24152696.918    98901254.96248
  21040395.083   110568020.65348  21040394.915    86156899.00349
  24106250.742   126679193.82147  24106253.785    98711073.84847
  5  2 13 15 44  0.0000000  0  9G 4G 7G 8G 9G11G24G26G28G29
  21963343.534   115418163.43848  21963345.784    89936234.99448
  20816185.881   109389793.28448  20816187.000    85238805.63449
  22723255.551   119411516.25947  22723258.409    93047939.22348
  23938908.188   125799810.82647  23938911.067    98025833.38947
  24439523.114   128430563.55047  24439525.099   100075756.53847
  21073520.991   110742104.88249  21073523.102    86292558.92249
  24154523.329   126932867.85346  24154526.428    98908746.53048
  21040892.205   110570633.04448  21040892.043    86158934.63049
  24108092.153   126688870.40547  24108095.195    98718614.02047
  5  2 13 15 44  5.0000000  0  9G 4G 7G 8G 9G11G24G26G28G29
  21960249.781   115401905.65248  21960252.030    89923566.58848
  20816748.580   109392750.25548  20816749.692    85241109.76349
  22726666.917   119429443.04247  22726669.774    93061908.13048
  23935818.743   125783575.61947  23935821.629    98013182.56347
  24442532.356   128446377.15846  24442534.348   100088078.81747
  21071762.920   110732866.18848  21071765.023    86285359.94549
  24156364.131   126942541.27047  24156367.235    98916284.23448
  21041400.323   110573303.16548  21041400.170    86161015.23049
  24109944.396   126698603.94847  24109947.431    98726198.58447
  5  2 13 15 44 10.0000000  0  9G 4G 7G 8G 9G11G24G26G28G29
  21957138.032   115385553.36748  21957140.274    89910824.56348
  20817292.987   109395611.10249  20817294.099    85243338.98849
  22730060.082   119447274.15047  22730062.940    93075802.48348
  23932711.177   125767245.34447  23932714.050    98000457.70247
  24445523.272   128462094.46646  24445525.271   100100326.05547
  21069987.938   110723538.56048  21069990.040    86278091.65649
  24158186.962   126952120.34347  24158190.066    98923748.45548
  21041890.202   110575877.46048  21041890.049    86163021.17249
  24111778.258   126708240.83347  24111781.294    98733707.82147
  5  2 13 15 44 15.0000000  0  9G 4G 7G 8G 9G11G24G26G28G29
  21954067.036   115369415.20548  21954069.285    89898249.37448
  20817877.815   109398684.39448  20817878.927    85245733.76049
  22733493.775   119465318.20647  22733496.634    93089862.76148
  23929644.289   125751128.64447  23929647.169    97987899.21247
  24448554.583   128478023.98946  24448556.591   100112738.64747
  21068254.766   110714430.65048  21068256.860    86270994.57449
  24160050.572   126961913.67647  24160053.662    98931379.63148
  21042420.550   110578664.52448  21042420.405    86165192.92149
  24113652.435   126718089.63547  24113655.471    98741382.20247
  5  2 13 15 44 20.0000000  0  9G 4G 7G 8G 9G11G24G26G28G29
  21950978.260   115353183.67048  21950980.502    89885601.44848
  20818444.533   109401662.51649  20818445.645    85248054.37749
  22736909.418   119483267.50147  22736912.265    93103849.23148
  23926559.483   125734917.88147  23926562.363    97975267.44847
  24451567.725   128493858.12747  24451569.735   100125076.93447
  21066504.853   110705234.82949  21066506.941    86263829.00949
  24161896.425   126971613.60947  24161899.530    98938937.99348
  21042932.876   110581356.75148  21042932.745    86167290.74449
  24115508.400   126727842.67447  24115511.438    98748981.94847
  5  2 13 15 44 25.0000000  0  9G 4G 7G 8G 9G11G24G26G28G29
  21947901.109   115337013.10048  21947903.357    89873000.99348
  20819022.527   109404699.86349  20819023.638    85250421.13249
  22740336.449   119501276.51347  22740339.303    93117882.19148
  23923486.162   125718767.46947  23923489.028    97962682.72047
  24454592.112   128509751.26046  24454594.135   100137461.16247
  21064767.601   110696105.50748  21064769.682    86256715.25649
  24163753.870   126981374.51546  24163756.981    98946543.88548
  21043456.510   110584108.53148  21043456.379    86169435.00049
  24117375.526   126737654.45346  24117378.562    98756627.48147
  5  2 13 15 44 30.0000000  0  9G 4G 7G 8G 9G11G24G26G28G29
  21944806.373   115320750.18648  21944808.614    89860328.60148
  20819582.600   109407643.06949  20819583.712    85252714.53849
  22743745.633   119519191.89847  22743748.474    93131842.24048
  23920395.157   125702524.09747  23920398.023    97950025.53847
  24457598.546   128525550.05546  24457600.578   100149771.88747
  21063013.835   110686889.36948  21063015.908    86249533.84449
  24165593.751   126991043.06247  24165596.876    98954077.79148
  21043962.326   110586766.58149  21043962.203    86171506.20049
  24119224.621   126747371.54746  24119227.651    98764199.25347
  5  2 13 15 44 35.0000000  0  9G 4G 7G 8G 9G11G24G26G28G29
  21941664.841   115304241.32348  21941667.082    89847464.55148
  20820095.534   109410338.55248  20820096.646    85254814.91949
  22747107.781   119536859.97948  22747110.624    93145609.55548
  23917257.247   125686034.14647  23917260.107    97937176.20347
  24460557.772   128541100.92346  24460559.811   100161889.45247
  21061214.317   110677432.80849  21061216.396    86242165.08249
  24167386.809   127000465.61547  24167389.935    98961420.03748
  21044421.054   110589177.20848  21044420.937    86173384.61149
  24121026.499   126756840.38246  24121029.534    98771577.53747
  5  2 13 15 44 40.0000000  0  9G 4G 7G 8G 9G11G24G26G28G29
  21938623.117   115288256.98748  21938625.351    89835009.23548
  20820707.959   109413556.83748  20820709.072    85257322.66849
  22750569.497   119555051.29448  22750572.334    93159784.58548
  23914219.044   125670068.18647  23914221.884    97924735.18647
  24463616.457   128557174.33047  24463618.498   100174414.17047
  21059515.667   110668506.40549  21059517.732    86235209.46049
  24169279.667   127010412.67947  24169282.799    98969170.99848
  21044979.354   110592111.03248  21044979.238    86175670.69849
  24122927.726   126766831.42846  24122930.760    98779362.77347
  5  2 13 15 44 45.0000000  0  9G 4G 7G 8G 9G11G24G26G28G29
  21935564.074   115272181.63848  21935566.301    89822482.99848
  20821302.709   109416682.29848  20821303.821    85259758.09849
  22754013.604   119573150.19647  22754016.441    93173887.63048
  23911163.375   125654010.57047  23911166.208    97912222.76947
  24466657.443   128573154.69046  24466659.498   100186866.37047
  21057800.756   110659494.45448  21057802.820    86228187.15049
  24171155.218   127020268.67546  24171158.358    98976850.97248
  21045520.032   110594952.37848  21045519.924    86177884.74649
  24124811.186   126776729.08247  24124814.213    98787075.22947
  5  2 13 15 44 50.0000000  0  9G 4G 7G 8G 9G11G24G26G28G29
  21932429.227   115255707.93748  21932431.453    89809646.35148
  20821821.292   109419407.44348  20821822.397    85261881.58249
  22757381.635   119590849.22647  22757384.473    93187679.06248
  23908031.756   125637553.95747  23908034.577    97899399.48047
  24469622.204   128588734.55446  24469624.260   100199006.51247
  21056011.083   110650089.63148  21056013.141    86220858.71549
  24172954.916   127029726.14947  24172958.069    98984220.42648
  21045984.639   110597393.87348  21045984.538    86179787.20149
  24126618.399   126786225.92147  24126621.433    98794475.33348
  5  2 13 15 44 55.0000000  0  9G 4G 7G 8G 9G11G24G26G28G29
  21929365.171   115239606.21648  21929367.398    89797099.56048
  20822410.322   109422502.78348  20822411.435    85264293.52849
  22760820.194   119608918.84947  22760823.026    93201759.27048
  23904970.837   125621468.74946  23904973.643    97886865.56247
  24472657.353   128604684.30647  24472659.431   100211434.87047
  21054293.238   110641062.35849  21054295.288    86213824.48849
  24174825.389   127039555.52247  24174828.543    98991879.67248
  21046519.770   110600205.97748  21046519.670    86181978.44649
  24128495.945   126796092.36847  24128498.993    98802163.44248
  5  2 13 15 45  0.0000000  0  9G 4G 7G 8G 9G11G24G26G28G29
  21926313.394   115223569.05248  21926315.614    89784603.07748
  20823011.276   109425660.81849  20823012.382    85266754.33949
  22764270.746   119627051.59347  22764273.579    93215888.67548
  23901922.093   125605447.46047  23901924.907    97874381.43347
  24475704.386   128620696.45046  24475706.471   100223911.83347
  21052588.733   110632105.12148  21052590.775    86206844.82349
  24176708.095   127049449.23947  24176711.255    98999589.06448
  21047066.892   110603081.12348  21047066.800    86184218.82049
  24130385.285   126806020.85747  24130388.327    98809899.91847
  5  2 13 15 45  5.0000000  0  9G 4G 7G 8G 9G11G24G26G28G29
  21923215.356   115207288.78248  21923217.569    89771917.16048
  20823565.611   109428573.86749  20823566.724    85269024.24549
  22767674.777   119644939.80547  22767677.611    93229827.52448
  23898826.965   125589182.51446  23898829.759    97861707.47647
  24478704.733   128636463.34447  24478706.825   100236197.72147
  21050839.027   110622910.32448  21050841.062    86199680.04348
  24178544.524   127059099.70947  24178547.685    99007108.90648
  21047567.487   110605711.76348  21047567.401    86186268.66749
  24132227.896   126815703.81146  24132230.939    98817445.07447
  5  2 13 15 45 10.0000000  0  9G 4G 7G 8G 9G11G24G26G28G29
  21920159.087   115191228.01248  21920161.294    89759402.28948
  20824161.338   109431704.40448  20824162.445    85271463.62349
  22771120.271   119663045.87147  22771123.106    93243936.12348
  23895773.480   125573136.34347  23895776.266    97849203.96647
  24481746.433   128652447.49447  24481748.533   100248652.88147
  21049132.113   110613940.46048  21049134.139    86192690.54149
  24180422.675   127068969.39647  24180425.842    99014799.55348
  21048109.542   110608560.31349  21048109.457    86188488.32749
  24134111.773   126825603.61846  24134114.809    98825159.20747
  5  2 13 15 45 15.0000000  0  9G 4G 7G 8G 9G11G24G26G28G29
  21917056.789   115174925.29148  21917058.989    89746698.86748
  20824710.654   109434591.07949  20824711.761    85273712.98149
  22774519.427   119680908.49247  22774522.268    93257855.03148
  23892673.815   125556847.61647  23892676.587    97836511.48647
  24484741.669   128668187.56346  24484743.763   100260917.88047
  21047380.218   110604734.15848  21047382.244    86185516.79249
  24182254.757   127078596.95947  24182257.937    99022301.52048
  21048605.304   110611165.49849  21048605.227    86190518.32849
  24135949.152   126835258.98847  24135952.182    98832682.84847
  5  2 13 15 45 20.0000000  0  9G 4G 7G 8G 9G11G24G26G28G29
  21913996.420   115158842.94648  21913998.606    89734167.17648
  20825301.536   109437696.18549  20825302.650    85276132.54049
  22777960.229   119698989.93448  22777963.065    93271944.45548
  23889616.010   125540778.71246  23889618.783    97823990.25847
  24487778.435   128684145.78446  24487780.537   100273352.83647
  21045671.291   110595753.75048  21045673.309    86178519.08348
  24184128.724   127088444.66047  24184131.905    99029975.04348
  21049142.723   110613989.55948  21049142.653    86192718.87349
  24137827.983   126845132.12447  24137831.012    98840376.15647
  5  2 13 15 45 25.0000000  0  9G 4G 7G 8G 9G11G24G26G28G29
  21910919.501   115142673.65848  21910921.680    89721567.73848
  20825875.491   109440712.33549  20825876.604    85278482.78849
  22781384.177   119716982.78047  22781387.020    93285964.82648
  23886541.518   125524622.17946  23886544.289    97811400.75347
  24490798.209   128700014.67947  24490800.327   100285718.18247
  21043946.870   110586691.79248  21043948.881    86171457.80549
  24185986.059   127098205.01847  24185989.232    99037580.51748
  21049663.257   110616725.08248  21049663.188    86194850.46949
  24139689.738   126854915.62047  24139692.760    98847999.64047
  5  2 13 15 45 30.0000000  0  9G 4G 7G 8G 9G11G24G26G28G29
  21907855.421   115126571.77648  21907857.598    89709020.80648
  20826461.899   109443793.93449  20826463.014    85280884.03849
  22784820.623   119735041.42447  22784823.461    93300036.50948
  23883479.747   125508532.43346  23883482.518    97798863.28147
  24493830.369   128715948.75747  24493832.489   100298134.34947
  21042236.307   110577702.78548  21042238.310    86164453.39749
  24187856.155   127108032.50247  24187859.329    99045238.31248
  21050196.363   110619526.53949  21050196.301    86197033.41749
  24141563.801   126864763.97947  24141566.815    98855673.70847
  5  2 13 15 45 35.0000000  0  9G 4G 7G 8G 9G11G24G26G28G29
  21904804.252   115110537.77648  21904806.409    89696526.79148
  20827060.856   109446941.41048  20827061.971    85283336.60549
  22788269.717   119753166.38147  22788272.558    93314159.82548
  23880430.790   125492510.05946  23880433.568    97786378.30747
  24496875.022   128731948.39147  24496877.164   100310601.56647
  21040539.715   110568787.20148  21040541.717    86157506.19849
  24189739.152   127117927.59547  24189742.334    99052948.74748
  21050742.106   110622394.40449  21050742.051    86199268.10949
  24143450.326   126874677.61247  24143453.341    98863398.58948
  5  2 13 15 45 40.0000000  0  9G 4G 7G 8G 9G11G24G26G28G29
  21901736.822   115094418.38748  21901738.980    89683966.24148
  20827643.162   109450001.48249  20827644.285    85285721.08349
  22791702.236   119771204.29647  22791705.077    93328215.32548
  23877365.456   125476401.67947  23877368.220    97773826.34447
  24499902.974   128747860.32447  24499905.125   100323000.46347
  21038827.929   110559791.67148  21038829.923    86150496.68449
  24191605.795   127127736.87247  24191608.977    99060592.33848
  21051271.289   110625175.31348  21051271.242    86201435.05849
  24145320.094   126884503.18147  24145323.114    98871054.84448
  5  2 13 15 45 45.0000000  0  9G 4G 7G 8G 9G11G24G26G28G29
  21898653.233   115078214.01548  21898655.383    89671339.45948
  20828208.906   109452974.45249  20828210.030    85288037.68149
  22795118.241   119789155.46247  22795121.090    93342203.23148
  23874283.812   125460207.62647  23874286.569    97761207.62547
  24502914.292   128763684.93647  24502916.437   100335331.34847
  21037100.990   110550716.57948  21037102.977    86143425.19248
  24193456.197   127137460.70447  24193459.386    99068169.32948
  21051784.011   110627869.62249  21051783.965    86203534.50949
  24147173.162   126894241.02547  24147176.190    98878642.75447
  5  2 13 15 45 50.0000000  0  9G 4G 7G 8G 9G11G24G26G28G29
  21895582.843   115062079.00948  21895584.987    89658766.73348
  20828787.446   109456014.70049  20828788.577    85290406.70349
  22798547.139   119807174.28647  22798549.996    93356243.84248
  23871215.261   125444082.34547  23871218.011    97748642.48647
  24505938.398   128779576.53646  24505940.565   100347714.36447
  21035388.284   110541716.30948  21035390.270    86136412.00649
  24195319.722   127147253.50147  24195322.925    99075800.05448
  21052309.624   110630631.77048  21052309.585    86205686.83649
  24149038.906   126904045.54447  24149041.941    98886282.62947
  5  2 13 15 45 55.0000000  0  9G 4G 7G 8G 9G11G24G26G28G29
  21892555.041   115046167.77148  21892557.178    89646368.36048
  20829408.167   109459276.61349  20829409.298    85292948.45449
  22802018.277   119825415.17347  22802021.134    93370457.51048
  23868189.202   125428180.23347  23868191.953    97736251.21947
  24509004.589   128795689.47746  24509006.750   100360269.91047
  21033719.220   110532945.25648  21033721.198    86129577.40549
  24197225.728   127157269.59847  24197228.931    99083604.79748
  21052877.527   110633616.12049  21052877.489    86208012.30749
  24150946.693   126914070.97146  24150949.735    98894094.63447
  5  2 13 15 46  0.0000000  0  9G 4G 7G 8G 9G11G24G26G28G29
  21889482.006   115030018.89348  21889484.135    89633784.82648
  20829983.272   109462298.80849  20829984.410    85295303.41149
  22805443.853   119843416.66747  22805446.719    93384484.64348
  23865117.785   125412039.85947  23865120.536    97723674.31447
  24512025.107   128811562.31347  24512027.276   100372638.33547
  21032005.963   110523942.03248  21032007.941    86122561.90348
  24199086.423   127167047.58447  24199089.619    99091224.00348
  21053399.917   110636361.26949  21053399.886    86210151.37349
  24152808.741   126923856.03746  24152811.790    98901719.34547
  5  2 13 15 46  5.0000000  0  9G 4G 7G 8G 9G11G24G26G28G29
  21886451.740   115014094.83148  21886453.855    89621376.49148
  20830600.747   109465543.63249  20830601.894    85297831.84049
  22808911.868   119861641.11747  22808914.735    93398685.49848
  23862089.047   125396123.60847  23862091.798    97711272.01147
  24515087.916   128827657.42147  24515090.086   100385179.96647
  21030336.515   110515169.02048  21030338.485    86115725.79248
  24200989.818   127177049.83847  24200993.028    99099017.92848
  21053964.765   110639329.53348  21053964.735    86212464.30549
  24154712.991   126933863.03346  24154716.041    98909517.02747
  5  2 13 15 46 10.0000000  0  9G 4G 7G 8G 9G11G24G26G28G29
  21883376.406   114997933.81048  21883378.513    89608783.48248
  20831172.715   109468549.34449  20831173.869    85300173.95249
  22812334.443   119879626.80447  22812337.318    93412700.30748
  23859015.100   125379969.78547  23859017.858    97698684.58847
  24518105.147   128843513.07647  24518107.318   100397535.03047
  21028622.996   110506164.51048  21028624.965    86108709.30749
  24202848.004   127186814.60848  24202851.214    99106626.82548
  21054484.211   110642059.26848  21054484.188    86214591.37849
  24156571.642   126943630.24947  24156574.692    98917127.82847
  5  2 13 15 46 15.0000000  0  9G 4G 7G 8G 9G11G24G26G28G29
  21880314.698   114981844.39548  21880316.798    89596246.27148
  20831757.885   109471624.43549  20831759.040    85302570.12949
  22815770.304   119897682.25046  22815773.186    93426769.45748
  23855954.621   125363886.92247  23855957.367    97686152.51247
  24521135.545   128859437.76846  24521137.730   100409943.84247
  21026924.156   110497236.98448  21026926.125    86101752.77949
  24204719.690   127196650.38447  24204722.901    99114291.07248
  21055016.985   110644858.98648  21055016.969    86216772.96649
  24158443.368   126953466.10947  24158446.418    98924792.10847
  5  2 13 15 46 20.0000000  0  9G 4G 7G 8G 9G11G24G26G28G29
  21877237.372   114965672.96848  21877239.465    89583645.16748
  20832327.052   109474615.39549  20832328.208    85304900.74549
  22819190.202   119915653.84647  22819193.098    93440773.27048
  23852878.445   125347721.44547  23852881.198    97673556.02047
  24524149.833   128875277.92947  24524152.013   100422286.82447
  21025210.735   110488232.89848  21025212.697    86094736.60848
  24206575.683   127206403.60047  24206578.906    99121890.94848
  21055533.848   110647575.11649  21055533.826    86218889.43949
  24160298.917   126963217.11546  24160301.953    98932390.31047
  5  2 13 15 46 25.0000000  0  9G 4G 7G 8G 9G11G24G26G28G29
  21874203.153   114949728.07248  21874205.238    89571220.58048
  20832938.891   109477830.62849  20832940.054    85307406.12249
  22822652.818   119933849.95146  22822655.722    93454952.04248
  23849845.261   125331781.86147  23849848.014    97661135.54447
  24527206.738   128891342.00847  24527208.914   100434804.29047
  21023541.444   110479460.74348  21023543.405    86087901.16849
  24208474.633   127216382.65047  24208477.850    99129666.83548
  21056093.510   110650516.09849  21056093.496    86221181.09849
  24162197.042   126973191.73346  24162200.092    98940162.71348
  5  2 13 15 46 30.0000000  0  9G 4G 7G 8G 9G11G24G26G28G29
  21871153.518   114933702.19648  21871155.597    89558732.90348
  20833534.892   109480962.60448  20833536.063    85309846.61749
  22826099.654   119951963.10346  22826102.559    93469066.17048
  23846796.541   125315760.66747  23846799.287    97648651.48647
  24530247.756   128907322.51347  24530249.940   100447256.59947
  21021857.774   110470613.03248  21021859.729    86081006.85949
  24210358.039   127226280.01747  24210361.263    99137379.06448
  21056637.437   110653374.45549  21056637.423    86223408.39149
  24164079.212   126983082.38646  24164082.276    98947869.66248
  5  2 13 15 46 35.0000000  0  9G 4G 7G 8G 9G11G24G26G28G29
  21868088.549   114917595.64248  21868090.621    89546182.33948
  20834115.106   109484011.65049  20834116.278    85312222.49949
  22829530.770   119969993.64547  22829533.683    93483115.92248
  23843732.347   125299658.15447  23843735.079    97636104.06848
  24533272.890   128923219.66446  24533275.068   100459643.99047
  21020159.781   110461690.05048  21020161.735    86074053.88949
  24212225.972   127236096.03847  24212229.196    99145027.90948
  21057165.710   110656150.48448  21057165.696    86225571.51849
  24165945.417   126992889.33046  24165948.495    98955511.42548
  5  2 13 15 46 40.0000000  0  9G 4G 7G 8G 9G11G24G26G28G29
  21865066.870   114901716.64148  21865068.934    89533809.09648
  20834738.195   109487286.00549  20834739.374    85314773.94049
  22833004.812   119988249.79947  22833007.733    93497341.48448
  23840711.309   125283782.61947  23840714.028    97623733.55548
  24536340.855   128939341.74347  24536343.041   100472206.60847
  21018506.138   110453000.06648  21018508.091    86067282.46349
  24214137.087   127246138.95447  24214140.319    99152853.54248
  21057736.950   110659152.40649  21057736.945    86227910.68449
  24167854.374   127002920.90247  24167857.454    98963328.22747
  5  2 13 15 46 45.0000000  0  9G 4G 7G 8G 9G11G24G26G28G29
  21862030.018   114885757.88048  21862032.076    89521373.70448
  20835345.670   109490478.31049  20835346.857    85317261.45249
  22836463.291   120006424.19446  22836466.213    93511503.34848
  23837675.013   125267826.68347  23837677.732    97611300.33648
  24539393.102   128955381.37947  24539395.290   100484705.02547
  21016838.338   110444235.74948  21016840.292    86060453.13449
  24216032.869   127256101.38447  24216036.106    99160616.47348
  21058292.716   110662072.90948  21058292.710    86230186.38949
  24169747.585   127012869.67147  24169750.679    98971080.48047
  5  2 13 15 46 50.0000000  0  9G 4G 7G 8G 9G11G24G26G28G29
  21858978.020   114869719.58148  21858980.070    89508876.34048
  20835937.574   109493588.75249  20835938.761    85319685.16949
  22839906.268   120024517.00647  22839909.192    93525601.61548
  23834623.437   125251790.54147  23834626.142    97598804.64847
  24542429.690   128971338.75847  24542431.872   100497139.35447
  21015156.415   110435397.27549  21015158.367    86053566.02749
  24217913.389   127265983.49147  24217916.627    99168316.79748
  21058833.010   110664912.17349  21058833.011    86232398.79949
  24171625.059   127022735.77046  24171628.153    98978768.33147
  5  2 13 15 46 55.0000000  0  9G 4G 7G 8G 9G11G24G26G28G29
  21855940.304   114853756.24848  21855942.348    89496437.37648
  20836543.287   109496771.79748  20836544.482    85322165.46449
  22843363.106   120042682.71946  22843366.038    93539756.69748
  23831585.994   125235828.73347  23831588.685    97586366.89448
  24545480.056   128987368.38246  24545482.260   100509629.93147
  21013489.812   110426639.15748  21013491.765    86046741.50748
  24219808.019   127275939.80447  24219811.256    99176074.95948
  21059387.242   110667824.71448  21059387.236    86234668.32049
  24173516.209   127032673.83146  24173519.310    98986512.27248
  5  2 13 15 47  0.0000000  0  9G 4G 7G 8G 9G11G24G26G28G29
  21852916.900   114837868.24547  21852918.937    89484057.13948
  20837162.899   109500027.88048  20837164.101    85324702.66949
  22846833.880   120060921.69446  22846836.825    93553968.86548
  23828562.775   125219941.70447  23828565.459    97573987.41548
  24548544.219   129003470.66947  24548546.430   100522177.16647
  21011838.558   110417961.78748  21011840.509    86039979.92049
  24221716.840   127285970.66548  24221720.072    99183891.20948
  21059955.518   110670810.96448  21059955.513    86236995.25749
  24175421.093   127042684.09446  24175424.187    98994312.48547
  5  2 13 15 47  5.0000000  0  9G 4G 7G 8G 9G11G24G26G28G29
  21849849.331   114821748.02848  21849851.360    89471495.92748
  20837737.876   109503049.37248  20837739.072    85327057.08049
  22850260.079   120078926.36746  22850263.033    93567998.45748
  23825495.264   125203821.85647  23825497.947    97561426.49948
  24551563.665   129019337.96346  24551565.877   100534541.29647
  21010144.146   110409057.59248  21010146.096    86033041.58549
  24223581.320   127295768.47947  24223584.553    99191525.85248
  21060479.263   110673563.32547  21060479.258    86239139.96849
  24177281.225   127052459.05947  24177284.318    99001929.31747
  5  2 13 15 47 10.0000000  0  9G 4G 7G 8G 9G11G24G26G28G29
  21846825.555   114805858.04048  21846827.577    89459114.13248
  20838356.200   109506298.68748  20838357.403    85329589.01149
  22853729.663   120097159.12546  22853732.624    93582205.79048
  23822471.441   125187931.56147  23822474.118    97549044.45548
  24554626.396   129035432.63047  24554628.623   100547082.57347
  21008494.562   110400389.00249  21008496.506    86026286.85049
  24225489.431   127305795.61247  24225492.672    99199339.18848
  21061046.506   110676544.14247  21061046.508    86241462.66849
  24179184.551   127062461.04246  24179187.643    99009723.05247
  5  2 13 15 47 15.0000000  0  9G 4G 7G 8G 9G11G24G26G28G29
  21843757.736   114789736.57848  21843759.746    89446551.97148
  20838930.019   109509314.12748  20838931.217    85331938.71249
  22857154.793   120115158.21246  22857157.756    93596231.03948
  23819403.457   125171809.16347  23819406.141    97536481.53948
  24557644.542   129051293.00146  24557646.777   100559441.28647
  21006801.942   110391494.28448  21006803.878    86019355.91549
  24227353.344   127315590.38547  24227356.592    99206971.43848
  21061569.367   110679291.76547  21061569.369    86243603.66749
  24181043.207   127072228.28347  24181046.291    99017333.87647
  5  2 13 15 47 20.0000000  0  9G 4G 7G 8G 9G11G24G26G28G29
  21840763.194   114774000.11847  21840765.196    89434289.79148
  20839576.642   109512712.12248  20839577.853    85334586.48749
  22860652.788   120133540.20547  22860655.765    93610554.64748
  23816408.624   125156071.14647  23816411.301    97524218.14048
  24560735.409   129067535.55146  24560737.651   100572097.80447
  21005183.634   110382989.98949  21005185.577    86012729.18149
  24229290.327   127325769.26447  24229293.582    99214903.02748
  21062165.177   110682422.70548  21062165.180    86246043.35249
  24182974.535   127082377.41747  24182977.619    99025242.27848
  5  2 13 15 47 25.0000000  0  9G 4G 7G 8G 9G11G24G26G28G29
  21837724.781   114758033.18547  21837726.777    89421848.03448
  20840178.929   109515877.19147  20840180.141    85337052.78549
  22864106.506   120151689.52047  22864109.491    93624696.95148
  23813369.758   125140102.01947  23813372.421    97511774.71548
  24563781.880   129083544.74047  24563784.130   100584572.46947
  21003522.497   110374260.62548  21003524.433    86005927.07349
  24231183.250   127335716.70747  24231186.492    99222654.30448
  21062716.780   110685321.42848  21062716.790    86248302.09949
  24184861.393   127092292.76647  24184864.478    99032968.49248
  5  2 13 15 47 30.0000000  0  9G 4G 7G 8G 9G11G24G26G28G29
  21834701.152   114742144.02948  21834703.147    89409466.90148
  20840795.545   109519117.53247  20840796.764    85339577.72149
  22867574.574   120169914.24846  22867577.566    93638898.01648
  23810345.609   125124209.94647  23810348.273    97499391.27148
  24566842.575   129099628.76846  24566844.832   100597105.46847
  21001877.157   110365614.30348  21001879.092    85999189.67748
  24233090.811   127345740.91247  24233094.053    99230465.35448
  21063282.838   110688296.08548  21063282.843    86250620.02349
  24186762.388   127102282.53147  24186765.473    99040752.71648
  5  2 13 15 47 35.0000000  0  9G 4G 7G 8G 9G11G24G26G28G29
  21831692.428   114726333.07748  21831694.416    89397146.68248
  20841426.590   109522433.63548  20841427.816    85342161.68149
  22871057.105   120188214.97946  22871060.106    93653158.30948
  23807336.234   125108395.57447  23807338.898    97487068.38548
  24569917.616   129115788.15547  24569919.881   100609697.18747
  21000247.718   110357051.63649  21000249.645    85992517.49049
  24235013.087   127355842.38347  24235016.337    99238336.59648
  21063863.476   110691347.26348  21063863.488    86252997.54249
  24188677.666   127112347.28947  24188680.752    99048595.37148
  5  2 13 15 47 40.0000000  0  9G 4G 7G 8G 9G11G24G26G28G29
  21828640.078   114710292.87347  21828642.073    89384647.81748
  20842013.515   109525517.97848  20842014.748    85344565.07149
  22874495.564   120206284.16846  22874498.572    93667238.19048
  23804283.106   125092351.30547  23804285.764    97474566.37248
  24572948.445   129131715.30446  24572950.712   100622107.96347
  20998575.700   110348265.03248  20998577.634    85985670.76149
  24236891.511   127365713.53847  24236894.761    99246028.39648
  21064400.127   110694167.41849  21064400.139    86255195.07349
  24190548.664   127122179.45146  24190551.750    99056256.79748
  5  2 13 15 47 45.0000000  0  9G 4G 7G 8G 9G11G24G26G28G29
  21825602.791   114694331.82148  21825604.772    89372210.63748
  20842615.024   109528678.92649  20842616.257    85347028.15049
  22877948.684   120224430.24946  22877951.693    93681377.95748
  23801244.926   125076385.53147  23801247.591    97462125.50048
  24575993.815   129147718.67246  24575996.096   100634578.08447
  20996919.742   110339562.97749  20996921.677    85978889.95349
  24238784.810   127375662.79947  24238788.061    99253781.05248
  21064951.515   110697064.94949  21064951.527    86257452.88349
  24192434.112   127132087.42546  24192437.213    99063977.26348
  5  2 13 15 47 50.0000000  0  9G 4G 7G 8G 9G11G24G26G28G29
  21822609.949   114678604.39348  21822611.922    89359955.51248
  20843260.502   109532070.93749  20843261.741    85349671.26849
  22881445.793   120242807.59146  22881448.824    93695697.93648
  23798251.072   125060652.69347  23798253.737    97449866.13948
  24579083.045   129163952.62346  24579085.341   100647227.90247
  20995309.256   110331099.84549  20995311.196    85972295.30549
  24240722.345   127385844.58347  24240725.596    99261714.90448
  21065547.011   110700194.27149  21065547.024    86259891.31149
  24194363.340   127142225.52047  24194366.448    99071877.06448
  5  2 13 15 47 55.0000000  0  9G 4G 7G 8G 9G11G24G26G28G29
  21819544.450   114662495.14948  21819546.423    89347402.86748
  20843832.835   109535078.53649  20843834.076    85352014.85149
  22884869.776   120260800.67946  22884872.808    93709718.51448
  23795184.416   125044537.39946  23795187.076    97437308.79747
  24582099.052   129179801.72046  24582101.356   100659577.82347
  20993627.139   110322260.26148  20993629.072    85965407.32049
  24242587.009   127395643.39647  24242590.269    99269350.33048
  21066069.489   110702939.94349  21066069.502    86262030.80149
  24196219.265   127151978.41147  24196222.374    99079476.70848
  5  2 13 15 48  0.0000000  0  9G 4G 7G 8G 9G11G24G26G28G29
  21816523.585   114646620.36548  21816525.552    89335032.90548
  20844449.287   109538318.01349  20844450.534    85354539.11549
  22888337.918   120279025.88846  22888340.964    93723919.97248
  23792162.264   125028655.94447  23792164.923    97424933.64947
  24585159.097   129195882.27646  24585161.410   100672108.10847
  20991990.648   110313660.50648  20991992.588    85958706.22049
  24244496.079   127405675.59446  24244499.345    99277167.61648
  21066636.261   110705918.32049  21066636.274    86264351.60649
  24198119.163   127161962.38247  24198122.279    99087256.40948
  5  2 13 15 48  5.0000000  0  9G 4G 7G 8G 9G11G24G26G28G29
  21813547.430   114630980.62848  21813549.396    89322846.10548
  20845109.979   109541789.94149  20845111.228    85357244.51149
  22891850.341   120297483.69946  22891853.395    93738302.66148
  23789184.710   125013008.88647  23789187.369    97412741.15847
  24588263.277   129212194.78646  24588265.597   100684819.13947
  20990399.903   110305301.08448  20990401.836    85952192.38949
  24246449.641   127415941.60147  24246452.894    99285167.10648
  21067247.394   110709129.90648  21067247.400    86266854.15949
  24200063.148   127172177.99647  24200066.264    99095216.61048
  5  2 13 15 48 10.0000000  0  9G 4G 7G 8G 9G11G24G26G28G29
  21810498.859   114614960.34148  21810500.810    89310362.78248
  20845697.737   109544878.63149  20845698.985    85359651.28049
  22895289.864   120315558.45546  22895292.919    93752386.87548
  23786134.643   124996980.58546  23786137.303    97400251.55248
  24591294.427   129228123.58946  24591296.761   100697231.18847
  20988737.741   110296566.39248  20988739.680    85945386.13949
  24248330.544   127425825.81347  24248333.790    99292869.09148
  21067785.791   110711959.10648  21067785.803    86269058.70749
  24201933.995   127182009.39847  24201937.112    99102877.45248
  5  2 13 15 48 15.0000000  0  9G 4G 7G 8G 9G11G24G26G28G29
  21807495.150   114599175.80548  21807497.107    89298063.15048
  20846329.860   109548200.46249  20846331.109    85362239.72349
  22898773.781   120333866.52946  22898776.843    93766652.90048
  23783129.302   124981187.41146  23783131.969    97387945.18047
  24594369.853   129244285.03146  24594372.202   100709824.51147
  20987121.462   110288072.85148  20987123.401    85938767.80749
  24250256.113   127435944.62347  24250259.346    99300753.86048
  21068368.681   110715022.27748  21068368.694    86271445.60749
  24203849.074   127192073.11147  24203852.192    99110719.28848
  5  2 13 15 48 20.0000000  0  9G 4G 7G 8G 9G11G24G26G28G29
  21804507.092   114583473.48448  21804509.035    89285827.58948
  20846977.131   109551601.86049  20846978.381    85364890.15949
  22902272.897   120352254.38546  22902275.973    93780981.06548
  23780139.490   124965475.84446  23780142.165    97375702.40047
  24597460.360   129260525.62646  24597462.723   100722479.48847
  20985521.863   110279666.87348  20985523.802    85932217.68849
  24252197.071   127446144.42347  24252200.304    99308701.75748
  21068966.894   110718165.84848  21068966.908    86273895.13149
  24205779.119   127202215.47347  24205782.237    99118622.40648
  5  2 13 15 48 25.0000000  0  9G 4G 7G 8G 9G11G24G26G28G29
  21801476.187   114567546.00748  21801478.123    89273416.57648
  20847581.034   109554775.39149  20847582.291    85367363.04049
  22905728.685   120370414.51446  22905731.776    93795131.78248
  23777106.679   124949538.44046  23777109.354    97363283.67347
  24600507.401   129276537.81046  24600509.785   100734956.48047
  20983880.413   110271040.99348  20983882.351    85925496.22049
  24254094.942   127456117.74147  24254098.174    99316473.15648
  21069521.889   110721082.36549  21069521.902    86276167.74049
  24207665.636   127212129.09047  24207668.774    99126347.27448
  5  2 13 15 48 30.0000000  0  9G 4G 7G 8G 9G11G24G26G28G29
  21798490.443   114551855.81548  21798492.378    89261190.44648
  20848229.577   109558183.51049  20848230.834    85370018.71549
  22909229.127   120388809.40146  22909232.226    93809465.44548
  23774118.911   124933837.73546  23774121.592    97351049.38047
  24603598.971   129292784.12446  24603601.364   100747615.94747
  20982285.139   110262657.80249  20982287.084    85918963.86749
  24256037.719   127466327.03847  24256040.952    99324428.44348
  21070121.676   110724234.29749  21070121.682    86278623.80249
  24209596.627   127222276.45347  24209599.772    99134254.29248
  5  2 13 15 48 35.0000000  0  9G 4G 7G 8G 9G11G24G26G28G29
  21795462.012   114535941.33447  21795463.932    89248789.56348
  20848834.924   109561364.63148  20848836.188    85372497.50949
  22912686.423   120406977.45846  22912689.530    93823622.34048
  23771088.384   124917912.05345  23771091.072    97338639.71947
  24606647.256   129308802.90846  24606649.656   100760098.10147
  20980648.201   110254055.63748  20980650.146    85912260.88149
  24257937.568   127476310.75347  24257940.795    99332207.95248
  21070678.451   110727160.10649  21070678.464    86280903.63949
  24211484.242   127232195.87547  24211487.394    99141983.69748
  5  2 13 15 48 40.0000000  0  9G 4G 7G 8G 9G11G24G26G28G29
  21792449.609   114520111.08248  21792451.530    89236454.30948
  20849455.792   109564627.28349  20849457.058    85375039.83549
  22916159.232   120425227.16347  22916162.334    93837842.89148
  23768073.704   124902069.99345  23768076.398    97326295.29347
  24609710.968   129324902.69446  24609713.375   100772643.36247
  20979028.293   110245542.99748  20979030.245    85905627.65749
  24259853.192   127486377.39047  24259856.425    99340052.07348
  21071250.895   110730168.28848  21071250.902    86283247.67649
  24213387.193   127242195.88947  24213390.353    99149775.90248
  5  2 13 15 48 45.0000000  0  9G 4G 7G 8G 9G11G24G26G28G29
  21789424.032   114504211.62648  21789425.945    89224065.14048
  20850062.932   109567817.82149  20850064.197    85377525.96849
  22919618.379   120443404.94747  22919621.494    93852007.35748
  23765045.711   124886157.96946  23765048.404    97313896.35047
  24612760.855   129340929.92746  24612763.270   100785132.10947
  20977396.203   110236966.33849  20977398.155    85898944.55449
  24261755.360   127496373.32347  24261758.595    99347841.10948
  21071809.777   110733105.23349  21071809.791    86285536.20049
  24215276.254   127252122.88047  24215279.421    99157511.19348
  5  2 13 15 48 50.0000000  0  9G 4G 7G 8G 9G11G24G26G28G29
  21786414.676   114488397.32247  21786416.587    89211742.29148
  20850685.768   109571090.81549  20850687.040    85380076.34349
  22923093.219   120461665.32347  22923096.329    93866236.22348
  23762033.881   124870330.63146  23762036.593    97301563.33247
  24615826.329   129357039.07346  24615828.751   100797684.68147
  20975781.350   110228480.22749  20975783.310    85892331.99949
  24263673.480   127506453.08047  24263676.708    99355695.46448
  21072384.517   110736125.54249  21072384.525    86287889.70449
  24217180.817   127262131.42247  24217183.978    99165310.06648
  5  2 13 15 48 55.0000000  0  9G 4G 7G 8G 9G11G24G26G28G29
  21783450.906   114472822.66848  21783452.817    89199606.20948
  20851353.657   109574600.59649  20851354.930    85382811.24249
  22926613.141   120480162.57447  22926616.251    93880649.65448
  23759067.476   124854742.19146  23759070.195    97289416.52047
  24618936.755   129373384.50046  24618939.185   100810421.38447
  20974213.094   110220238.98348  20974215.053    85885910.24949
  24265636.914   127516770.96347  24265640.149    99363735.36148
  21073004.497   110739383.53049  21073004.512    86290428.38449
  24219130.269   127272375.79947  24219133.430    99173292.68448
  5  2 13 15 49  0.0000000  0  9G 4G 7G 8G 9G11G24G26G28G29
  21780444.943   114457026.35148  21780446.846    89187297.41648
  20851978.830   109577885.87549  20851980.104    85385371.19549
  22930090.363   120498435.46747  22930093.474    93894888.26948
  23756058.758   124838931.40046  23756061.483    97277096.44147
  24622004.396   129389504.94146  24622006.848   100822982.73447
  20972603.654   110211781.32049  20972605.614    85879319.86749
  24267557.884   127526865.73147  24267561.119    99371601.41447
  21073581.941   110742417.95449  21073581.956    86292792.85849
  24221036.804   127282394.77347  24221039.959    99181099.69647
  5  2 13 15 49  5.0000000  0  9G 4G 7G 8G 9G11G24G26G28G29
  21777426.167   114441162.60747  21777428.069    89174936.06148
  20852590.630   109581100.87449  20852591.911    85387876.37949
  22933554.250   120516638.22146  22933557.362    93909072.21948
  23753037.109   124823052.58746  23753039.846    97264723.34147
  24625058.539   129405554.56946  24625060.990   100835488.93647
  20970982.395   110203261.54848  20970984.362    85872681.08049
  24269465.758   127536891.61447  24269468.999    99379413.77147
  21074146.191   110745383.05049  21074146.208    86295103.31349
  24222929.832   127292342.57847  24222932.987    99188851.20648
  5  2 13 15 49 10.0000000  0  9G 4G 7G 8G 9G11G24G26G28G29
  21774453.276   114425539.92847  21774455.172    89162762.54348
  20853247.776   109584554.23049  20853249.058    85390567.31649
  22937063.491   120535079.34447  22937066.603    93923441.91248
  23750061.201   124807414.24346  23750063.944    97252537.64747
  24628157.927   129421841.96446  24628160.380   100848180.42047
  20969408.016   110194988.16249  20969409.983    85866234.29349
  24271419.231   127547157.08847  24271422.485    99387412.81347
  21074755.946   110748587.36249  21074755.963    86297600.18749
  24224867.992   127302527.67547  24224871.145    99196787.63948
  5  2 13 15 49 15.0000000  0  9G 4G 7G 8G 9G11G24G26G28G29
  21771467.760   114409850.93648  21771469.661    89150537.34648
  20853891.741   109587938.25449  20853893.023    85393204.21249
  22940559.562   120553451.22947  22940562.682    93937757.64648
  23747072.555   124791708.83346  23747075.304    97240299.66447
  24631244.046   129438059.53246  24631246.505   100860817.46247
  20967822.001   110186653.59749  20967823.982    85859739.82349
  24273359.765   127557354.63147  24273363.013    99395358.94848
  21075352.690   110751723.27249  21075352.700    86300043.76049
  24226792.787   127312642.51047  24226795.933    99204669.32448
  5  2 13 15 49 20.0000000  0  9G 4G 7G 8G 9G11G24G26G28G29
  21768440.404   114393942.20048  21768442.291    89138140.95848
  20854493.335   109591099.62149  20854494.617    85395667.61149
  22944013.297   120571600.60647  22944016.426    93951899.99248
  23744041.964   124775783.06246  23744044.713    97227889.99547
  24634287.681   129454053.91446  24634290.148   100873280.60547
  20966195.166   110178104.51849  20966197.147    85853078.20249
  24275258.178   127567330.86147  24275261.412    99403132.64047
  21075907.261   110754637.50449  21075907.279    86302314.57149
  24228675.029   127322533.69647  24228678.175    99212376.72848
  5  2 13 15 49 25.0000000  0  9G 4G 7G 8G 9G11G24G26G28G29
  21765459.184   114378275.84347  21765461.077    89125933.41948
  20855140.488   109594500.40449  20855141.772    85398317.57049
  22947512.598   120589989.49247  22947515.720    93966228.98648
  23741057.399   124760099.03546  23741060.153    97215668.65847
  24637376.798   129470287.14446  24637379.285   100885929.82347
  20964615.442   110169803.04748  20964617.423    85846609.53049
  24277202.417   127577547.84447  24277205.658    99411093.90747
  21076507.561   110757792.13049  21076507.572    86304772.73349
  24230602.648   127332663.33847  24230605.801    99220269.93848
  5  2 13 15 49 30.0000000  0  8G 4G 7G 8G 9G24G26G28G29
  21762465.599   114362544.45048  21762467.493    89113675.18948
  20855774.713   109597833.27849  20855776.004    85400914.61149
  22950998.991   120608310.48547  22951002.115    93980505.06648
  23738060.336   124744349.36446  23738063.096    97203396.18247
  20963024.364   110161441.84049  20963026.353    85840094.30049
  24279133.975   127587698.18547  24279137.207    99419003.24847
  21077095.134   110760879.78749  21077095.146    86307178.68949
  24232517.168   127342724.08547  24232520.335    99228109.44848
  5  2 13 15 49 35.0000000  0  8G 4G 7G 8G 9G24G26G28G29
  21759459.723   114346748.52748  21759461.617    89101366.69248
  20856396.098   109601098.64849  20856397.390    85403459.05349
  22954472.548   120626564.09047  22954475.679    93994728.63748
  23735050.845   124728534.51046  23735053.605    97191072.94348
  20961421.995   110153021.36948  20961423.984    85833532.90049
  24281052.911   127597782.29347  24281056.142    99426860.99748
  21077670.048   110763900.94848  21077670.067    86309532.83449
  24234418.662   127352716.34847  24234421.844    99235895.59148
  5  2 13 15 49 40.0000000  0  8G 4G 7G 8G 9G24G26G28G29
  21756500.271   114331196.50248  21756502.156    89089248.22948
  20857063.332   109604604.98949  20857064.624    85406191.26649
  22957991.973   120645058.72847  22957995.105    94009140.03448
  23732087.657   124712962.91146  23732090.423    97178939.23848
  20959867.044   110144850.04548  20959869.040    85827165.63149
  24283017.973   127608108.69847  24283021.204    99434907.53347
  21078291.000   110767164.07449  21078291.019    86312075.52749
  24236365.806   127362948.59747  24236369.002    99243868.75148
  5  2 13 15 49 45.0000000  0  8G 4G 7G 8G 9G24G26G28G29
  21753528.723   114315580.94348  21753530.602    89077080.27348
  20857717.894   109608044.70249  20857719.186    85408871.55849
  22961498.735   120663486.82647  22961501.862    94023499.58648
  23729112.232   124697327.07446  23729114.997    97166755.49148
  20958300.975   110136620.35849  20958302.978    85820752.89949
  24284970.594   127618369.76447  24284973.818    99442903.16347
  21078899.463   110770361.56949  21078899.483    86314567.08549
  24238300.087   127373113.21647  24238303.291    99251789.21948
  5  2 13 15 49 50.0000000  0  8G 4G 7G 8G 9G24G26G28G29
  21750545.123   114299902.14348  21750546.995    89064863.05648
  20858359.842   109611418.13149  20858361.128    85411500.20249
  22964992.906   120681848.69547  22964996.048    94037807.50548
  23726124.666   124681627.33847  23726127.437    97154521.93148
  20956723.879   110128332.63149  20956725.882    85814294.92449
  24286910.855   127628565.84147  24286914.079    99450848.14347
  21079495.514   110773493.80548  21079495.535    86317007.78649
  24240221.521   127383210.51447  24240224.726    99259657.26647
  5  2 13 15 49 55.0000000  0  8G 4G 7G 8G 9G24G26G28G29
  21747549.586   114284160.49048  21747551.465    89052596.83148
  20858989.272   109614725.77649  20858990.566    85414077.58249
  22968474.528   120700144.80347  22968477.663    94052064.23348
  23723125.015   124665864.13047  23723127.793    97142238.92548
  20955135.826   110119987.35649  20955137.836    85807792.11349
  24288838.810   127638697.34247  24288842.025    99458742.82147
  21080079.223   110776561.18749  21080079.244    86319397.94849
  24242130.258   127393240.99346  24242133.463    99267473.22647
  5  2 13 15 50  0.0000000  0  8G 4G 7G 8G 9G24G26G28G29
  21744600.821   114268664.56348  21744602.701    89040522.07248
  20859664.865   109618276.07049  20859666.158    85416844.04949
  22972002.353   120718683.58647  22972005.490    94066510.03048
  23720172.019   124650346.03047  23720174.797    97130146.90047
  20953595.518   110111893.01548  20953597.529    85801484.84249
  24290813.192   127649072.82346  24290816.400    99466827.61847
  21080709.295   110779872.29749  21080709.309    86321978.05149
  24244085.006   127403513.14246  24244088.219    99275477.47047
  5  2 13 15 50  5.0000000  0  8G 4G 7G 8G 9G24G26G28G29
  21741581.637   114252798.58148  21741583.509    89028158.95648
  20860269.458   109621453.19849  20860270.745    85419319.73349
  22975459.192   120736849.30347  22975462.335    94080665.10948
  23717148.469   124634457.13746  23717151.261    97117765.92947
  20951985.779   110103433.81448  20951987.797    85794893.25849
  24292716.811   127659076.37747  24292720.011    99474622.59048
  21081268.587   110782811.30649  21081268.603    86324268.17249
  24245968.507   127413411.03447  24245971.713    99283190.12447
  5  2 13 15 50 10.0000000  0  8G 4G 7G 8G 9G24G26G28G29
  21738609.348   114237179.16348  21738611.214    89015987.99948
  20860920.375   109624873.75949  20860921.663    85421985.10149
  22978962.353   120755258.47747  22978965.504    94095009.90548
  23714171.715   124618814.15847  23714174.506    97105576.58447
  20950423.953   110095226.36149  20950425.978    85788497.84049
  24294667.000   127669324.62647  24294670.200    99482608.22348
  21081874.388   110785994.77949  21081874.403    86326748.79349
  24247898.168   127423551.38246  24247901.382    99291091.67247
  5  2 13 15 50 15.0000000  0  8G 4G 7G 8G 9G24G26G28G29
  21735654.752   114221652.68648  21735656.611    89003889.45548
  20861588.399   109628384.18549  20861589.680    85424720.48849
  22982482.627   120773757.58047  22982485.778    94109424.77748
  23711212.515   124603263.49047  23711215.305    97093459.18447
  20948880.810   110087117.09049  20948882.835    85782178.92949
  24296634.533   127679663.99047  24296637.734    99490664.85348
  21082497.485   110789269.17449  21082497.501    86329300.27349
  24249844.710   127433780.53046  24249847.931    99299062.43247
  5  2 13 15 50 20.0000000  0  8G 4G 7G 8G 9G24G26G28G29
  21732688.634   114206065.66148  21732690.494    88991743.73148
  20862244.293   109631830.96349  20862245.574    85427406.29749
  22985990.777   120792192.96947  22985993.935    94123790.00048
  23708241.639   124587651.61847  23708244.422    97081294.13347
  20947327.127   110078952.42849  20947329.158    85775816.85149
  24298590.146   127689940.89947  24298593.353    99498672.84947
  21083108.670   110792480.97249  21083108.693    86331802.97149
  24251778.957   127443944.90647  24251782.198    99306982.68147
  5  2 13 15 50 25.0000000  0  8G 4G 7G 8G 9G24G26G28G29
  21729681.807   114190264.58448  21729683.660    88979431.18748
  20862858.859   109635060.49849  20862860.140    85429922.81149
  22989457.587   120810411.14647  22989460.759    94137985.96948
  23705229.935   124571825.03547  23705232.717    97068961.73547
  20945733.695   110070578.92149  20945735.728    85769292.05049
  24300504.690   127700001.79947  24300507.896    99506512.49047
  21083678.729   110795476.65649  21083678.753    86334137.27149
  24253671.669   127453890.98847  24253674.917    99314732.83247
  5  2 13 15 50 30.0000000  0  8G 4G 7G 8G 9G24G26G28G29
  21726722.188   114174711.74448  21726724.033    88967312.10648
  20863520.052   109638535.09049  20863521.326    85432630.28749
  22992971.072   120828874.47847  22992974.251    94152372.94648
  23702265.347   124556246.02047  23702268.129    97056822.24447
  20944188.496   110062458.84349  20944190.529    85762964.71849
  24302466.078   127710308.96447  24302469.285    99514544.04747
  21084295.640   110798718.47949  21084295.670    86336663.35249
  24255610.776   127464081.06747  24255614.026    99322673.15947
  5  2 13 15 50 35.0000000  0  8G 4G 7G 8G 9G24G26G28G29
  21723780.595   114159253.63048  21723782.427    88955266.84448
  20864198.667   109642101.20848  20864199.942    85435409.07649
  22996501.940   120847429.34847  22996505.120    94166831.29548
  23699318.690   124540761.07647  23699321.465    97044756.02347
  20942662.298   110054438.65249  20942664.331    85756715.22349
  24304445.107   127720708.86247  24304448.306    99522647.87247
  21084930.162   110802052.91449  21084930.185    86339261.61649
  24257567.117   127474361.64147  24257570.373    99330683.98047
  5  2 13 15 50 40.0000000  0  8G 4G 7G 8G 9G24G26G28G29
  21720798.523   114143582.74048  21720800.357    88943055.76648
  20864836.185   109645451.38549  20864837.466    85438019.59949
  22999991.730   120865768.22547  22999994.923    94181121.30148
  23696331.400   124525062.70147  23696334.175    97032523.50747
  20941096.607   110046210.89148  20941098.647    85750303.97849
  24306383.270   127730894.00847  24306386.469    99530584.35848
  21085523.799   110805172.53148  21085523.830    86341692.49349
  24259482.145   127484425.12347  24259485.403    99338525.64447
  5  2 13 15 50 45.0000000  0  8G 4G 7G 8G 9G24G26G28G29
  21717834.661   114128007.47748  21717836.495    88930919.18548
  20865491.272   109648893.85849  20865492.540    85440702.04749
  23003499.082   120884199.42147  23003502.289    94195483.25348
  23693362.168   124509459.24947  23693364.935    97020364.96547
  20939550.091   110038083.86148  20939552.131    85743971.22349
  24308339.249   127741172.68647  24308342.441    99538593.70548
  21086135.250   110808385.60249  21086135.289    86344196.15649
  24261414.512   127494579.83847  24261417.756    99346438.43247
  5  2 13 15 50 50.0000000  0  8G 4G 7G 8G 9G24G26G28G29
  21714889.033   114112528.09848  21714890.860    88918857.33148
  20866163.992   109652429.03049  20866165.267    85443456.72049
  23007024.075   120902723.26147  23007027.297    94209917.38348
  23690411.073   124493951.08047  23690413.820    97008280.67347
  20938022.799   110030057.91949  20938024.839    85737717.24949
  24310313.091   127751545.23347  24310316.283    99546676.19347
  21086764.513   110811692.46548  21086764.545    86346772.95149
  24263364.311   127504826.13747  24263367.548    99354422.56847
  5  2 13 15 50 55.0000000  0  8G 4G 7G 8G 9G24G26G28G29
  21711903.167   114096837.29648  21711904.994    88906630.74048
  20866795.864   109655749.50749  20866797.132    85446044.10449
  23010508.181   120921032.36246  23010511.410    94224184.21148
  23687419.608   124478230.82547  23687422.341    96996031.12947
  20936456.268   110021825.74148  20936458.307    85731302.56249
  24312246.318   127761704.28647  24312249.518    99554592.31448
  21087353.164   110814785.78449  21087353.197    86349183.32049
  24265273.048   127514856.58647  24265276.271    99362238.50047
  5  2 13 15 51  0.0000000  0  8G 4G 7G 8G 9G24G26G28G29
  21708965.055   114081397.50848  21708966.882    88894599.75748
  20867474.866   109659317.68649  20867476.134    85448824.50349
  23014039.413   120939589.10947  23014042.647    94238644.00748
  23684475.771   124462760.91847  23684478.495    96983976.66747
  20934938.475   110013849.71748  20934940.514    85725087.48449
  24314226.878   127772112.19747  24314230.078    99562702.37448
  21087989.165   110818127.95949  21087989.198    86351787.60749
  24267228.736   127525133.66747  24267231.951    99370246.58947
  5  2 13 15 51  5.0000000  0  8G 4G 7G 8G 9G24G26G28G29
  21705986.894   114065747.13448  21705988.721    88882404.65648
  20868113.162   109662671.92449  20868114.430    85451438.18749
  23017529.946   120957931.92046  23017533.194    94252937.08948
  23681491.742   124447079.74147  23681494.460    96971757.57147
  20933381.600   110005668.25548  20933383.640    85718712.31649
  24316166.978   127782307.36947  24316170.178    99570646.63648
  21088584.683   110821257.39749  21088584.718    86354226.12749
  24269143.486   127535195.65646  24269146.707    99378087.07147
  5  2 13 15 51 10.0000000  0  8G 4G 7G 8G 9G24G26G28G29
  21703027.340   114050194.54348  21703029.174    88870285.74148
  20868769.425   109666120.64049  20868770.694    85454125.50749
  23021038.416   120976369.08646  23021041.670    94267303.71148
  23678526.210   124431495.66947  23678528.920    96959614.11847
  20931844.303   109997589.70249  20931846.343    85712417.34049
  24318125.244   127792598.15647  24318128.438    99578665.44648
  21089198.392   110824482.45948  21089198.427    86356739.16449
  24271076.020   127545351.00146  24271079.255    99386000.27847
  5  2 13 15 51 15.0000000  0  8G 4G 7G 8G 9G24G26G28G29
  21700086.442   114034740.07948  21700088.268    88858243.31748
  20869443.743   109669664.14249  20869445.004    85456886.66649
  23024564.940   120994901.00346  23024568.215    94281744.13647
  23675579.202   124416009.10347  23675581.892    96947546.68847
  20930326.654   109989614.43449  20930328.693    85706202.84949
  24320101.788   127802984.90047  24320104.976    99586759.00548
  21089830.376   110827803.49449  21089830.411    86359326.97249
  24273026.348   127555599.98246  24273029.582    99393986.48047
  5  2 13 15 51 20.0000000  0  8G 4G 7G 8G 9G24G26G28G29
  21697135.078   114019230.55648  21697136.904    88846157.97648
  20870106.933   109673149.22949  20870108.195    85459602.31949
  23028080.345   121013374.51747  23028083.633    94296139.05948
  23672621.631   124400466.86547  23672624.306    96935435.83647
  20928799.517   109981589.27448  20928801.556    85699949.47949
  24322067.427   127813314.40247  24322070.615    99594807.96748
  21090451.478   110831067.34449  21090451.521    86361870.21849
  24274965.343   127565789.37646  24274968.578    99401926.24947
  5  2 13 15 51 25.0000000  0  8G 4G 7G 8G 9G24G26G28G29
  21694173.291   114003666.32348  21694175.118    88834030.01748
  20870759.066   109676576.24049  20870760.334    85462272.72149
  23031584.674   121031789.83146  23031587.976    94310488.63148
  23669653.498   124384869.22247  23669656.165    96923281.82847
  20927262.939   109973514.50648  20927264.972    85693657.45449
  24324022.226   127823586.91147  24324025.421    99602812.51148
  21091061.733   110834274.29249  21091061.770    86364369.14749
  24276893.045   127575919.55246  24276896.273    99409819.90247
  5  2 13 15 51 30.0000000  0  8G 4G 7G 8G 9G24G26G28G29
  21691230.509   113988201.86948  21691232.335    88821979.78548
  20871429.529   109680099.52049  20871430.798    85465018.12849
  23035107.330   121050301.44947  23035110.652    94324913.24448
  23666704.194   124369370.65147  23666706.841    96911205.05848
  20925746.319   109965544.61549  20925748.352    85687447.15149
  24325995.579   127833956.82747  24325998.775    99610892.93948
  21091690.554   110837578.76749  21091690.598    86366944.06249
  24278838.892   127586144.89146  24278842.121    99417787.66947
  5  2 13 15 51 35.0000000  0  8G 4G 7G 8G 9G24G26G28G29
  21688277.486   113972683.66248  21688279.313    88809887.68348
  20872089.132   109683565.72249  20872090.394    85467719.06249
  23038619.089   121068755.80447  23038622.424    94339293.23948
  23663744.552   124353817.65847  23663747.199    96899085.85048
  20924220.449   109957526.14348  20924222.489    85681198.99449
  24327958.260   127844270.72446  24327961.450    99618929.73447
  21092308.736   110840827.30349  21092308.773    86369475.38549
  24280773.603   127596311.89346  24280776.831    99425710.01447
  5  2 13 15 51 40.0000000  0  8G 4G 7G 8G 9G24G26G28G29
  21685343.611   113957266.04148  21685345.438    88797873.95449
  20872767.200   109687128.99749  20872768.463    85470495.64049
  23042149.295   121087307.19347  23042152.643    94353748.86548
  23660803.945   124338364.60148  23660806.585    96887044.49548
  20922714.687   109949613.31149  20922716.721    85675033.15749
  24329939.622   127854682.81947  24329942.812    99627043.04948
  21092945.638   110844174.18548  21092945.682    86372083.33049
  24282726.571   127606574.84446  24282729.793    99433707.13147
  5  2 13 15 51 45.0000000  0  8G 4G 7G 8G 9G24G26G28G29
  21682370.375   113941641.61348  21682372.196    88785699.08848
  20873405.255   109690481.99849  20873406.524    85473108.36549
  23045639.489   121105648.25447  23045642.857    94368040.58348
  23657823.844   124322704.03547  23657826.484    96874841.45048
  20921170.535   109941498.73749  20921172.575    85668710.10749
  24331881.186   127864885.74347  24331884.383    99634993.36648
  21093542.741   110847312.01248  21093542.785    86374528.39849
  24284639.326   127616626.37546  24284642.554    99441539.47147
  5  2 13 15 51 50.0000000  0  8G 4G 7G 8G 9G24G26G28G29
  21679475.070   113926426.68448  21679476.891    88773843.30049
  20874120.590   109694241.07549  20874121.859    85476037.51149
  23049206.937   121124395.32347  23049210.319    94382648.68048
  23654921.550   124307452.37548  23654924.177    96862957.04848
  20919705.294   109933798.84149  20919707.327    85662710.19449
  24333900.213   127875495.80147  24333903.399    99643260.95848
  21094217.376   110850857.21348  21094217.428    86377290.88349
  24286629.100   127627082.70946  24286632.321    99449687.26847
  5  2 13 15 51 55.0000000  0  8G 4G 7G 8G 9G24G26G28G29
  21676540.577   113911005.81848  21676542.398    88761827.04048
  20874796.052   109697790.65349  20874797.321    85478803.41549
  23052734.511   121142932.81647  23052737.905    94397093.46348
  23651979.920   124291994.07048  23651982.534    96850911.63648
  20918201.816   109925898.04249  20918203.848    85656553.73149
  24335879.596   127885897.46947  24335882.782    99651366.14148
  21094852.388   110854194.18948  21094852.433    86379891.12449
  24288578.802   127637328.39646  24288582.030    99457670.90347
  5  2 13 15 52  0.0000000  0  8G 4G 7G 8G 9G24G26G28G29
  21673596.256   113895533.30448  21673598.069    88749770.53948
  20875461.025   109701285.08049  20875462.295    85481526.34149
  23056251.587   121161415.04747  23056254.995    94411495.17148
  23649028.334   124276483.47348  23649030.940    96838825.48048
  20916689.487   109917950.70049  20916691.520    85650361.00049
  24337848.717   127896245.11147  24337851.909    99659429.20048
  21095477.149   110857477.30248  21095477.202    86382449.38549
  24290517.776   127647517.68146  24290521.011    99465610.58347
  5  2 13 15 52  5.0000000  0  8G 4G 7G 8G 9G24G26G28G29
  21670642.202   113880009.67948  21670644.016    88737674.21749
  20876115.590   109704724.84049  20876116.853    85484206.67649
  23059758.215   121179842.47246  23059761.636    94425854.18647
  23646066.912   124260921.06348  23646069.519    96826698.92248
  20915168.392   109909957.29349  20915170.426    85644132.37349
  24339807.601   127906539.14747  24339810.786    99667450.53648
  21096091.745   110860706.99549  21096091.798    86384966.02349
  24292446.100   127657651.12346  24292449.335    99473506.77747
  5  2 13 15 52 10.0000000  0  8G 4G 7G 8G 9G24G26G28G29
  21667707.794   113864589.26248  21667709.603    88725658.31449
  20876789.117   109708264.21949  20876790.381    85486964.62949
  23063283.769   121198369.44546  23063287.203    94440290.79147
  23643125.004   124245461.20148  23643127.605    96814652.27648
  20913667.908   109902072.19949  20913669.942    85637988.14449
  24341785.666   127916933.88847  24341788.851    99675550.31748
  21096725.537   110864037.62449  21096725.591    86387561.32949
  24294393.167   127667882.96646  24294396.408    99481479.62247
  5  2 13 15 52 15.0000000  0  8G 4G 7G 8G 9G24G26G28G29
  21664793.114   113849272.51748  21664794.930    88713723.18648
  20877481.691   109711903.71949  20877482.955    85489800.60449
  23066828.350   121216996.34546  23066831.797    94454805.25047
  23640202.701   124230104.36448  23640205.295    96802685.90648
  20912188.114   109894295.85949  20912190.141    85631928.66649
  24343782.973   127927429.77547  24343786.164    99683728.92048
  21097378.635   110867469.67649  21097378.688    86390235.65549
  24296359.023   127678213.60847  24296362.257    99489529.47847
  5  2 13 15 52 20.0000000  0  8G 4G 7G 8G 9G24G26G28G29
  21661839.639   113833751.89948  21661841.455    88701629.20048
  20878134.791   109715335.78149  20878136.054    85492474.93749
  23070333.457   121235415.68346  23070336.932    94469157.94047
  23637241.463   124214543.01747  23637244.044    96790560.20348
  20910670.507   109886320.74749  20910672.534    85625714.28849
  24345740.989   127937719.28147  24345744.167    99691746.73647
  21097992.515   110870695.60549  21097992.575    86392749.35449
  24298285.171   127688335.58647  24298288.405    99497416.73147
  5  2 13 15 52 25.0000000  0  8G 4G 7G 8G 9G24G26G28G29
  21658964.704   113818643.98448  21658966.521    88689856.79549
  20878865.723   109719176.85549  20878866.986    85495467.98149
  23073916.340   121254243.89147  23073919.827    94483829.26647
  23634358.624   124199393.65847  23634361.198    96778755.52448
  20909232.378   109878763.33049  20909234.398    85619825.39549
  24347777.061   127948418.81847  24347780.238    99700084.01648
  21098684.483   110874331.89048  21098684.551    86395582.81849
  24300288.939   127698865.36447  24300292.166    99505621.73747
  5  2 13 15 52 30.0000000  0  8G 4G 7G 8G 9G24G26G28G29
  21656021.812   113803179.04248  21656023.622    88677806.20748
  20879528.026   109722657.24849  20879529.282    85498179.97149
  23077430.570   121272711.29146  23077434.071    94498219.44548
  23631407.735   124183886.60347  23631410.302    96766672.09948
  20907727.274   109870853.95449  20907729.295    85613662.24749
  24349744.675   127958758.66747  24349747.845    99708141.03648
  21099308.062   110877608.82248  21099308.124    86398136.27549
  24302223.829   127709033.21647  24302227.055    99513544.72247
  5  2 13 15 52 35.0000000  0  8G 4G 7G 8G 9G24G26G28G29
  21653069.687   113787665.49148  21653071.505    88665717.71949
  20880180.392   109726085.45549  20880181.648    85500851.30349
  23080934.862   121291126.37846  23080938.383    94512568.82947
  23628447.455   124168330.34948  23628450.014    96754550.37048
  20906213.902   109862901.09949  20906215.923    85607465.21049
  24351702.556   127969047.37147  24351705.726    99716158.19948
  21099921.968   110880834.91848  21099922.043    86400650.11149
  24304148.564   127719147.61547  24304151.791    99521426.03647
  5  2 13 15 52 40.0000000  0  8G 4G 7G 8G 9G24G26G28G29
  21650137.713   113772257.86348  21650139.531    88653711.77948
  20880852.212   109729615.86549  20880853.462    85503602.26949
  23084458.569   121309643.48846  23084462.108    94526997.70948
  23625507.225   124152879.30847  23625509.778    96742510.59648
  20904721.634   109855059.20949  20904723.654    85601354.65149
  24353680.078   127979439.28747  24353683.242    99724255.79748
  21100555.583   110884164.58748  21100555.658    86403244.65949
  24306092.483   127729362.91347  24306095.709    99529385.99247
  5  2 13 15 52 45.0000000  0  8G 4G 7G 8G 9G24G26G28G29
  21647255.228   113757110.33248  21647257.046    88641908.51449
  20881572.822   109733402.66549  20881574.073    85506553.01749
  23088031.005   121328416.89446  23088034.565    94541626.35248
  23622616.331   124137687.68048  23622618.877    96730672.99548
  20903279.825   109847482.45449  20903281.838    85595450.68549
  24355706.606   127990088.60647  24355709.776    99732553.92748
  21101238.261   110887752.05349  21101238.336    86406040.07949
  24308084.931   127739833.32747  24308088.142    99537544.76947
  5  2 13 15 52 50.0000000  0  8G 4G 7G 8G 9G24G26G28G29
  21644334.405   113741761.30548  21644336.223    88629948.23348
  20882254.390   109736984.29349  20882255.633    85509343.89349
  23091564.396   121346984.89246  23091567.975    94556094.88747
  23619686.998   124122293.93048  23619689.537    96718677.86948
  20901800.640   109839709.28349  20901802.646    85589393.67349
  24357694.253   128000533.73147  24357697.423    99740692.98148
  21101882.150   110891135.71348  21101882.232    86408676.69649
  24310038.124   127750097.30146  24310041.334    99545542.63547
  5  2 13 15 52 55.0000000  0  8G 4G 7G 8G 9G24G26G28G29
  21641404.636   113726365.26348  21641406.461    88617951.31749
  20882926.284   109740515.12349  20882927.521    85512095.19349
  23095088.078   121365501.90746  23095091.685    94570523.70547
  23616748.592   124106852.43848  23616751.137    96706645.51948
  20900313.453   109831894.06349  20900315.458    85583303.88949
  24359672.422   128010929.07847  24359675.585    99748793.25548
  21102516.629   110894469.92248  21102516.712    86411274.78549
  24311981.383   127760309.20046  24311984.579    99553499.96347
  5  2 13 15 53  0.0000000  0  8G 4G 7G 8G 9G24G26G28G29
  21638495.300   113711076.66248  21638497.125    88606038.13448
  20883617.912   109744149.65049  20883619.156    85514927.28949
  23098631.478   121384122.50546  23098635.105    94585033.22947
  23613830.492   124091517.69147  23613833.024    96694696.36548
  20898847.678   109824191.33349  20898849.684    85577301.75849
  24361670.508   128021429.09547  24361673.679    99756975.08348
  21103171.112   110897909.22548  21103171.202    86413954.74949
  24313944.134   127770623.49547  24313947.330    99561537.06647
  5  2 13 15 53  5.0000000  0  8G 4G 7G 8G 9G24G26G28G29
  21635606.483   113695895.79448  21635608.309    88594208.88148
  20884329.336   109747888.18149  20884330.574    85517840.42949
  23102194.597   121402846.82346  23102198.242    94599623.58848
  23610932.750   124076290.07848  23610935.268    96682830.72748
  20897403.345   109816601.37449  20897405.344    85571387.51949
  24363688.592   128032034.13247  24363691.763    99765238.73548
  21103845.645   110901453.92148  21103845.737    86416716.85649
  24315926.444   127781040.51047  24315929.640    99569654.20147
  5  2 13 15 53 10.0000000  0  8G 4G 7G 8G 9G24G26G28G29
  21632679.644   113680515.12148  21632681.464    88582223.94248
  20885002.013   109751423.09149  20885003.251    85520594.89749
  23105718.930   121421367.34646  23105722.582    94614055.16947
  23607996.892   124060861.97848  23607999.403    96670808.81948
  20895921.957   109808816.59649  20895923.956    85565321.45149
  24365668.098   128042436.50847  24365671.270    99773344.48748
  21104481.705   110904796.40748  21104481.804    86419321.38049
  24317869.760   127791252.57947  24317872.955    99577611.62847
  5  2 13 15 53 15.0000000  0  8G 4G 7G 8G 9G24G26G28G29
  21629773.457   113665243.04048  21629775.278    88570323.62748
  20885694.607   109755062.72449  20885695.844    85523430.98249
  23109263.165   121439992.43146  23109266.837    94628568.20747
  23605081.553   124045541.76648  23605084.064    96658870.99448
  20894462.176   109801145.36449  20894464.175    85559343.86349
  24367667.743   128052944.62046  24367670.922    99781532.60447
  21105137.973   110908245.08448  21105138.078    86422008.65449
  24319832.727   127801568.06947  24319835.915    99585649.68447
  5  2 13 15 53 20.0000000  0  8G 4G 7G 8G 9G24G26G28G29
  21626829.381   113649771.84248  21626831.214    88558268.14748
  20886348.600   109758499.45448  20886349.831    85526108.95049
  23112768.754   121458414.42246  23112772.445    94642922.99347
  23602128.195   124030021.76748  23602130.706    96646777.48647
  20892965.451   109793280.05249  20892967.443    85553215.05749
  24369628.947   128063250.75447  24369632.133    99789563.34248
  21105755.894   110911492.28048  21105755.999    86424538.93449
  24321756.860   127811679.30047  24321760.055    99593528.52947
  5  2 13 15 53 25.0000000  0  8G 4G 7G 8G 9G24G26G28G29
  21623935.436   113634564.06048  21623937.270    88546417.92948
  20887051.988   109762195.75048  20887053.219    85528989.17249
  23116323.708   121477095.77146  23116327.419    94657479.86047
  23599224.853   124014764.50748  23599227.350    96634888.69747
  20891519.804   109785683.15649  20891521.802    85547295.39949
  24371639.691   128073817.34747  24371642.878    99797797.06948
  21106423.476   110915000.45148  21106423.589    86427272.57549
  24323730.093   127822048.74247  24323733.282    99601608.62647
  5  2 13 15 53 30.0000000  0  8G 4G 7G 8G 9G24G26G28G29
  21621033.042   113619311.91148  21621034.877    88534533.14549
  20887746.186   109765843.78549  20887747.417    85531831.80049
  23119869.450   121495728.70646  23119873.175    94671999.01247
  23596312.931   123999462.22648  23596315.428    96622964.83447
  20890066.660   109778046.83249  20890068.651    85541345.02149
  24373641.467   128084336.66047  24373644.669    99805993.91048
  21107082.171   110918461.88249  21107082.284    86429969.78749
  24325693.920   127832368.59947  24325697.110    99609650.04747
  5  2 13 15 53 35.0000000  0  8G 4G 7G 8G 9G24G26G28G29
  21618122.320   113604015.93348  21618124.148    88522614.19848
  20888431.291   109769444.03349  20888432.521    85534637.18549
  23123406.027   121514313.57646  23123409.764    94686480.72547
  23593392.519   123984115.35347  23593395.001    96611006.23447
  20888606.116   109770371.62349  20888608.115    85535364.33649
  24375634.313   128094809.10347  24375637.515    99814154.25047
  21107732.034   110921877.00249  21107732.147    86432630.93149
  24327648.401   127842639.30647  24327651.605    99617653.15947
  5  2 13 15 53 40.0000000  0  8G 4G 7G 8G 9G24G26G28G29
  21615232.588   113588830.31748  21615234.417    88510781.26249
  20889136.665   109773150.80248  20889137.890    85537525.58249
  23126962.853   121533004.66846  23126966.611    94701045.16847
  23590492.989   123968878.18947  23590495.470    96599133.11047
  20887167.532   109762811.84349  20887169.524    85529473.61149
  24377647.574   128105388.95646  24377650.783    99822398.30747
  21108402.465   110925400.10649  21108402.579    86435376.20649
  24329622.851   127853015.14546  24329626.049    99625738.24047
  5  2 13 15 53 45.0000000  0  8G 4G 7G 8G 9G24G26G28G29
  21612305.339   113573447.54948  21612307.167    88498794.69548
  20889803.776   109776656.49549  20889805.007    85540257.28549
  23130481.353   121551494.48046  23130485.125    94715452.80148
  23587555.815   123953443.26747  23587558.281    96587105.90547
  20885692.377   109755059.88148  20885694.376    85523433.12549
  24379622.799   128115768.67747  24379626.015    99830486.36547
  21109034.917   110928723.66748  21109035.038    86437965.98949
  24331558.810   127863188.58346  24331562.014    99633665.56947
  5  2 13 15 53 50.0000000  0  8G 4G 7G 8G 9G24G26G28G29
  21609457.885   113558484.04848  21609459.720    88487134.81248
  20890549.919   109780577.49949  20890551.143    85543312.61849
  23134078.824   121570399.28546  23134082.595    94730183.80848
  23584698.285   123938426.87747  23584700.744    96575404.83148
  20884297.945   109747732.09649  20884299.945    85517723.16449
  24381677.193   128126564.52446  24381680.401    99838898.70447
  21109746.677   110932463.99048  21109746.797    86440880.52449
  24333573.534   127873775.96646  24333576.745    99641915.46247
  5  2 13 15 53 55.0000000  0  8G 4G 7G 8G 9G24G26G28G29
  21606543.714   113543170.01048  21606545.550    88475201.80449
  20891228.598   109784143.95549  20891229.823    85546091.66849
  23137608.790   121588949.31746  23137612.575    94744638.36048
  23581773.920   123923059.26847  23581776.373    96563430.08148
  20882837.752   109740058.72949  20882839.752    85511743.91949
  24383664.310   128137006.80146  24383667.518    99847035.52147
  21110391.264   110935851.35048  21110391.391    86443520.03049
  24335520.534   127884007.39746  24335523.746    99649887.98047
  5  2 13 15 54  0.0000000  0  8G 4G 7G 8G 9G24G26G28G29
  21603650.832   113527967.81248  21603652.675    88463355.93549
  20891927.795   109787818.25649  20891929.019    85548954.75949
  23141159.231   121607606.91946  23141163.029    94759176.72048
  23578870.701   123907802.81447  23578873.140    96551541.95247
  20881399.782   109732502.14549  20881401.789    85505855.66849
  24385672.097   128147557.79347  24385675.311    99855257.06447
  21111056.669   110939348.04649  21111056.796    86446244.71849
  24337487.764   127894345.28846  24337490.983    99657943.48547
  5  2 13 15 54  5.0000000  0  8G 4G 7G 8G 9G24G26G28G29
  21600750.030   113512723.96148  21600751.872    88451477.60249
  20892618.319   109791446.98349  20892619.550    85551782.33749
  23144700.941   121626218.66846  23144704.746    94773679.36547
  23575959.440   123892504.06147  23575961.884    96539620.84748
  20879954.838   109724908.94149  20879956.838    85499938.89749
  24387671.388   128158064.07947  24387674.608    99863443.76047
  21111713.682   110942800.67248  21111713.816    86448935.07549
  24339446.093   127904636.22046  24339449.327    99665962.35647
  5  2 13 15 54 10.0000000  0  8G 4G 7G 8G 9G24G26G28G29
  21597899.974   113497746.87748  21597901.815    88439807.15649
  20893358.836   109795338.39648  20893360.067    85554814.60149
  23148292.588   121645092.83646  23148296.406    94788386.48648
  23573098.805   123877471.35447  23573101.242    96527907.05748
  20878561.589   109717587.37249  20878563.597    85494233.77749
  24389720.806   128168833.90547  24389724.019    99871835.85047
  21112420.974   110946517.51349  21112421.107    86451831.31349
  24341454.103   127915188.41946  24341457.337    99674184.85647
  5  2 13 15 54 15.0000000  0  8G 4G 7G 8G 9G24G26G28G29
  21595012.849   113482574.96848  21595014.698    88427984.89349
  20894061.502   109799030.93149  20894062.734    85557691.90249
  23151846.337   121663767.91646  23151850.168    94802938.48848
  23570200.962   123862243.14947  23570203.392    96516040.94148
  20877132.214   109710075.95549  20877134.223    85488380.72949
  24391732.563   128179405.72747  24391735.768    99880073.62647
  21113090.730   110950037.07448  21113090.864    86454573.82349
  24343424.023   127925540.35746  24343427.271    99682251.28147
  5  2 13 15 54 20.0000000  0  8G 4G 7G 8G 9G24G26G28G29
  21592088.695   113467208.40348  21592090.551    88416010.93949
  20894726.357   109802524.76749  20894727.588    85560414.37149
  23155362.212   121682243.90146  23155366.057    94817335.33748
  23567265.952   123846819.62947  23567268.375    96504022.63048
  20875666.741   109702374.84249  20875668.750    85482379.86249
  24393706.689   128189779.73447  24393709.895    99888157.25047
  21113722.957   110953359.48148  21113723.098    86457162.71849
  24345355.845   127935692.14746  24345359.100    99690161.76447
  5  2 13 15 54 25.0000000  0  8G 4G 7G 8G 9G24G26G28G29
  21589215.473   113452109.57848  21589217.328    88404245.63548
  20895441.386   109806282.27349  20895442.618    85563342.29749
  23158928.223   121700983.35246  23158932.067    94831937.49248
  23564381.782   123831663.24848  23564384.206    96492212.47248
  20874253.159   109694946.45149  20874255.175    85476591.50949
  24395731.146   128200418.29646  24395734.351    99896447.03047
  21114405.674   110956947.15348  21114405.821    86459958.29349
  24347337.594   127946106.24546  24347340.849    99698276.63347
  5  2 13 15 54 30.0000000  0  8G 4G 7G 8G 9G24G26G28G29
  21586334.681   113436970.85548  21586336.544    88392449.21149
  20896148.058   109809995.82849  20896149.290    85566235.97049
  23162485.792   121719678.44046  23162489.650    94846505.07248
  23561489.880   123816466.26047  23561492.304    96480370.68148
  20872832.926   109687483.07649  20872834.942    85470775.89349
  24397747.403   128211013.74046  24397750.609    99904703.20547
  21115080.315   110960492.38148  21115080.463    86462720.80549
  24349310.693   127956474.88846  24349313.956    99706356.08447
  5  2 13 15 54 35.0000000  0  8G 4G 7G 8G 9G24G26G28G29
  21583446.351   113421792.60948  21583448.214    88380622.01348
  20896846.406   109813665.66949  20896847.638    85569095.58749
  23166034.995   121738329.56346  23166038.859    94861038.39847
  23558590.315   123801229.00648  23558592.733    96468497.51548
  20871406.083   109679984.99749  20871408.106    85464933.24049
  24399755.488   128221566.26346  24399758.693    99912925.94247
  21115746.938   110963995.51249  21115747.093    86465450.51649
  24351275.195   127966798.35246  24351278.465    99714400.32647
  5  2 13 15 54 40.0000000  0  8G 4G 7G 8G 9G24G26G28G29
  21580550.571   113406575.18448  21580552.428    88368764.28648
  20897536.515   109817292.21949  20897537.747    85571921.47049
  23169575.908   121756937.12746  23169579.787    94875537.77947
  23555683.191   123785951.93948  23555685.604    96456593.30648
  20869972.741   109672452.70149  20869974.765    85459063.91649
  24401755.501   128232076.34246  24401758.706    99921115.60047
  21116405.634   110967456.95148  21116405.797    86468147.73449
  24353231.204   127977077.12546  24353234.488    99722409.72747
  5  2 13 15 54 45.0000000  0  8G 4G 7G 8G 9G24G26G28G29
  21577676.686   113391472.87648  21577678.549    88356996.26449
  20898247.747   109821029.76649  20898248.980    85574833.84849
  23173137.868   121775655.31946  23173141.746    94890123.37747
  23552797.840   123770789.37648  23552800.246    96444778.34148
  20868562.237   109665040.48149  20868564.260    85453288.16649
  24403776.782   128242698.21246  24403779.985    99929392.36947
  21117085.755   110971030.97848  21117085.918    86470932.68349
  24355208.023   127987465.40946  24355211.315    99730504.50047
  5  2 13 15 54 50.0000000  0  8G 4G 7G 8G 9G24G26G28G29
  21574824.834   113376486.23048  21574826.699    88345318.34949
  20898980.189   109824878.74349  20898981.422    85577833.04549
  23176720.976   121794484.58546  23176724.868    94904795.50347
  23549934.374   123755741.73048  23549936.788    96433052.89648
  20867174.665   109657748.74249  20867176.696    85447606.29049
  24405819.399   128253432.30246  24405822.603    99937756.61047
  21117787.378   110974718.06248  21117787.540    86473805.74249
  24357205.785   127997963.62946  24357209.092    99738684.90647
  5  2 13 15 54 55.0000000  0  8G 4G 7G 8G 9G24G26G28G29
  21571965.704   113361461.37148  21571967.576    88333610.65949
  20899704.566   109828685.37149  20899705.799    85580799.24949
  23180295.952   121813271.18046  23180299.857    94919434.39647
  23547063.502   123740655.22548  23547065.915    96421297.18648
  20865780.769   109650423.74249  20865782.802    85441898.49849
  24407854.150   128264124.89446  24407857.360    99946088.47247
  21118481.256   110978364.38848  21118481.433    86476647.02449
  24359195.222   128008418.03246  24359198.536    99746831.16247
  5  2 13 15 55  0.0000000  0  8G 4G 7G 8G 9G24G26G28G29
  21569070.052   113346244.65048  21569071.932    88321753.47849
  20900391.619   109832295.85649  20900392.858    85583612.60849
  23183833.571   121831861.36946  23183837.482    94933920.22347
  23544155.992   123725376.12548  23544158.399    96409391.39248
  20864351.276   109642911.70149  20864353.308    85436044.95849
  24409851.707   128274622.09747  24409854.910    99954268.10947
  21119138.119   110981816.25848  21119138.296    86479336.80049
  24361147.054   128018674.82346  24361150.383    99754823.42947
  5  2 13 15 55  5.0000000  0  8G 4G 7G 8G 9G24G26G28G29
  21566225.841   113331298.21848  21566227.721    88310106.91149
  20901129.300   109836172.40048  20901130.533    85586633.29749
  23187421.739   121850717.19646  23187425.658    94948613.04547
  23541299.765   123710366.61748  23541302.160    96397695.69448
  20862974.141   109635674.84349  20862976.181    85430405.85349
  24411900.046   128285386.19246  24411903.256    99962655.71047
  21119845.934   110985535.81848  21119846.112    86482235.15349
  24363149.215   128029196.18646  24363152.551    99763021.88047
  5  2 13 15 55 10.0000000  0  8G 4G 7G 8G 9G24G26G28G29
  21563315.929   113316006.52748  21563317.809    88298191.30749
  20901800.484   109839699.46248  20901801.717    85589381.65049
  23190943.341   121869223.27746  23190947.261    94963033.35748
  23538377.723   123695011.18248  23538380.119    96385730.42548
  20861532.239   109628097.59549  20861534.272    85424501.50849
  24413882.036   128295801.55446  24413885.246    99970771.56447
  21120487.551   110988907.50748  21120487.735    86484862.43249
  24365084.573   128039366.56346  24365087.903    99770946.85347
  5  2 13 15 55 15.0000000  0  8G 4G 7G 8G 9G24G26G28G29
  21560486.874   113301139.77548  21560488.754    88286606.83149
  20902551.708   109843647.16948  20902552.940    85592457.78549
  23194544.924   121888149.62846  23194548.850    94977781.14048
  23535536.408   123680080.00148  23535538.804    96374095.74948
  20860172.135   109620950.17049  20860174.170    85418932.08549
  24415944.214   128306638.37546  24415947.430    99979215.83347
  21121209.540   110992701.61448  21121209.730    86487818.87949
  24367099.701   128049956.10446  24367103.033    99779198.44247
  5  2 13 15 55 20.0000000  0  8G 4G 7G 8G 9G24G26G28G29
  21557621.540   113286082.28148  21557623.421    88274873.70949
  20903265.831   109847399.88048  20903267.065    85595381.97449
  23198109.334   121906880.57147  23198113.261    94992376.64848
  23532658.676   123664957.38748  23532661.066    96362311.89248
  20858776.647   109613616.86449  20858778.683    85413217.83049
  24417969.431   128317280.87046  24417972.654    99987508.66247
  21121894.754   110996302.37548  21121894.944    86490624.65548
  24369077.423   128060349.10046  24369080.754    99787296.87947
  5  2 13 15 55 25.0000000  0  8G 4G 7G 8G 9G24G26G28G29
  21554749.236   113270988.28248  21554751.124    88263112.16449
  20903972.176   109851111.75248  20903973.410    85598274.34149
  23201665.894   121925570.35947  23201669.822    95006940.11148
  23529773.860   123649797.57648  23529776.251    96350499.05548
  20857375.139   109606251.88949  20857377.175    85407478.88949
  24419987.016   128327883.34746  24419990.245    99995770.32747
  21122572.492   110999863.97948  21122572.683    86493399.94649
  24371047.098   128070699.71646  24371050.437    99795362.27647
  5  2 13 15 55 30.0000000  0  8G 4G 7G 8G 9G24G26G28G29
  21551899.352   113256012.01148  21551901.240    88251442.33748
  20904700.100   109854936.98348  20904701.333    85601255.03349
  23205243.988   121944373.21247  23205247.916    95021591.65148
  23526911.321   123634754.83448  23526913.705    96338777.44048
  20855996.964   109599009.49749  20855999.001    85401835.46649
  24422026.312   128338599.92147  24422029.534   100004120.90647
  21123272.165   111003540.75448  21123272.357    86496264.96049
  24373038.066   128081162.23146  24373041.405    99803514.86447
  5  2 13 15 55 35.0000000  0  8G 4G 7G 8G 9G24G26G28G29
  21549013.334   113240845.85348  21549015.223    88239624.54749
  20905391.067   109858568.07448  20905392.301    85604084.46049
  23208785.029   121962981.44646  23208788.951    95036091.56448
  23524012.513   123619521.52448  23524014.898    96326907.33948
  20854583.572   109591582.10149  20854585.609    85396047.89549
  24424028.774   128349122.99246  24424031.988   100012320.71547
  21123935.196   111007024.97048  21123935.387    86498979.92649
  24374991.784   128091429.02746  24374995.131    99811514.95148
  5  2 13 15 55 40.0000000  0  8G 4G 7G 8G 9G24G26G28G29
  21546179.097   113225951.83448  21546180.986    88228018.82049
  20906132.993   109862466.89148  20906134.234    85607122.49149
  23212376.954   121981857.01646  23212380.877    95050799.77548
  23521165.362   123604559.64348  23521167.753    96315248.72748
  20853222.893   109584431.65849  20853224.931    85390476.11549
  24426082.357   128359914.55346  24426085.578   100020729.69747
  21124649.500   111010778.63648  21124649.699    86501904.85449
  24376996.134   128101961.95746  24376999.488    99819722.42747
  5  2 13 15 55 45.0000000  0  8G 4G 7G 8G 9G24G26G28G29
  21543338.089   113211022.33248  21543339.978    88216385.46149
  20906867.330   109866325.85748  20906868.571    85610129.47949
  23215961.199   122000692.32147  23215965.115    95065476.63448
  23518311.324   123589561.60848  23518313.709    96303561.95748
  20851856.371   109577250.56749  20851858.409    85384880.46749
  24428128.484   128370666.98946  24428131.703   100029108.20847
  21125356.535   111014494.19148  21125356.734    86504800.10549
  24378992.623   128112453.54946  24378995.984    99827897.68048
  5  2 13 15 55 50.0000000  0  8G 4G 7G 8G 9G24G26G28G29
  21540461.116   113195903.67448  21540463.006    88204604.67749
  20907564.839   109869991.28848  20907566.080    85612985.65849
  23219508.538   122019333.67847  23219512.454    95080002.35948
  23515421.184   123574373.78648  23515423.563    96291727.29248
  20850454.787   109569885.19049  20850456.833    85379141.21449
  24430137.917   128381226.60046  24430141.150   100037336.46347
  21126027.097   111018017.98848  21126027.296    86507545.91449
  24380951.998   128122750.04046  24380955.380    99835920.89347
  5  2 13 15 55 55.0000000  0  8G 4G 7G 8G 9G24G26G28G29
  21537636.097   113181058.03748  21537637.987    88193036.63649
  20908313.456   109873925.30148  20908314.698    85616051.12549
  23223106.928   122038243.19347  23223110.852    95094737.01048
  23512582.860   123559458.26447  23512585.247    96280104.80048
  20849106.068   109562797.62449  20849108.113    85373618.43449
  24432198.588   128392055.46946  24432201.827   100045774.52747
  21126749.094   111021812.07648  21126749.300    86510502.33649
  24382962.190   128133313.54246  24382965.586    99844152.16447
  5  2 13 15 56  0.0000000  0  8G 4G 7G 8G 9G24G26G28G29
  21534745.857   113165869.75448  21534747.754    88181201.61649
  20908996.031   109877512.22248  20908997.272    85618846.12349
  23226639.183   122056805.25347  23226643.106    95109200.94048
  23509679.192   123544199.41447  23509681.572    96268214.79748
  20847693.059   109555372.21449  20847695.106    85367832.40549
  24434193.336   128402537.93846  24434196.574   100053942.68247
  21127405.381   111025260.88848  21127405.580    86513189.72649
  24384906.010   128143528.38646  24384909.414    99852111.78547
  5  2 13 15 56  5.0000000  0  8G 4G 7G 8G 9G24G26G28G29
  21531907.666   113150954.95748  21531909.557    88169579.70249
  20909729.786   109881368.13348  20909731.028    85621850.73149
  23230222.571   122075635.86747  23230226.496    95123874.10348
  23506827.431   123529213.37248  23506829.818    96256537.37448
  20846333.021   109548225.13249  20846335.062    85362263.25149
  24436239.419   128413290.14846  24436242.657   100062321.02047
  21128113.210   111028980.52048  21128113.415    86516088.13149
  24386900.731   128154010.62146  24386904.143    99860279.73947
  5  2 13 15 56 10.0000000  0  8G 4G 7G 8G 9G24G26G28G29
  21529092.249   113136159.78148  21529094.141    88158050.98449
  20910485.465   109885339.25448  20910486.708    85624945.11149
  23233827.767   122094581.23547  23233831.679    95138636.72448
  23503998.313   123514346.29147  23504000.701    96244952.64548
  20844996.659   109541202.50649  20844998.708    85356791.07549
  24438307.541   128424158.23246  24438310.784   100070789.65447
  21128843.286   111032817.06548  21128843.499    86519077.63749
  24388917.056   128164606.41846  24388920.475    99868536.19047
  5  2 13 15 56 15.0000000  0  8G 4G 7G 8G 9G24G26G28G29
  21526241.071   113121176.77348  21526242.971    88146375.92049
  20911204.553   109889118.05348  20911205.802    85627889.62149
  23237396.278   122113333.79246  23237400.197    95153249.08648
  23501133.330   123499290.67147  23501135.717    96233220.98448
  20843625.465   109533996.86149  20843627.506    85351176.29549
  24440339.209   128434834.65746  24440342.445   100079108.93547
  21129537.101   111036463.08848  21129537.308    86521918.70049
  24390896.470   128175008.31146  24390899.897    99876641.56247
  5  2 13 15 56 20.0000000  0  8G 4G 7G 8G 9G24G26G28G29
  21523383.483   113106160.01548  21523385.377    88134674.55049
  20911916.345   109892858.57848  20911917.601    85630804.32049
  23240957.430   122132047.71247  23240961.343    95167831.34948
  23498261.773   123484200.66147  23498264.161    96221462.56547
  20842248.770   109526762.25149  20842250.812    85345538.93349
  24442363.728   128445473.48246  24442366.976   100087398.89647
  21130223.982   111040072.63948  21130224.195    86524731.32849
  24392868.321   128185370.36246  24392871.763    99884715.86547
  5  2 13 15 56 25.0000000  0  8G 4G 7G 8G 9G24G26G28G29
  21520578.147   113091417.90248  21520580.048    88123187.19449
  20912679.544   109896869.18748  20912680.794    85633929.46749
  23244569.877   122151031.25047  23244573.784    95182623.72648
  23495442.360   123469384.54647  23495444.741    96209917.54347
  20840925.243   109519807.07149  20840927.286    85340119.31449
  24444439.732   128456383.02046  24444442.972   100095899.84747
  21130962.593   111043954.09848  21130962.813    86527755.84449
  24394891.240   128196000.87646  24394894.683    99892999.38547
  5  2 13 15 56 30.0000000  0  8G 4G 7G 8G 9G24G26G28G29
  21517707.926   113076334.76248  21517709.821    88111434.09649
  20913376.987   109900534.27148  20913378.244    85636785.37549
  23248116.499   122169668.78247  23248120.394    95197146.46748
  23492557.921   123454226.74947  23492560.308    96198106.27447
  20839537.730   109512515.64149  20839539.773    85334437.68049
  24446450.121   128466947.65346  24446453.368   100104132.01947
  21131635.790   111047491.80648  21131636.018    86530512.50449
  24396848.107   128206284.18446  24396851.564    99901012.32847
  5  2 13 15 56 35.0000000  0  8G 4G 7G 8G 9G24G26G28G29
  21514860.761   113061372.80748  21514862.663    88099775.43049
  20914096.606   109904315.89748  20914097.863    85639732.09549
  23251685.228   122188422.38947  23251689.130    95211759.62748
  23489696.412   123439189.41747  23489698.792    96186388.87647
  20838174.183   109505350.15249  20838176.227    85328854.18649
  24448482.816   128477629.47446  24448486.069   100112455.49347
  21132331.532   111051147.89148  21132331.759    86533361.38749
  24398826.852   128216682.46646  24398830.322    99909114.85747
  5  2 13 15 56 40.0000000  0  8G 4G 7G 8G 9G24G26G28G29
  21512066.018   113046686.30048  21512067.914    88088331.39849
  20914867.767   109908368.37449  20914869.024    85642889.87049
  23255305.383   122207446.43447  23255309.272    95226583.56448
  23486887.190   123424426.88547  23486889.571    96174885.61347
  20836863.976   109498464.93449  20836866.019    85323489.07449
  24450567.160   128488582.80946  24450570.413   100120990.56747
  21133079.174   111055076.74248  21133079.407    86536422.81949
  24400856.823   128227350.00445  24400860.307    99917427.21147
  5  2 13 15 56 45.0000000  0  8G 4G 7G 8G 9G24G26G28G29
  21509206.508   113031659.47348  21509208.411    88076622.18149
  20915573.301   109912075.94749  20915574.558    85645778.88249
  23258859.829   122226125.07747  23258863.718    95241138.33348
  23484013.074   123409323.30646  23484015.462    96163116.58747
  20835489.904   109491244.16749  20835491.949    85317862.51549
  24452586.021   128499191.83846  24452589.288   100129257.30247
  21133761.500   111058662.45648  21133761.734    86539216.89649
  24402820.820   128237670.88046  24402824.312    99925469.45248
  5  2 13 15 56 50.0000000  0  8G 4G 7G 8G 9G24G26G28G29
  21506399.499   113016908.57648  21506401.397    88065127.98949
  20916330.467   109916054.88348  20916331.724    85648879.35249
  23262465.803   122245074.56947  23262469.685    95255904.16748
  23481191.343   123394495.04146  23481193.738    96151562.09947
  20834169.256   109484304.11649  20834171.301    85312454.68549
  24454656.585   128510072.78946  24454659.860   100137735.98047
  21134495.836   111062521.38648  21134496.071    86542223.84949
  24404836.159   128248261.49646  24404839.658    99933721.86347
  5  2 13 15 56 55.0000000  0  8G 4G 7G 8G 9G24G26G28G29
  21503557.170   113001972.00148  21503559.074    88053489.09149
  20917051.395   109919843.41748  20917052.658    85651831.45749
  23266035.451   122263833.13147  23266039.333    95270521.21448
  23478334.123   123379480.37347  23478336.517    96139862.38047
  20832814.165   109477183.03349  20832816.211    85306905.78749
  24456691.079   128520763.97046  24456694.361   100146066.73747
  21135194.297   111066191.78848  21135194.537    86545083.88849
  24406814.946   128258660.09346  24406818.453    99941824.66647
  5  2 13 15 57  0.0000000  0  8G 4G 7G 8G 9G24G26G28G29
  21500767.471   112987312.00448  21500769.376    88042065.71049
  20917824.067   109923903.80649  20917825.331    85654995.39249
  23269656.744   122282863.06347  23269660.627    95285349.71548
  23475529.428   123364741.53647  23475531.821    96128377.56047
  20831512.584   109470343.21349  20831514.631    85301576.06549
  24458777.371   128531727.60346  24458780.648   100154609.85747
  21135944.845   111070135.94648  21135945.085    86548157.25949
  24408845.170   128269328.89646  24408848.677    99950138.00147
  5  2 13 15 57  5.0000000  0  8G 4G 7G 8G 9G24G26G28G29
  21497913.205   112972312.79848  21497915.103    88030378.03449
  20918531.308   109927620.38249  20918532.572    85657891.42649
  23273212.509   122301548.63847  23273216.385    95299909.88548
  23472660.063   123349662.82847  23472662.470    96116627.88847
  20830147.376   109463168.96649  20830149.424    85295985.73949
  24460798.382   128542348.05446  24460801.672   100162885.51947
  21136630.323   111073738.15948  21136630.563    86550964.17749
  24410809.636   128279652.17546  24410813.144    99958182.10448
  5  2 13 15 57 10.0000000  0  8G 4G 7G 8G 9G24G26G28G29
  21495111.661   112957590.61948  21495113.560    88018906.21549
  20919290.360   109931609.22649  20919291.623    85660999.61249
  23276820.021   122320506.12047  23276823.897    95314681.92048
  23469843.252   123334860.47947  23469845.658    96105093.61047
  20828835.780   109456276.48349  20828837.829    85290614.97649
  24462871.329   128553241.37446  24462874.627   100171373.79647
  21137367.983   111077614.61948  21137368.216    86553984.80448
  24412825.603   128290246.05946  24412829.119    99966437.05847
  5  2 13 15 57 15.0000000  0  8G 4G 7G 8G 9G24G26G28G29
  21492274.986   112942683.78748  21492276.884    88007290.50349
  20920013.390   109935408.74149  20920014.654    85663960.27049
  23280391.380   122339273.70746  23280395.256    95329306.00648
  23466991.170   123319872.78446  23466993.570    96093414.91147
  20827489.956   109449204.09649  20827491.999    85285104.02749
  24464908.362   128563946.02446  24464911.674   100179715.07047
  21138069.980   111081303.60948  21138070.213    86556859.33549
  24414805.210   128300648.86946  24414808.727    99974543.12847
  5  2 13 15 57 20.0000000  0  8G 4G 7G 8G 9G24G26G28G29
  21489491.154   112928054.56048  21489493.055    87995891.09349
  20920788.336   109939481.11049  20920789.600    85667133.54549
  23284014.567   122358313.58646  23284018.441    95344142.25248
  23464191.773   123305162.00847  23464194.172    96081952.00047
  20826197.840   109442414.01349  20826199.883    85279813.06149
  24466997.418   128574923.99246  24467000.742   100188269.30047
  21138824.275   111085267.39448  21138824.515    86559947.98048
  24416836.443   128311322.91446  24416839.967    99982860.53047
  5  2 13 15 57 25.0000000  0  8G 4G 7G 8G 9G24G26G28G29
  21486642.964   112913087.21948  21486644.865    87984228.23149
  20921498.038   109943210.58849  20921499.295    85670039.62849
  23287572.416   122377010.08546  23287576.292    95358710.93047
  23461327.945   123290112.46047  23461330.351    96070225.06847
  20824842.285   109435290.52149  20824844.328    85274262.28949
  24469021.313   128585559.66246  24469024.637   100196556.84147
  21139513.676   111088890.21748  21139513.915    86562770.95949
  24418802.079   128321652.37146  24418805.612    99990909.45347
  5  2 13 15 57 30.0000000  0  8G 4G 7G 8G 9G24G26G28G29
  21483818.404   112898244.09048  21483820.305    87972662.16249
  20922230.470   109947059.54349  20922231.727    85673038.81349
  23291152.882   122395825.46846  23291156.764    95373372.24047
  23458487.598   123275186.39847  23458490.010    96058594.37947
  20823511.267   109428295.97349  20823513.312    85268811.99949
  24471068.047   128596315.29247  24471071.377   100204937.83847
  21140226.161   111092634.41548  21140226.400    86565688.52949
  24420790.142   128332099.52546  24420793.683    99999050.05347
  5  2 13 15 57 35.0000000  0  8G 4G 7G 8G 9G24G26G28G29
  21481017.525   112883525.37148  21481019.420    87961193.03649
  20922985.659   109951028.09249  20922986.917    85676131.18949
  23294756.014   122414759.96246  23294759.896    95388126.37048
  23455670.799   123260384.05046  23455673.211    96047060.08847
  20822204.820   109421430.55049  20822206.865    85263462.31849
  24473137.648   128607191.08746  24473140.984   100213412.47147
  21140961.804   111096500.18348  21140962.050    86568700.79949
  24422800.598   128342664.57345  24422804.133   100007282.57247
  5  2 13 15 57 40.0000000  0  8G 4G 7G 8G 9G24G26G28G29
  21478181.760   112868623.29348  21478183.655    87949581.02249
  20923705.044   109954808.45449  20923706.301    85679076.91749
  23298323.233   122433505.73146  23298327.122    95402733.43947
  23452818.968   123245397.67147  23452821.387    96035382.40847
  20820864.387   109414386.49849  20820866.434    85257973.44749
  24475171.545   128617879.22546  24475174.888   100221740.87147
  21141662.011   111100179.76149  21141662.264    86571567.99349
  24424774.948   128353039.75746  24424778.489   100015367.10847
  5  2 13 15 57 45.0000000  0  8G 4G 7G 8G 9G24G26G28G29
  21475399.105   112854000.30948  21475400.993    87938186.48749
  20924476.611   109958863.06649  20924477.861    85682236.35949
  23301942.518   122452525.16946  23301946.407    95417553.77347
  23450020.122   123230689.72947  23450022.548    96023921.69347
  20819577.943   109407626.18849  20819579.991    85252705.67649
  24477257.707   128628842.14146  24477261.042   100230283.41747
  21142414.772   111104135.55148  21142415.033    86574650.42649
  24426801.143   128363687.42345  24426804.685   100023663.97847
  5  2 13 15 57 50.0000000  0  8G 4G 7G 8G 9G24G26G28G29
  21472581.669   112839194.58248  21472583.557    87926649.55749
  20925212.469   109962730.02648  20925213.719    85685249.57349
  23305525.999   122471356.33446  23305529.882    95432227.37947
  23447186.357   123215798.25847  23447188.782    96012317.95947
  20818257.596   109400687.75049  20818259.644    85247299.10849
  24479308.280   128639617.91546  24479311.629   100238680.10347
  21143132.194   111107905.65749  21143132.455    86577588.17949
  24428791.290   128374145.62245  24428794.833   100031813.20547
  5  2 13 15 57 55.0000000  0  8G 4G 7G 8G 9G24G26G28G29
  21469788.108   112824514.32348  21469789.997    87915210.39849
  20925971.293   109966717.64249  20925972.543    85688356.79949
  23309132.316   122490307.56146  23309136.198    95446994.55048
  23444376.367   123201031.62847  23444378.794    96000811.49447
  20816962.038   109393879.51149  20816964.086    85241993.98449
  24481381.895   128650514.83446  24481385.249   100247171.20047
  21143872.965   111111798.40349  21143873.232    86580621.47749
  24430804.063   128384722.75046  24430807.606   100040055.11247
  5  2 13 15 58  0.0000000  0  8G 4G 7G 8G 9G24G26G28G29
  21466989.151   112809805.70248  21466991.033    87903749.13749
  20926723.781   109970672.02549  20926725.031    85691438.14249
  23312732.208   122509225.02946  23312736.090    95461735.41148
  23441560.847   123186235.97147  23441563.273    95989282.40947
  20815661.968   109387047.63049  20815664.017    85236670.45049
  24483449.302   128661379.03546  24483452.663   100255636.78947
  21144607.789   111115659.90048  21144608.057    86583630.42849
  24432810.181   128395264.87846  24432813.737   100048269.72747
  5  2 13 15 58  5.0000000  0  8G 4G 7G 8G 9G24G26G28G29
  21464184.854   112795068.99148  21464186.737    87892265.98249
  20927470.007   109974593.43449  20927471.248    85694493.77949
  23316325.693   122528108.88946  23316329.576    95476450.10548
  23438739.831   123171411.49447  23438742.257    95977730.88147
  20814357.447   109380192.29349  20814359.489    85231328.62549
  24485510.494   128672210.70746  24485513.855   100264077.05847
  21145336.715   111119490.40249  21145336.983    86586615.22949
  24434809.659   128405772.20945  24434813.221   100056457.25147
  5  2 13 15 58 10.0000000  0  8G 4G 7G 8G 9G24G26G28G29
  21461404.553   112780458.44548  21461406.435    87880881.14449
  20928239.284   109978636.01149  20928240.524    85697643.83549
  23319942.152   122547113.35347  23319946.036    95491258.74548
  23435942.689   123156712.47647  23435945.108    95966277.11747
  20813077.798   109373467.72949  20813079.841    85226088.71349
  24487594.845   128683164.01246  24487598.199   100272612.09747
  21146089.069   111123444.11049  21146089.336    86589696.05249
  24436831.863   128416398.96145  24436835.418   100064737.84047
  5  2 13 15 58 15.0000000  0  8G 4G 7G 8G 9G24G26G28G29
  21458589.713   112765666.36148  21458591.589    87869354.84949
  20928973.082   109982492.14949  20928974.324    85700648.62049
  23323522.997   122565930.79046  23323526.874    95505921.67847
  23433110.895   123141831.23847  23433113.307    95954681.33547
  20811764.504   109366566.32249  20811766.554    85220710.99249
  24489643.818   128693931.37445  24489647.185   100281002.22747
  21146806.346   111127213.36549  21146806.620    86592633.11649
  24438818.261   128426837.49145  24438821.823   100072871.74146
  5  2 13 15 58 20.0000000  0  8G 4G 7G 8G 9G24G26G28G29
  21455798.954   112751000.85448  21455800.830    87857927.19149
  20929730.014   109986469.85449  20929731.255    85703748.12849
  23327126.889   122584869.27746  23327130.765    95520678.91847
  23430303.049   123127075.87547  23430305.461    95943183.64147
  20810476.181   109359796.13649  20810478.218    85215435.53249
  24491716.007   128704820.80446  24491719.381   100289487.49147
  21147547.129   111131106.26748  21147547.388    86595666.56449
  24440827.464   128437395.89245  24440831.025   100081099.05647
  5  2 13 15 58 25.0000000  0  8G 4G 7G 8G 9G24G26G28G29
  21453003.015   112736308.03148  21453004.898    87846478.22249
  20930480.796   109990415.23849  20930482.036    85706822.45149
  23330724.514   122603774.89146  23330728.390    95535410.55748
  23427489.864   123112292.51747  23427492.260    95931664.15147
  20809183.546   109353003.29649  20809185.583    85210142.40949
  24493782.166   128715678.41545  24493785.546   100297947.93847
  21148282.178   111134968.91449  21148282.438    86598676.40649
  24442830.195   128447920.09445  24442833.775   100089299.67246
  5  2 13 15 58 30.0000000  0  8G 4G 7G 8G 9G24G26G28G29
  21450231.195   112721742.08448  21450233.072    87835128.15249
  20931254.780   109994482.52148  20931256.020    85709991.75249
  23334345.240   122622801.78046  23334349.124    95550236.67148
  23424700.689   123097635.33847  23424703.078    95920242.97647
  20807915.940   109346341.97849  20807917.984    85204951.77149
  24495871.586   128726658.33045  24495874.973   100306503.69947
  21149040.812   111138955.49948  21149041.072    86601782.82349
  24444855.778   128458564.48045  24444859.378   100097593.95847
  5  2 13 15 58 35.0000000  0  8G 4G 7G 8G 9G24G26G28G29
  21447424.971   112706995.27548  21447426.855    87823637.13049
  20931993.394   109998363.96248  20931994.634    85713016.25549
  23337930.450   122641642.15346  23337934.333    95564917.47148
  23421876.987   123082796.65047  23421879.366    95908680.35147
  20806614.802   109339504.45449  20806616.839    85199623.83249
  24497925.734   128737452.91844  24497929.134   100314915.05147
  21149764.455   111142758.29849  21149764.721    86604746.04549
  24446845.612   128469021.13245  24446849.206   100105742.00247
  5  2 13 15 58 40.0000000  0  8G 4G 7G 8G 9G24G26G28G29
  21444642.987   112692375.88248  21444644.878    87812245.39949
  20932755.288   110002367.77449  20932756.528    85716136.11449
  23341538.843   122660604.22846  23341542.727    95579693.08548
  23419077.399   123068084.65546  23419079.763    95897216.44247
  20805338.789   109332798.96249  20805340.820    85194398.77949
  24500003.231   128748370.20945  24500006.637   100323422.01547
  21150511.782   111146685.53148  21150512.041    86607806.22749
  24448858.372   128479598.28845  24448861.966   100113983.94947
  5  2 13 15 58 45.0000000  0  8G 4G 7G 8G 9G24G26G28G29
  21441855.967   112677730.02748  21441857.858    87800833.05049
  20933511.181   110006340.01949  20933512.420    85719231.36549
  23345141.103   122679534.14146  23345144.988    95594443.64848
  23416272.607   123053345.49846  23416274.956    95885731.41747
  20804058.614   109326071.59349  20804060.645    85189156.67549
  24502074.802   128759256.42245  24502078.215   100331904.78047
  21151253.510   111150583.30749  21151253.763    86610843.45449
  24450864.836   128490142.13845  24450868.443   100122199.88847
  5  2 13 15 58 50.0000000  0  8G 4G 7G 8G 9G24G26G28G29
  21439093.253   112663211.86748  21439095.151    87789520.19649
  20934290.417   110010434.93149  20934291.656    85722422.20649
  23348766.563   122698585.96746  23348770.448    95609289.20648
  23413491.990   123038733.32247  23413494.318    95874345.32147
  20802803.614   109319476.52249  20802805.645    85184017.66149
  24504169.783   128770265.64845  24504173.194   100340483.40047
  21152018.964   111154605.79449  21152019.217    86613977.85949
  24452894.251   128500806.75445  24452897.858   100130509.96947
  5  2 13 15 58 55.0000000  0  8G 4G 7G 8G 9G24G26G28G29
  21436325.562   112648667.55348  21436327.461    87778186.96749
  20935063.694   110014498.53049  20935064.932    85725588.64649
  23352385.965   122717605.95746  23352389.836    95624109.96448
  23410706.280   123024094.25047  23410708.613    95862938.23347
  20801544.518   109312859.92849  20801546.551    85178861.87949
  24506258.892   128781243.99246  24506262.301   100349037.94547
  21152778.880   111158599.15048  21152779.134    86617089.56149
  24454917.354   128511438.26445  24454920.960   100138794.26747
  5  2 13 15 59  0.0000000  0  8G 4G 7G 8G 9G24G26G28G29
  21433523.626   112633943.31148  21433525.526    87766713.54449
  20935801.761   110018377.10149  20935803.006    85728610.90449
  23355970.034   122736440.21546  23355973.899    95638785.98148
  23407886.188   123009274.57046  23407888.507    95851390.43347
  20800252.041   109306067.95149  20800254.082    85173569.43649
  24508312.859   128792037.69445  24508316.274   100357448.62247
  21153503.988   111162409.55648  21153504.249    86620058.69249
  24456904.933   128521882.87446  24456908.552   100146932.87547
  5  2 13 15 59  5.0000000  0  8G 4G 7G 8G 9G24G26G28G29
  21430746.073   112619347.23448  21430747.974    87755339.99349
  20936563.231   110022378.65249  20936564.477    85731728.99849
  23359577.383   122755396.80147  23359581.248    95653557.31648
  23405090.311   122994582.32246  23405092.607    95839941.97047
  20798984.824   109299408.68049  20798986.865    85168380.39549
  24510390.324   128802954.81545  24510393.746   100365955.45947
  21154252.907   111166345.12049  21154253.167    86623125.35649
  24458915.522   128532448.59045  24458919.135   100155165.90847
  5  2 13 15 59 10.0000000  0  8G 4G 7G 8G 9G24G26G28G29
  21427963.614   112604725.24948  21427965.515    87743946.22849
  20937318.810   110026349.24749  20937320.056    85734822.96749
  23363178.707   122774321.82547  23363182.560    95668304.08548
  23402289.449   122979863.60146  23402291.744    95828472.81347
  20797713.575   109292728.22249  20797715.617    85163174.84649
  24512461.966   128813841.33746  24512465.400   100374438.44247
  21154996.328   111170251.85649  21154996.589    86626169.57549
  24460919.867   128542981.46445  24460923.474   100163373.33947
  5  2 13 15 59 15.0000000  0  8G 4G 7G 8G 9G24G26G28G29
  21425205.610   112590231.87048  21425207.518    87732652.69349
  20938097.885   110030443.31149  20938099.130    85738013.14749
  23366803.406   122793369.59046  23366807.266    95683146.46148
  23399512.896   122965272.74546  23399515.181    95817103.31346
  20796467.667   109286180.92949  20796469.710    85158073.06649
  24514557.169   128824851.63646  24514560.609   100383017.88047
  21155763.651   111174284.13349  21155763.911    86629311.60249
  24462947.315   128553635.93145  24462950.907   100171675.55947
  5  2 13 15 59 20.0000000  0  8G 4G 7G 8G 9G24G26G28G29
  21422442.798   112575713.19848  21422444.707    87721339.44449
  20938871.150   110034506.81848  20938872.395    85741179.50649
  23370422.160   122812386.18046  23370426.014    95697964.56848
  23396731.380   122950655.81346  23396733.658    95805713.50447
  20795217.798   109279612.82549  20795219.842    85152955.06449
  24516646.640   128835831.78846  24516650.087   100391573.81747
  21156525.561   111178288.02949  21156525.822    86632431.53149
  24464968.656   128564257.96345  24464972.249   100179952.42647
  5  2 13 15 59 25.0000000  0  8G 4G 7G 8G 9G24G26G28G29
  21419645.863   112561015.23448  21419647.772    87709886.49249
  20939609.306   110038385.84949  20939610.551    85744202.12949
  23374005.680   122831217.61047  23374009.534    95712638.39148
  23393915.599   122935858.94346  23393917.862    95794183.50847
  20793934.694   109272870.06549  20793936.738    85147700.96849
  24518701.064   128846627.85846  24518704.511   100399986.34047
  21157252.811   111182109.62649  21157253.080    86635409.37349
  24466954.506   128574693.61145  24466958.105   100188084.08347
  5  2 13 15 59 30.0000000  0  8G 4G 7G 8G 9G24G26G28G29
  21416902.781   112546600.24248  21416904.692    87698654.03949
  20940400.324   110042542.67948  20940401.570    85747441.22149
  23377641.930   122850326.10946  23377645.779    95727528.10948
  23391153.590   122921344.42146  23391155.843    95782873.46946
  20792706.306   109266414.87549  20792708.358    85142670.95649
  24520808.415   128857702.00046  24520811.875   100408615.51847
  21158033.307   111186211.19149  21158033.582    86638605.39949
  24468992.859   128585405.10446  24468996.465   100196430.66947
  5  2 13 15 59 35.0000000  0  8G 4G 7G 8G 9G24G26G28G29
  21414154.975   112532160.39348  21414156.887    87687402.20549
  20941185.601   110046669.33849  20941186.853    85750656.79449
  23381272.300   122869403.70346  23381276.148    95742393.73948
  23388386.692   122906804.24346  23388388.937    95771543.45246
  20791474.051   109259939.29949  20791476.097    85137625.05349
  24522910.069   128868746.36046  24522913.522   100417221.53547
  21158808.471   111190284.73748  21158808.740    86641779.60349
  24471025.078   128596084.58246  24471028.676   100204752.35947
  5  2 13 15 59 40.0000000  0  8G 4G 7G 8G 9G24G26G28G29
  21411373.145   112517541.74348  21411375.057    87676011.04649
  20941935.866   110050611.97349  20941937.111    85753728.97549
  23384867.536   122888296.60846  23384871.377    95757115.44748
  23385585.630   122892084.65746  23385587.859    95760073.66546
  20790208.637   109253289.53549  20790210.690    85132443.42449
  24524976.799   128879607.03846  24524980.251   100425684.38547
  21159549.040   111194176.48448  21159549.309    86644812.13949
  24473021.932   128606578.05845  24473025.543   100212929.07247
  5  2 13 15 59 45.0000000  0  8G 4G 7G 8G 9G24G26G28G29
  21408586.629   112502898.50748  21408588.536    87664600.73949
  20942680.438   110054524.72649  20942681.690    85756777.87049
  23388456.924   122907158.94047  23388460.773    95771813.35948
  23382779.793   122877339.79046  23382782.013    95748584.13046
  20788939.421   109246619.73249  20788941.469    85127246.17649
  24527037.886   128890438.15746  24527041.339   100434124.22347
  21160284.372   111198040.58648  21160284.655    86647823.10549
  24475012.763   128617039.78745  24475016.388   100221081.02747
  5  2 13 15 59 50.0000000  0  8G 4G 7G 8G 9G24G26G28G29
  21405824.779   112488384.91548  21405826.686    87653291.45349
  20943448.655   110058561.73249  20943449.907    85759923.59149
  23392069.840   122926144.78646  23392073.695    95786607.48548
  23379998.432   122862723.76446  23380000.629    95737195.04846
  20787695.719   109240084.06149  20787697.773    85122153.45149
  24529122.690   128901393.87246  24529126.149   100442661.14147
  21161043.754   111202031.16549  21161044.044    86650932.64449
  24477026.863   128627623.83045  24477030.487   100229328.30547
  5  2 13 15 59 55.0000000  0  8G 4G 7G 8G 9G24G26G28G29
  21403116.889   112474154.86148  21403118.804    87642203.09949
  20944269.830   110062877.00748  20944271.083    85763286.13549
  23395735.559   122945408.17746  23395739.408    95801617.90148
  23377270.920   122848390.65346  23377273.109    95726026.40247
  20786506.840   109233836.46149  20786508.895    85117285.19349
  24531260.515   128912628.12846  24531263.981   100451415.08147
  21161856.508   111206302.21848  21161856.799    86654260.74049
  24479093.532   128638484.18945  24479097.171   100237790.90147
  5  2 13 16  0  0.0000000  0  8G 4G 7G 8G 9G24G26G28G29
  21400316.494   112459438.68548  21400318.410    87630735.95349
  20944997.472   110066700.82349  20944998.731    85766265.73549
  23399307.607   122964179.32347  23399311.463    95816244.74548
  23374450.763   122833570.75546  23374452.943    95714478.44946
  20785226.310   109227107.26349  20785228.372    85112041.66749
  24533304.862   128923371.27346  24533308.326   100459786.36647
  21162576.175   111210084.09248  21162576.465    86657207.65249
  24481066.314   128648851.19445  24481069.959   100245869.07747
  5  2 13 16  0  5.0000000  0  8G 4G 7G 8G 9G24G26G28G29
  21397599.468   112445160.58548  21397601.377    87619610.15949
  20945807.473   110070957.37449  20945808.725    85769582.52549
  23402961.859   122983382.48447  23402965.713    95831208.22948
  23371713.870   122819188.22246  23371716.053    95703271.24846
  20784030.006   109220820.64049  20784032.068    85107143.00249
  24535431.623   128934547.41646  24535435.094   100468495.03047
  21163378.613   111214300.90349  21163378.911    86660493.47149
  24483121.051   128659648.91245  24483124.702   100254282.87747
  5  2 13 16  0 10.0000000  0  8G 4G 7G 8G 9G24G26G28G29
  21394848.559   112430704.55248  21394850.468    87608345.73849
  20946582.590   110075030.64249  20946583.849    85772756.49649
  23406581.098   123002401.61946  23406584.946    95846028.31948
  23368942.975   122804627.10146  23368945.150    95691924.92646
  20782800.707   109214360.63249  20782802.771    85102109.23749
  24537523.552   128945540.54646  24537527.030   100477061.09547
  21164146.604   111218336.69048  21164146.903    86663638.23849
  24485140.580   128670261.38845  24485144.252   100262552.28447
  5  2 13 16  0 15.0000000  0  8G 4G 7G 8G 9G24G26G28G29
  21392093.150   112416224.75048  21392095.059    87597062.77049
  20947352.164   110079074.74949  20947353.424    85775907.74549
  23410194.651   123021390.87447  23410198.499    95860825.12048
  23366167.396   122790041.52246  23366169.555    95680559.58147
  20781567.744   109207881.34048  20781569.817    85097060.43049
  24539609.995   128956504.78646  24539613.480   100485604.63647
  21164909.468   111222345.56948  21164909.774    86666762.03549
  24487154.136   128680842.72945  24487157.808   100270797.49047
  5  2 13 16  0 20.0000000  0  8G 4G 7G 8G 9G24G26G28G29
  21389333.248   112401721.36648  21389335.151    87585761.43949
  20948116.220   110083089.92449  20948117.480    85779036.45849
  23413802.543   123040350.37947  23413806.391    95875598.74348
  23363387.214   122775431.69446  23363389.372    95669175.31847
  20780331.142   109201383.01149  20780333.214    85091996.81249
  24541690.989   128967440.35545  24541694.480   100494125.82747
  21165667.255   111226327.76448  21165667.554    86669865.04949
  24489161.835   128691393.19445  24489165.513   100279018.61346
  5  2 13 16  0 25.0000000  0  8G 4G 7G 8G 9G24G26G28G29
  21386598.174   112387348.45849  21386600.078    87574561.77349
  20948904.062   110087230.05949  20948905.321    85782262.53749
  23417434.056   123059434.07747  23417437.897    95890469.15148
  23360631.741   122760951.58447  23360633.904    95657892.10947
  20779120.226   109195019.57249  20779122.306    85087038.28349
  24543795.822   128978501.17246  24543799.328   100502744.60847
  21166449.265   111230437.19348  21166449.572    86673067.18849
  24491192.920   128702066.64745  24491196.592   100287335.60447
  5  2 13 16  0 30.0000000  0  8G 4G 7G 8G 9G24G26G28G29
  21383887.948   112373106.09448  21383889.853    87563463.82449
  20949715.705   110091495.27148  20949716.957    85785586.08249
  23421089.246   123078642.10547  23421093.094    95905436.41648
  23357900.937   122746601.33546  23357903.094    95646710.14647
  20777934.989   109188791.17449  20777937.068    85082184.99749
  24545924.479   128989687.30946  24545927.991   100511461.06547
  21167255.499   111234674.04648  21167255.806    86676368.64549
  24493247.464   128712863.19445  24493251.150   100295748.45847
  5  2 13 16  0 35.0000000  0  8G 4G 7G 8G 9G24G26G28G29
  21381114.700   112358532.54648  21381116.606    87552107.80849
  20950463.294   110095423.84749  20950464.547    85788647.30449
  23424680.224   123097512.69847  23424684.059    95920140.75347
  23355107.055   122731919.19446  23355109.217    95635269.46947
  20776687.590   109182236.05148  20776689.677    85077077.10749
  24547989.123   129000537.08846  24547992.629   100519915.44247
  21167998.132   111238576.54548  21167998.453    86679409.53549
  24495237.517   128723320.99445  24495241.204   100303897.39347
  5  2 13 16  0 40.0000000  0  8G 4G 7G 8G 9G24G26G28G29
  21378366.325   112344089.76848  21378368.218    87540853.71249
  20951234.716   110099477.69949  20951235.969    85791806.15149
  23428294.867   123116507.80646  23428298.695    95934942.14647
  23352337.876   122717367.12346  23352340.030    95623930.20747
  20775465.926   109175816.16149  20775468.014    85072074.59849
  24550077.661   129011512.33346  24550081.153   100528467.56747
  21168765.031   111242606.62748  21168765.345    86682549.86349
  24497251.069   128733902.18645  24497254.749   100312142.46147
  5  2 13 16  0 45.0000000  0  8G 4G 7G 8G 9G24G26G28G29
  21375672.186   112329931.96948  21375674.086    87529821.66149
  20952059.333   110103811.05949  20952060.585    85795182.78549
  23431962.578   123135781.60446  23431966.414    95949960.65447
  23349622.795   122703099.34146  23349624.956    95612812.46047
  20774299.340   109169685.74449  20774301.435    85067297.65649
  24552219.383   129022767.25346  24552222.861   100537237.66047
  21169585.551   111246918.48748  21169585.872    86685909.75249
  24499317.403   128744760.72145  24499321.090   100320603.62647
  5  2 13 16  0 50.0000000  0  8G 4G 7G 8G 9G24G26G28G29
  21372915.088   112315443.29148  21372916.982    87518531.78049
  20952819.931   110107808.06348  20952821.191    85798297.33849
  23435566.119   123154718.27347  23435569.947    95964716.49047
  23346844.646   122688500.00446  23346846.812    95601436.33347
  20773070.651   109163228.93549  20773072.746    85062266.37649
  24554297.167   129033686.04746  24554300.636   100545745.80447
  21170342.514   111250896.32548  21170342.843    86689009.35849
  24501319.363   128755280.96545  24501323.050   100328801.19246
  5  2 13 16  0 55.0000000  0  8G 4G 7G 8G 9G24G26G28G29
  21370182.930   112301085.73748  21370184.825    87507344.08649
  20953604.427   110111930.61649  20953605.686    85801509.71449
  23439193.398   123173779.72346  23439197.219    95979569.56247
  23344091.270   122674031.10346  23344093.428    95590161.90547
  20771867.760   109156907.70349  20771869.864    85057340.74449
  24556398.911   129044730.69546  24556402.372   100554351.99647
  21171123.814   111255002.11549  21171124.149    86692208.67749
  24503344.797   128765924.75645  24503348.470   100337095.07547
  5  2 13 16  1  0.0000000  0  8G 4G 7G 8G 9G24G26G28G29
  21367446.463   112286705.53748  21367448.351    87496138.74549
  20954383.566   110116025.01949  20954384.825    85804700.15949
  23442815.154   123192812.08847  23442818.975    95994399.95547
  23341333.496   122659538.90646  23341335.660    95578869.27347
  20770661.400   109150568.24049  20770663.504    85052400.90449
  24558495.310   129055747.31746  24558498.764   100562936.37347
  21171900.191   111259082.03448  21171900.526    86695387.84249
  24505364.498   128776538.23345  24505368.172   100345365.29147
  5  2 13 16  1  5.0000000  0  8G 4G 7G 8G 9G24G26G28G29
  21364735.013   112272456.73748  21364736.902    87485035.78349
  20955186.638   110120245.15948  20955187.898    85807988.57349
  23446460.658   123211969.30746  23446464.479    96009327.65147
  23338600.563   122645177.30846  23338602.726    95567678.43147
  20769480.878   109144364.55349  20769482.982    85047566.86549
  24560615.675   129066889.88046  24560619.129   100571618.87947
  21172700.965   111263290.06748  21172701.301    86698666.81749
  24507407.730   128787275.42944  24507411.404   100353731.92346
  5  2 13 16  1 10.0000000  0  8G 4G 7G 8G 9G24G26G28G29
  21362019.263   112258185.34648  21362021.146    87473915.21949
  20955984.341   110124437.14848  20955985.607    85811255.05849
  23450100.684   123231097.58646  23450104.505    96024232.76447
  23335863.196   122630792.44047  23335865.364    95556469.45047
  20768296.907   109138142.74549  20768299.005    85042718.70849
  24562730.736   129078004.47146  24562734.189   100580279.57447
  21173496.830   111267472.33548  21173497.179    86701925.71349
  24509445.215   128797982.51445  24509448.887   100362075.10847
  5  2 13 16  1 15.0000000  0  8G 4G 7G 8G 9G24G26G28G29
  21359269.938   112243737.51148  21359271.828    87462657.15849
  20956747.420   110128447.12448  20956748.685    85814379.70849
  23453705.893   123250043.02446  23453709.709    96038995.43747
  23333092.136   122616230.48547  23333094.304    95545122.48647
  20767080.197   109131748.91949  20767082.309    85037736.50749
  24564811.192   129088937.18746  24564814.665   100588798.52547
  21174258.492   111271474.92648  21174258.841    86705044.62249
  24511447.697   128808505.47045  24511451.382   100370274.77147
  5  2 13 16  1 20.0000000  0  8G 4G 7G 8G 9G24G26G28G29
  21356574.959   112229575.39648  21356576.844    87451621.77149
  20957563.790   110132737.17849  20957565.049    85817722.61049
  23457364.250   123269267.66446  23457368.066    96053975.64247
  23330375.332   122601953.51947  23330377.506    95533997.56147
  20765918.700   109125645.21149  20765920.812    85032980.37349
  24566944.952   129100150.17346  24566948.420   100597535.92647
  21175073.934   111275760.01148  21175074.291    86708383.62849
  24513503.063   128819306.36745  24513506.761   100378691.01447
  5  2 13 16  1 25.0000000  0  8G 4G 7G 8G 9G24G26G28G29
  21353817.146   112215083.02148  21353819.030    87440329.01849
  20958316.236   110136691.24749  20958317.495    85820803.68949
  23460958.504   123288155.50446  23460962.320    96068693.41947
  23327595.542   122587345.56446  23327597.716    95522614.72447
  20764695.182   109119215.58049  20764697.295    85027970.27449
  24569014.812   129111027.32746  24569018.280   100606011.62647
  21175825.849   111279711.44648  21175826.199    86711462.69149
  24515494.075   128829769.20745  24515497.773   100386843.87747
  5  2 13 16  1 30.0000000  0  8G 4G 7G 8G 9G24G26G28G29
  21351113.735   112200876.44048  21351115.621    87429258.94749
  20959121.994   110140925.53049  20959123.260    85824103.13049
  23464605.918   123307322.70146  23464609.734    96083628.87648
  23324870.012   122573022.77546  23324872.186    95511454.10347
  20763526.906   109113076.25049  20763529.019    85023186.38149
  24571138.029   129122184.87846  24571141.497   100614705.81247
  21176631.598   111283945.55849  21176631.955    86714761.97149
  24517538.018   128840510.16846  24517541.715   100395213.44747
  5  2 13 16  1 35.0000000  0  8G 4G 7G 8G 9G24G26G28G29
  21348406.106   112186647.78548  21348407.985    87418171.69349
  20959922.471   110145132.09648  20959923.729    85827380.98049
  23468247.872   123326461.32947  23468251.674    96098542.10447
  23322140.153   122558677.23747  23322142.321    95500275.75847
  20762355.265   109106919.26749  20762357.379    85018388.74149
  24573255.972   129133314.80646  24573259.432   100623378.49847
  21177432.498   111288154.34648  21177432.854    86718041.55149
  24519576.297   128851221.36346  24519580.001   100403559.82347
  5  2 13 16  1 40.0000000  0  8G 4G 7G 8G 9G24G26G28G29
  21345694.331   112172397.34448  21345696.218    87407067.45949
  20960717.710   110149311.10648  20960718.968    85830637.35149
  23471884.459   123345571.53247  23471888.260    96113433.13148
  23319406.007   122544309.17147  23319408.180    95489079.84947
  20761180.306   109100744.81649  20761182.421    85013577.48449
  24575368.720   129144417.31046  24575372.179   100632029.78147
  21178228.622   111292338.00648  21178228.972    86721301.55348
  24521608.934   128861902.85346  24521612.645   100411883.03947
  5  2 13 16  1 45.0000000  0  8G 4G 7G 8G 9G24G26G28G29
  21342978.383   112158124.93848  21342980.270    87395946.10849
  20961507.680   110153462.42448  20961508.944    85833872.14249
  23475515.600   123364653.24747  23475519.402    96128301.98448
  23316667.530   122529918.50446  23316669.691    95477866.37847
  20760002.017   109094552.86749  20760004.132    85008752.58949
  24577476.220   129155492.29646  24577479.665   100640659.64347
  21179019.947   111296496.48048  21179020.297    86724541.92749
  24523635.901   128872554.63745  24523639.612   100420183.13047
  5  2 13 16  1 50.0000000  0  8G 4G 7G 8G 9G24G26G28G29
  21340287.576   112143984.61948  21340289.457    87384927.67749
  20962321.699   110157740.09649  20962322.958    85837205.39049
  23479170.630   123383860.40047  23479174.432    96143268.56547
  23313954.085   122515659.15846  23313956.252    95466755.17647
  20758849.694   109088497.36549  20758851.809    85004034.01649
  24579607.796   129166693.74146  24579611.233   100649388.02847
  21179835.786   111300783.71148  21179836.143    86727882.61649
  24525686.536   128883330.60446  24525690.254   100428579.94747
  5  2 13 16  1 55.0000000  0  8G 4G 7G 8G 9G24G26G28G29
  21337534.034   112129514.72148  21337535.915    87373652.44449
  20963071.902   110161682.43649  20963073.160    85840277.34249
  23482761.648   123402731.33047  23482765.442    96157973.18347
  23311177.733   122501069.55246  23311179.893    95455386.69947
  20757635.476   109082116.64149  20757637.591    84999062.03149
  24581675.573   129177559.95346  24581679.003   100657855.20047
  21180588.287   111304738.03848  21180588.644    86730963.88948
  24527672.905   128893769.04845  24527676.630   100436713.79247
  5  2 13 16  2  0.0000000  0  8G 4G 7G 8G 9G24G26G28G29
  21334834.957   112115330.97748  21334836.839    87362600.17849
  20963875.460   110165905.16449  20963876.718    85843567.77949
  23486405.871   123421881.75447  23486409.665    96172895.57348
  23308455.735   122486765.41646  23308457.907    95444240.62447
  20756476.553   109076026.48949  20756478.674    84994316.46049
  24583796.742   129188706.67747  24583800.163   100666540.93547
  21181394.595   111308975.24448  21181394.953    86734265.61849
  24529712.249   128904485.84246  24529715.982   100445064.53547
  5  2 13 16  2  5.0000000  0  8G 4G 7G 8G 9G24G26G28G29
  21332131.776   112101125.66748  21332133.652    87351531.11249
  20964673.818   110170100.50149  20964675.070    85846836.86449
  23490044.709   123441003.91447  23490048.495    96187795.94448
  23305729.498   122472439.00546  23305731.677    95433077.19647
  20755314.359   109069919.08549  20755316.481    84989557.44349
  24585912.724   129199826.14247  24585916.144   100675205.42847
  21182196.170   111313187.55148  21182196.534    86737547.93149
  24531745.997   128915173.13046  24531749.737   100453392.26547
  5  2 13 16  2 10.0000000  0  8G 4G 7G 8G 9G24G26G28G29
  21329424.494   112086898.83148  21329426.369    87340445.27349
  20965466.967   110174268.52448  20965468.218    85850084.67549
  23493678.168   123460097.84246  23493681.948    96202674.32448
  23302999.029   122458090.42046  23303001.201    95421896.51247
  20754148.889   109063794.53149  20754151.011    84984785.06949
  24588023.513   129210918.35247  24588026.926   100683848.69747
  21182993.035   111317375.04248  21182993.400    86740810.89949
  24533774.078   128925830.83345  24533777.819   100461696.98347
  5  2 13 16  2 15.0000000  0  8G 4G 7G 8G 9G24G26G28G29
  21326771.769   112072958.63848  21326773.645    87329582.78049
  20966313.547   110178717.33248  20966314.805    85853551.27549
  23497364.903   123479471.64247  23497368.683    96217770.76348
  23300322.978   122444027.71047  23300325.164    95410938.55447
  20753038.782   109057960.88249  20753040.898    84980239.37049
  24590187.737   129222291.39547  24590191.157   100692710.79647
  21183843.790   111321845.79048  21183844.161    86744294.59449
  24535855.223   128936767.16745  24535858.972   100470218.76947
  5  2 13 16  2 20.0000000  0  8G 4G 7G 8G 9G24G26G28G29
  21324056.373   112058689.16648  21324058.242    87318463.72049
  20967096.352   110182830.97348  20967097.604    85856756.70749
  23500987.675   123498509.33946  23500991.453    96232605.30948
  23297584.130   122429635.02847  23297586.316    95399723.49147
  20751866.845   109051802.31049  20751868.968    84975440.48149
  24592288.214   129233329.37947  24592291.634   100701311.80547
  21184631.251   111325983.89548  21184631.616    86747519.09049
  24537872.174   128947366.25144  24537875.929   100478477.78047
  5  2 13 16  2 25.0000000  0  8G 4G 7G 8G 9G24G26G28G29
  21321366.245   112044552.41948  21321368.121    87307448.06449
  20967903.306   110187071.51348  20967904.558    85860061.01649
  23504634.409   123517672.93146  23504638.194    96247537.94648
  23294870.422   122415374.39847  23294872.627    95388611.29848
  20750720.994   109045780.82049  20750723.109    84970748.41449
  24594412.828   129244494.27147  24594416.248   100710011.71747
  21185443.326   111330251.41048  21185443.698    86750844.42949
  24539912.836   128958090.00445  24539916.605   100486833.94347
  5  2 13 16  2 30.0000000  0  8G 4G 7G 8G 9G24G26G28G29
  21318672.067   112030394.47748  21318673.928    87296415.91949
  20968705.110   110191285.02148  20968706.361    85863344.26549
  23508275.803   123536808.52246  23508279.594    96262448.77748
  23292152.538   122401091.88347  23292154.750    95377482.07648
  20749571.940   109039742.50349  20749574.049    84966043.23649
  24596532.315   129255632.15946  24596535.737   100718690.57447
  21186250.728   111334494.36548  21186251.099    86754150.63349
  24541947.966   128968784.52944  24541951.735   100495167.30647
  5  2 13 16  2 35.0000000  0  8G 4G 7G 8G 9G24G26G28G29
  21315973.868   112016215.38248  21315975.730    87285367.28049
  20969501.764   110195471.46748  20969503.015    85866606.43149
  23511911.862   123555916.08147  23511915.659    96277337.76248
  23289430.514   122386787.55247  23289432.727    95366335.84648
  20748419.674   109033687.33649  20748421.783    84961324.92949
  24598646.650   129266742.99846  24598650.086   100727348.35447
  21187053.478   111338712.81148  21187053.848    86757437.72349
  24543977.510   128979449.76045  24543981.293   100503477.84847
  5  2 13 16  2 40.0000000  0  8G 4G 7G 8G 9G24G26G28G29
  21313300.966   112002169.18648  21313302.828    87274422.19149
  20970322.592   110199784.91449  20970323.844    85869967.55649
  23515571.911   123575149.76647  23515575.713    96292325.04248
  23286733.624   122372615.39047  23286735.843    95355292.62048
  20747293.528   109027769.39849  20747295.637    84956713.55249
  24600785.134   129277980.90046  24600788.570   100736105.18247
  21187880.879   111343060.80648  21187881.257    86760825.76349
  24546030.814   128990239.88344  24546034.616   100511885.70847
  5  2 13 16  2 45.0000000  0  8G 4G 7G 8G 9G24G26G28G29
  21310624.084   111988102.10848  21310625.938    87263460.83949
  20971138.308   110204071.53348  20971139.559    85873307.77349
  23519226.683   123594355.63347  23519230.486    96307290.63248
  23284032.643   122358421.67047  23284034.862    95344232.58748
  20746164.223   109021834.85849  20746166.332    84952089.23649
  24602918.536   129289191.94347  24602921.979   100744841.04447
  21188703.647   111347384.51248  21188704.025    86764194.89048
  24548078.596   129001000.89644  24548082.406   100520270.87646
  5  2 13 16  2 50.0000000  0  8G 4G 7G 8G 9G24G26G28G29
  21307943.270   111974014.30248  21307945.130    87252483.31549
  20971948.943   110208331.48048  20971950.194    85876627.22049
  23522876.194   123613533.88046  23522880.010    96322234.69848
  23281327.606   122344206.54547  23281329.826    95333155.85348
  20745031.797   109015883.92049  20745033.906    84947452.13949
  24605046.862   129300376.37446  24605050.300   100753556.19247
  21189521.847   111351684.12048  21189522.224    86767545.21849
  24550120.872   129011733.06744  24550124.701   100528633.57846
  5  2 13 16  2 55.0000000  0  8G 4G 7G 8G 9G24G26G28G29
  21305229.213   111959751.93248  21305231.066    87241369.80049
  20972725.214   110212410.77748  20972726.464    85879805.88449
  23526491.145   123632530.50946  23526494.973    96337037.24148
  23278589.170   122329816.05746  23278591.389    95321942.50348
  20743866.948   109009762.60048  20743869.049    84942682.27949
  24607140.840   129311380.14347  24607144.270   100762130.52547
  21190306.132   111355805.62848  21190306.509    86770756.79449
  24552128.324   129022282.29744  24552132.146   100536853.76046
  5  2 13 16  3  0.0000000  0  8G 4G 7G 8G 9G24G26G28G29
  21302599.154   111945930.90648  21302600.999    87230600.17949
  20973584.346   110216925.54648  20973585.596    85883323.88649
  23530188.778   123651961.57747  23530192.613    96352178.30048
  23275934.601   122315866.30147  23275936.826    95311072.57848
  20742786.910   109004086.95949  20742789.005    84938259.70749
  24609317.647   129322819.37447  24609321.072   100771044.22747
  21191173.789   111360365.19348  21191174.158    86774309.70748
  24554218.241   129033264.82345  24554222.069   100545411.55346
  5  2 13 16  3  5.0000000  0  8G 4G 7G 8G 9G24G26G28G29
  21299906.577   111931781.38248  21299908.422    87219574.58949
  20974379.821   110221105.79548  20974381.064    85886581.22649
  23533822.556   123671057.17946  23533826.391    96367057.98248
  23273217.420   122301587.41847  23273219.652    95299946.17047
  20741645.178   108998087.12048  20741647.266    84933584.51049
  24611430.828   129333924.09247  24611434.259   100779697.22047
  21191978.296   111364592.87748  21191978.666    86777603.99849
  24556244.067   129043910.61145  24556247.909   100553706.96546
  5  2 13 16  3 10.0000000  0  8G 4G 7G 8G 9G24G26G28G29
  21297239.471   111917765.64448  21297241.316    87208653.23749
  20975199.609   110225413.81249  20975200.853    85889938.12349
  23537480.446   123690279.45846  23537484.286    96382036.36048
  23270525.556   122287441.57647  23270527.794    95288923.43348
  20740529.699   108992225.27049  20740531.787    84929016.83949
  24613568.302   129345156.52947  24613571.727   100788449.76048
  21192807.588   111368950.83348  21192807.963    86780999.80049
  24558293.759   129054681.84645  24558297.613   100562100.13147
  5  2 13 16  3 15.0000000  0  8G 4G 7G 8G 9G24G26G28G29
  21294539.191   111903575.61348  21294541.036    87197596.07349
  20975985.062   110229541.39548  20975986.305    85893154.41849
  23541103.824   123709320.40947  23541107.672    96396873.45548
  23267800.379   122273120.70647  23267802.617    95277764.32048
  20739381.864   108986193.35249  20739383.951    84924316.64649
  24615671.430   129356208.57146  24615674.862   100797061.74647
  21193603.058   111373131.02848  21193603.426    86784257.09049
  24560308.729   129065270.45845  24560312.596   100570350.95946
  5  2 13 16  3 20.0000000  0  8G 4G 7G 8G 9G24G26G28G29
  21291893.685   111889673.38048  21291895.523    87186763.16949
  20976824.144   110233950.80348  20976825.394    85896590.31849
  23544780.649   123728642.19446  23544784.510    96411929.36848
  23265129.842   122259087.00047  23265132.080    95266828.97848
  20738289.623   108980453.59049  20738291.704    84919844.10649
  24617828.222   129367542.40246  24617831.661   100805893.26147
  21194452.644   111377595.66448  21194453.012    86787736.03149
  24562376.871   129076138.58545  24562380.751   100578819.61546
  5  2 13 16  3 25.0000000  0  8G 4G 7G 8G 9G24G26G28G29
  21289185.745   111875443.12548  21289187.591    87175674.67049
  20977599.654   110238026.13248  20977600.903    85899765.89549
  23548393.712   123747628.87446  23548397.579    96426724.15748
  23262396.778   122244724.59047  23262399.016    95255637.47648
  20737135.774   108974390.07049  20737137.855    84915119.28749
  24619921.407   129378542.13146  24619924.860   100814464.46547
  21195239.159   111381728.79748  21195239.527    86790956.64949
  24564380.997   129086670.36945  24564384.883   100587026.20346
  5  2 13 16  3 30.0000000  0  8G 4G 7G 8G 9G24G26G28G29
  21286532.674   111861501.11348  21286534.513    87164810.76149
  20978428.840   110242383.53748  20978430.089    85903161.27549
  23552060.256   123766896.59746  23552064.136    96441737.94047
  23259718.411   122230649.67847  23259720.649    95244670.01248
  20736037.576   108968619.00249  20736039.651    84910622.35549
  24622068.251   129389823.87347  24622071.703   100823255.43147
  21196079.860   111386146.68048  21196080.228    86794399.14649
  24566438.422   129097482.02645  24566442.328   100595450.81447
  5  2 13 16  3 35.0000000  0  8G 4G 7G 8G 9G24G26G28G29
  21283875.824   111847539.27048  21283877.662    87153931.40249
  20979253.095   110246715.02448  20979254.351    85906536.45749
  23555721.676   123786137.42746  23555725.549    96456730.78248
  23257036.130   122216554.26047  23257038.355    95233686.58848
  20734936.422   108962832.39949  20734938.489    84906113.31649
  24624210.167   129401079.65946  24624213.621   100832026.16447
  21196916.132   111390541.31448  21196916.506    86797823.53649
  24568490.426   129108265.37845  24568494.344   100603853.41547
  5  2 13 16  3 40.0000000  0  8G 4G 7G 8G 9G24G26G28G29
  21281215.267   111833558.04548  21281217.113    87143036.95849
  20980072.479   110251020.91648  20980073.734    85909891.69649
  23559378.018   123805351.60246  23559381.904    96471702.85048
  23254350.019   122202438.65047  23254352.250    95222687.40848
  20733832.361   108957030.52149  20733834.428    84901592.37049
  24626347.180   129412309.70747  24626350.641   100840776.84247
  21197748.031   111394912.97648  21197748.399    86801230.02849
  24570537.129   129119020.90945  24570541.060   100612234.34347
  5  2 13 16  3 45.0000000  0  8G 4G 7G 8G 9G24G26G28G29
  21278550.994   111819557.22448  21278552.832    87132127.23649
  20980886.973   110255301.10948  20980888.228    85913226.91049
  23563029.272   123824538.97546  23563033.158    96486654.03048
  23251660.047   122188302.78247  23251662.271    95211672.45748
  20732725.388   108951213.33749  20732727.449    84897059.50649
  24628479.300   129423514.00646  24628482.768   100849507.44947
  21198575.546   111399261.59549  21198575.927    86804618.55749
  24572578.532   129129748.42845  24572582.476   100620593.41147
  5  2 13 16  3 50.0000000  0  8G 4G 7G 8G 9G24G26G28G29
  21275912.369   111805691.15648  21275914.207    87121322.50849
  20981725.943   110259709.92949  20981727.199    85916662.35649
  23566704.799   123843853.88046  23566708.692    96501704.57447
  23248995.597   122174301.00246  23248997.822    95200761.98348
  20731644.861   108945535.12749  20731646.922    84892634.92849
  24630635.861   129434846.78146  24630639.336   100858338.17447
  21199428.046   111403741.48148  21199428.421    86808109.37549
  24574643.957   129140602.21545  24574647.915   100629050.88247
  5  2 13 16  3 55.0000000  0  8G 4G 7G 8G 9G24G26G28G29
  21273211.489   111791497.96948  21273213.327    87110262.88849
  20982501.482   110263785.41549  20982502.737    85919838.05549
  23570316.682   123862834.44946  23570320.574    96516494.62547
  23246268.763   122159971.42446  23246270.988    95189596.08448
  20730502.880   108939533.97649  20730504.934    84887958.70849
  24632728.975   129445846.14147  24632732.445   100866909.10647
  21200217.633   111407890.75948  21200218.015    86811342.56849
  24576645.490   129151120.40745  24576649.454   100637246.88147
  5  2 13 16  4  0.0000000  0  8G 4G 7G 8G 9G24G26G28G29
  21270565.602   111777593.79948  21270567.440    87099428.48549
  20983330.826   110268143.64649  20983332.087    85923234.07649
  23573982.210   123882096.77346  23573986.116    96531504.19047
  23243596.786   122145930.15147  23243599.010    95178654.84648
  20729416.691   108933826.01649  20729418.745    84883510.94649
  24634875.871   129457128.15447  24634879.348   100875700.28447
  21201061.530   111412325.50148  21201061.912    86814798.21849
  24578700.425   129161918.97345  24578704.402   100645661.29947
  5  2 13 16  4  5.0000000  0  8G 4G 7G 8G 9G24G26G28G29
  21267945.401   111763824.58148  21267947.238    87088699.22749
  20984184.687   110272630.71448  20984185.947    85926730.48849
  23577672.025   123901486.81946  23577675.932    96546613.30447
  23240950.381   122132023.16947  23240952.606    95167818.23148
  20728356.989   108928257.24448  20728359.043    84879171.64649
  24637047.281   129468538.86347  24637050.752   100884591.72347
  21201930.469   111416891.74048  21201930.858    86818356.31249
  24580779.416   129172844.02145  24580783.408   100654174.29447
  5  2 13 16  4 10.0000000  0  8G 4G 7G 8G 9G24G26G28G29
  21265292.319   111749882.57548  21265294.156    87077835.33249
  20985004.469   110276938.70149  20985005.731    85930087.36549
  23581327.566   123920696.72446  23581331.473    96561582.04147
  23238270.952   122117942.70547  23238273.170    95156846.45148
  20727265.205   108922519.87949  20727267.258    84874700.96949
  24639184.580   129479770.38646  24639188.058   100893343.54347
  21202765.841   111421281.65248  21202766.230    86821777.02249
  24582823.894   129183587.73145  24582827.892   100662545.98947
  5  2 13 16  4 15.0000000  0  8G 4G 7G 8G 9G24G26G28G29
  21262635.702   111735921.95648  21262637.532    87066956.93149
  20985819.536   110281221.87548  20985820.797    85933424.89649
  23584978.176   123939880.68246  23584982.096    96576530.54647
  23235587.860   122103842.96347  23235590.085    95145859.63648
  20726170.668   108916768.08349  20726172.716    84870219.06349
  24641317.137   129490976.95646  24641320.623   100902075.91347
  21203597.009   111425649.43848  21203597.405    86825180.48049
  24584863.188   129194304.19945  24584867.186   100670896.46447
  5  2 13 16  4 20.0000000  0  8G 4G 7G 8G 9G24G26G28G29
  21260004.857   111722096.83348  21260006.693    87056184.11849
  20986659.188   110285634.24449  20986660.455    85936863.09249
  23588653.166   123959192.82546  23588657.088    96591578.95847
  23232930.423   122089878.03547  23232932.642    95134977.88048
  20725102.722   108911155.98549  20725104.768    84865845.99649
  24643474.254   129502312.58746  24643477.740   100910908.85447
  21204453.270   111430149.18348  21204453.666    86828686.78749
  24586926.643   129205147.57345  24586930.661   100679345.80047
  5  2 13 16  4 25.0000000  0  8G 4G 7G 8G 9G24G26G28G29
  21257341.235   111708099.40848  21257343.073    87045277.03649
  20987464.845   110289868.03148  20987466.112    85940162.15149
  23592293.945   123978325.12046  23592297.873    96606487.21047
  23230240.051   122075740.06847  23230242.270    95123961.28848
  20724002.772   108905375.68249  20724004.812    84861341.85949
  24645597.342   129513469.45847  24645600.834   100919602.50847
  21205276.085   111434473.04148  21205276.480    86832056.01249
  24588955.638   129215809.91745  24588959.654   100687654.09447
  5  2 13 16  4 30.0000000  0  8G 4G 7G 8G 9G24G26G28G29
  21254703.458   111694237.82648  21254705.294    87034475.80749
  20988295.152   110294231.29549  20988296.426    85943562.08849
  23595959.147   123997585.85846  23595963.084    96621495.57347
  23227575.410   122061737.22246  23227577.630    95113049.96948
  20722929.451   108899735.37449  20722931.484    84856946.82549
  24647745.059   129524755.69147  24647748.551   100928396.95747
  21206124.061   111438929.15548  21206124.457    86835528.30549
  24591008.803   129226599.40545  24591012.820   100696061.49547
  5  2 13 16  4 35.0000000  0  8G 4G 7G 8G 9G24G26G28G29
  21252062.243   111680358.20948  21252064.086    87023660.52949
  20989120.806   110298570.13448  20989122.073    85946943.00649
  23599619.498   124016821.06746  23599623.435    96636484.03647
  23224907.162   122047715.58046  23224909.375    95102124.03648
  20721853.492   108894081.13749  20721855.526    84852540.92349
  24649888.095   129536017.36147  24649891.589   100937172.27648
  21206967.894   111443363.58748  21206968.288    86838983.71649
  24593056.902   129237362.11145  24593060.925   100704447.98847
  5  2 13 16  4 40.0000000  0  8G 4G 7G 8G 9G24G26G28G29
  21249417.597   111666460.50248  21249419.439    87012831.14549
  20989941.818   110302884.64549  20989943.092    85950304.97049
  23603274.990   124036030.74646  23603278.940    96651452.59447
  23222235.386   122033675.29846  23222237.605    95091183.55348
  20720774.884   108888413.07949  20720776.917    84848124.26249
  24652026.479   129547254.52147  24652029.974   100945928.47847
  21207807.641   111447776.45748  21207808.036    86842422.31149
  24595099.888   129248098.04645  24595103.910   100712813.63847
  5  2 13 16  4 45.0000000  0  8G 4G 7G 8G 9G24G26G28G29
  21246828.158   111652852.97348  21246830.000    87002227.88849
  20990816.838   110307482.87449  20990818.112    85953888.00049
  23606984.306   124055523.08646  23606988.264    96666641.37447
  23219618.668   122019924.35546  23219620.881    95080468.53748
  20719752.281   108883039.26449  20719754.308    84843936.87949
  24654218.800   129558775.24447  24654222.282   100954905.67547
  21208701.900   111452475.82048  21208702.295    86846084.15249
  24597196.405   129259115.31946  24597200.421   100721398.53147
  5  2 13 16  4 50.0000000  0  8G 4G 7G 8G 9G24G26G28G29
  21244176.770   111638919.83348  21244178.619    86991370.89149
  20991628.694   110311749.14548  20991629.974    85957212.34849
  23610630.195   124074682.36245  23610634.153    96681570.67947
  23216939.871   122005847.17947  23216942.076    95069499.31048
  20718668.515   108877344.00049  20718670.541    84839499.00449
  24656347.914   129569963.78547  24656351.390   100963624.01748
  21209533.514   111456845.98448  21209533.909    86849489.47249
  24599229.332   129269798.23445  24599233.361   100729722.83047
  5  2 13 16  4 55.0000000  0  8G 4G 7G 8G 9G24G26G28G29
  21241522.077   111624969.36048  21241523.926    86980500.40049
  20992436.017   110315991.65548  20992437.297    85960518.20049
  23614271.363   124093816.69946  23614275.328    96696480.52547
  23214257.620   121991751.91846  23214259.831    95058515.99748
  20717582.213   108871635.47549  20717584.231    84835050.81049
  24658472.488   129581128.36746  24658475.969   100972323.65947
  21210361.144   111461195.17648  21210361.539    86852878.44749
  24601257.239   129280454.95446  24601261.272   100738026.75747
  5  2 13 16  5  0.0000000  0  8G 4G 7G 8G 9G24G26G28G29
  21238893.385   111611155.58448  21238895.233    86969736.43749
  20993268.120   110320364.47848  20993269.399    85963925.61449
  23617937.085   124113080.23045  23617941.057    96711491.07346
  23211601.268   121977792.72946  23211603.480    95047638.71548
  20716522.730   108866067.82449  20716524.742    84830712.37949
  24660621.803   129592423.06346  24660625.278   100981124.71947
  21211214.110   111465677.51048  21211214.498    86856371.17349
  24603309.474   129291239.55746  24603313.500   100746430.35047
  5  2 13 16  5  5.0000000  0  8G 4G 7G 8G 9G24G26G28G29
  21236261.479   111597324.75948  21236263.333    86958959.15249
  20994095.792   110324713.83148  20994097.071    85967314.69849
  23621598.143   124132319.09545  23621602.129    96726482.36547
  23208941.537   121963815.80747  23208943.754    95036747.61648
  20715460.772   108860487.22849  20715462.784    84826363.86949
  24662766.605   129603694.01147  24662770.094   100989907.25547
  21212063.143   111470139.17948  21212063.532    86859847.79349
  24605356.799   129301998.26046  24605360.837   100754813.72947
  5  2 13 16  5 10.0000000  0  8G 4G 7G 8G 9G24G26G28G29
  21233684.935   111583785.02248  21233686.789    86948408.72949
  20994977.601   110329347.76748  20994978.880    85970925.55749
  23625313.129   124151841.38845  23625317.122    96741694.51647
  23206337.060   121950129.22047  23206339.277    95026082.74848
  20714454.997   108855201.81848  20714457.011    84822245.36549
  24664965.512   129615249.34846  24664968.994   100998911.41447
  21212966.877   111474888.23648  21212967.279    86863548.33149
  24607457.783   129313039.09846  24607461.827   100763416.99147
  5  2 13 16  5 15.0000000  0  8G 4G 7G 8G 9G24G26G28G29
  21231046.594   111569920.51048  21231048.455    86937605.22249
  20995796.383   110333650.52849  20995797.669    85974278.36149
  23628964.879   124171031.36745  23628968.892    96756647.71546
  23203670.655   121936117.23047  23203672.874    95015164.33348
  20713388.189   108849595.73249  20713390.201    84817876.99049
  24667101.365   129626473.23547  24667104.859   101007657.27047
  21213808.112   111479308.95848  21213808.515    86866993.05149
  24609495.309   129323746.27546  24609499.365   100771760.21547
  5  2 13 16  5 20.0000000  0  8G 4G 7G 8G 9G24G26G28G29
  21228434.382   111556193.27448  21228436.243    86926908.68449
  20996640.065   110338084.04348  20996641.357    85977733.03149
  23632641.270   124190350.93145  23632645.290    96771701.91846
  23201030.246   121922241.79047  23201032.473    95004352.30148
  20712348.289   108844131.02349  20712350.295    84813618.78049
  24669262.039   129637827.65346  24669265.534   101016504.87147
  21214674.770   111483863.27548  21214675.172    86870541.86649
  24611557.231   129334581.77946  24611561.287   100780203.47047
  5  2 13 16  5 25.0000000  0  8G 4G 7G 8G 9G24G26G28G29
  21225789.721   111542295.52148  21225791.589    86916079.26549
  20997450.051   110342340.54948  20997451.344    85981049.79149
  23636283.775   124209492.33145  23636287.802    96786617.27046
  23198357.253   121908195.17847  23198359.479    94993406.90348
  20711276.729   108838499.90449  20711278.735    84809230.89149
  24671388.997   129649004.83246  24671392.491   101025214.34447
  21215508.282   111488243.44348  21215508.685    86873954.99249
  24613585.031   129345237.81846  24613589.093   100788506.84247
  5  2 13 16  5 30.0000000  0  8G 4G 7G 8G 9G24G26G28G29
  21223200.556   111528689.39748  21223202.424    86905477.09849
  20998314.283   110346882.11948  20998315.576    85984588.67749
  23639980.306   124228917.73445  23639984.332    96801753.94246
  23195739.623   121894439.46847  23195741.849    94982688.17648
  20710261.430   108833164.50248  20710263.436    84805073.44349
  24673570.141   129660466.85146  24673573.642   101034145.79148
  21216396.601   111492911.52748  21216397.003    86877592.44549
  24615666.592   129356176.46146  24615670.668   100797030.44747
  5  2 13 16  5 35.0000000  0  8G 4G 7G 8G 9G24G26G28G29
  21220578.981   111514912.99148  21220580.849    86894742.25249
  20999144.860   110351246.86248  20999146.160    85987989.77849
  23643642.977   124248164.98145  23643647.016    96816751.74146
  23193089.446   121880512.75747  23193091.686    94971836.20148
  20709214.505   108827662.84649  20709216.514    84800786.43749
  24675717.589   129671751.73947  24675721.097   101042939.20048
  21217251.798   111497405.65348  21217252.201    86881094.36949
  24617714.038   129366935.76946  24617718.119   100805414.29447
  5  2 13 16  5 40.0000000  0  8G 4G 7G 8G 9G24G26G28G29
  21217954.344   111501120.40048  21217956.220    86883994.77349
  20999971.122   110355588.89648  20999972.421    85991373.18049
  23647301.053   124267388.36145  23647305.092    96831731.01246
  23190436.065   121866569.23947  23190438.306    94960971.14748
  20708165.287   108822149.13349  20708167.295    84796490.03349
  24677860.656   129683013.65947  24677864.171   101051714.72948
  21218103.241   111501879.95249  21218103.644    86884580.82249
  24619756.704   129377669.89346  24619760.793   100813778.51347
  5  2 13 16  5 45.0000000  0  8G 4G 7G 8G 9G24G26G28G29
  21215355.943   111487465.77048  21215357.826    86873354.81549
  21000822.396   110360062.34248  21000823.703    85994858.97249
  23650983.955   124286741.86345  23650988.014    96846811.58846
  23187808.823   121852762.95948  23187811.065    94950213.00348
  20707143.081   108816777.43649  20707145.090    84792304.30249
  24680028.691   129694406.66846  24680032.220   101060592.37147
  21218980.218   111506488.49748  21218980.614    86888171.89849
  24621823.869   129388532.89146  24621827.965   100822243.17547
  5  2 13 16  5 50.0000000  0  8G 4G 7G 8G 9G24G26G28G29
  21212754.563   111473795.45648  21212756.447    86862702.63149
  21001669.422   110364513.46248  21001670.730    85998327.37549
  23654662.312   124306071.82145  23654666.370    96861873.90646
  23185178.461   121838940.28147  23185180.704    94939442.08248
  20706118.653   108811394.06249  20706120.661    84788109.47049
  24682192.422   129705777.05546  24682195.958   101069452.38947
  21219853.517   111511077.64948  21219853.913    86891747.85049
  24623886.353   129399371.15846  24623890.448   100830688.54347
  5  2 13 16  5 55.0000000  0  8G 4G 7G 8G 9G24G26G28G29
  21210120.884   111459955.32148  21210122.770    86851918.10249
  21002482.865   110368788.13348  21002484.172    86001658.28649
  23658306.882   124325224.07345  23658310.940    96876797.71646
  23182515.637   121824947.04847  23182517.881    94928538.27148
  20705062.679   108805844.88048  20705064.694    84783785.43049
  24684322.507   129716970.66846  24684326.043   101078174.67147
  21220693.778   111515493.28248  21220694.173    86895188.60849
  24625914.755   129410030.36146  24625918.856   100838994.38047
  5  2 13 16  6  0.0000000  0  8G 4G 7G 8G 9G24G26G28G29
  21207542.809   111446407.44548  21207544.694    86841361.31549
  21003350.649   110373348.43348  21003351.963    86005211.77549
  23662005.586   124344660.79845  23662009.651    96891943.19246
  23179908.304   121811245.45447  23179910.548    94917861.70848
  20704063.090   108800592.04048  20704065.105    84779692.31349
  24686506.906   129728449.66546  24686510.449   101087119.32147
  21221588.961   111520197.47348  21221589.350    86898854.20849
  24627997.025   129420972.76246  24628001.126   100847520.92647
  5  2 13 16  6  5.0000000  0  8G 4G 7G 8G 9G24G26G28G29
  21204961.812   111432844.30648  21204963.698    86830792.66049
  21004214.294   110377886.82148  21004215.608    86008748.16349
  23665699.884   124364074.40244  23665703.936    96907070.67346
  23177297.928   121797527.86447  23177300.172    94907172.68748
  20703061.368   108795327.92349  20703063.391    84775590.39649
  24688687.066   129739906.42446  24688690.610   101096046.65348
  21222480.522   111524882.62648  21222480.912    86902504.97249
  24630074.629   129431890.61446  24630078.730   100856028.33747
  5  2 13 16  6 10.0000000  0  8G 4G 7G 8G 9G24G26G28G29
  21202319.290   111418957.79348  21202321.184    86819972.00649
  21005015.107   110382095.18948  21005016.427    86012027.41849
  23669331.139   124383156.68244  23669335.198    96921939.96046
  23174625.891   121783486.21847  23174628.137    94896231.15048
  20701998.873   108789744.50349  20702000.895    84771239.68549
  24690804.359   129751032.80846  24690807.910   101104716.55047
  21223309.845   111529240.74648  21223310.234    86905900.90949
  24632088.977   129442475.92846  24632093.086   100864276.59847
  5  2 13 16  6 15.0000000  0  8G 4G 7G 8G 9G24G26G28G29
  21199761.824   111405518.21848  21199763.718    86809499.61249
  21005899.704   110386743.74248  21005901.031    86015649.66049
  23673045.978   124402678.01644  23673050.065    96937151.31346
  23172038.777   121769890.77647  23172041.023    94885637.28648
  20701022.178   108784611.93648  20701024.200    84767240.28149
  24693005.353   129762599.05246  24693008.905   101113729.19747
  21224223.503   111534041.98748  21224223.892    86909642.12149
  24634186.604   129453498.96946  24634190.719   100872865.96347
  5  2 13 16  6 20.0000000  0  8G 4G 7G 8G 9G24G26G28G29
  21197172.140   111391909.33648  21197174.040    86798895.28249
  21006750.818   110391216.34748  21006752.146    86019134.80049
  23676726.997   124422022.05444  23676731.077    96952224.62845
  23169419.308   121756125.40847  23169421.548    94874911.03548
  20700014.039   108779314.13348  20700016.062    84763112.12449
  24695172.782   129773989.02946  24695176.334   101122604.51747
  21225104.227   111538670.22448  21225104.610    86913248.54649
  24636250.279   129464343.52647  24636254.401   100881316.23947
  5  2 13 16  6 25.0000000  0  9G 2G 4G 7G 8G 9G24G26G28G29
  24614106.888   129348013.66155         0.000           0.00040
  21194579.603   111378285.46348  21194581.497    86788279.28249
  21007597.809   110395667.28648  21007599.144    86022603.05349
  23680403.709   124441343.18244  23680407.803    96967280.01745
  23166796.850   121742344.32847  23166799.090    94864172.54248
  20699003.807   108774005.35548  20699005.835    84758975.41649
  24697336.034   129785356.90046  24697339.598   101131462.56647
  21225981.392   111543279.72848  21225981.783    86916840.35849
  24638309.301   129475163.70247  24638313.430   100889747.52547
  5  2 13 16  6 30.0000000  0  9G 2G 4G 7G 8G 9G24G26G28G29
  24610484.428   129328980.03645         0.000           0.00040
  21191984.246   111364646.76948  21191986.141    86777651.73149
  21008440.673   110400096.56248  21008442.014    86026054.43549
  23684076.067   124460641.43044  23684080.167    96982317.58045
  23164171.438   121728547.69647  23164173.685    94853421.91648
  20697991.502   108768685.65748  20697993.530    84754830.19649
  24699495.092   129796702.86146  24699498.657   101140303.58247
  21226855.012   111547870.59848  21226855.395    86920417.65749
  24640363.729   129485959.76047  24640367.858   100898160.03147
  5  2 13 16  6 35.0000000  0  9G 2G 4G 7G 8G 9G24G26G28G29
  24606857.231   129309920.67845         0.000           0.00040
  21189386.077   111350993.32948  21189387.970    86767012.69049
  21009279.457   110404504.40348  21009280.797    86029489.11149
  23687744.090   124479916.96044  23687748.191    96997337.46145
  23161543.080   121714735.67247  23161545.320    94842659.32648
  20696977.156   108763355.26648  20696979.191    84750676.64649
  24701650.041   129808027.00546  24701653.620   101149127.54347
  21227725.107   111552442.94948  21227725.492    86923980.52549
  24642413.600   129496731.81347  24642417.736   100906553.81348
  5  2 13 16  6 40.0000000  0  9G 2G 4G 7G 8G 9G24G26G28G29
  24603283.857   129291143.77945         0.000           0.00040
  21186843.752   111337633.32048  21186845.632    86756602.30249
  21010172.795   110409198.92548  21010174.136    86033147.18549
  23691466.425   124499477.80244  23691470.526    97012579.64345
  23158970.461   121701216.40647  23158972.716    94832124.81548
  20696019.412   108758322.28749  20696021.447    84746754.84649
  24703859.421   129819637.40546  24703862.992   101158174.61747
  21228650.338   111557304.97848  21228650.731    86927769.09949
  24644517.553   129507787.94147  24644521.689   100915168.93448
  5  2 13 16  6 45.0000000  0  9G 2G 4G 7G 8G 9G24G26G28G29
  24599617.838   129271879.37545         0.000           0.00040
  21184210.755   111323796.82848  21184212.634    86745820.61749
  21010974.170   110413410.17848  21010975.517    86036428.67649
  23695096.542   124518554.16844  23695100.635    97027444.33645
  23156307.030   121687219.98047  23156309.278    94821218.51648
  20694971.756   108752816.78549  20694973.791    84742464.83749
  24705976.785   129830764.16546  24705980.350   101166844.81147
  21229484.158   111561686.73048  21229484.551    86931183.45449
  24646529.009   129518358.15247  24646533.152   100923405.44547
  5  2 13 16  6 50.0000000  0  9G 2G 4G 7G 8G 9G24G26G28G29
  24596005.699   129252897.61345         0.000           0.00040
  21181633.632   111310253.95448  21181635.511    86735267.72949
  21011830.115   110417908.20348  21011831.463    86039933.62949
  23698781.018   124537915.93544  23698785.130    97042531.35245
  23153699.330   121673516.49147  23153701.579    94810540.48648
  20693980.716   108747608.87049  20693982.751    84738406.72749
  24708148.624   129842177.28646  24708152.188   101175738.15847
  21230373.131   111566358.31348  21230373.531    86934823.64649
  24648594.576   129529212.62346  24648598.719   100931863.43847
  5  2 13 16  6 55.0000000  0  9G 2G 4G 7G 8G 9G24G26G28G29
  24592388.742   129233890.53545         0.000           0.00040
  21179053.794   111296696.81749  21179055.667    86724703.72849
  21012682.046   110422385.12748  21012683.394    86043422.14549
  23702461.152   124557255.26344  23702465.244    97057600.98945
  23151088.782   121659798.00047  23151091.024    94799850.76348
  20692987.705   108742390.59348  20692989.747    84734340.54149
  24710316.404   129853568.89346  24710319.976   101184614.70047
  21231258.660   111571011.79848  21231259.060    86938449.74149
  24650655.597   129540043.36247  24650659.740   100940302.97447
  5  2 13 16  7  0.0000000  0  9G 2G 4G 7G 8G 9G24G26G28G29
  24588796.312   129215012.37545         0.000           0.00040
  21176500.550   111283279.52248  21176502.415    86714248.71449
  21013559.304   110426995.11948  21013560.659    86047014.33549
  23706166.395   124576726.38544  23706170.474    97072773.28845
  23148504.725   121646218.71848  23148506.975    94789269.51148
  20692022.074   108737316.16349  20692024.108    84730386.44249
  24712509.386   129865093.12146  24712512.965   101193594.62147
  21232170.088   111575801.35548  21232170.490    86942181.86349
  24652741.460   129551004.58147  24652745.602   100948844.16947
  5  2 13 16  7  5.0000000  0  9G 2G 4G 7G 8G 9G24G26G28G29
  24585199.152   129196109.13845         0.000           0.00040
  21173944.654   111269848.19748  21173946.519    86703782.74749
  21014432.576   110431584.19448  21014433.930    86050590.23649
  23709867.452   124596175.32444  23709871.538    97087928.24545
  23145917.865   121632624.70747  23145920.114    94778676.78248
  20691054.525   108732231.66448  20691056.567    84726424.49249
  24714698.338   129876596.01846  24714701.923   101202557.88547
  21233078.122   111580573.04448  21233078.531    86945900.04649
  24654822.843   129561942.23047  24654826.992   100957366.98947
  5  2 13 16  7 10.0000000  0  9G 2G 4G 7G 8G 9G24G26G28G29
  24581567.928   129177027.08346         0.000           0.00040
  21171356.828   111256249.08148  21171358.687    86693186.03749
  21015272.596   110435998.59148  21015273.957    86054030.03749
  23713534.990   124615448.20943  23713539.076    97102946.04144
  23143298.959   121618862.20047  23143301.208    94767952.73648
  20690055.785   108726983.24749  20690057.820    84722334.82049
  24716853.938   129887923.80446  24716857.524   101211384.73947
  21233953.484   111585173.07048  21233953.894    86949484.47749
  24656870.471   129572702.55447  24656874.621   100965751.65547
  5  2 13 16  7 15.0000000  0  9G 2G 4G 7G 8G 9G24G26G28G29
  24577931.975   129157920.21045         0.000           0.00040
  21168766.361   111242636.14648  21168768.212    86682578.56949
  21016108.706   110440392.28648  21016110.068    86057453.67549
  23717198.286   124634699.08143  23717202.350    97117946.75544
  23140677.275   121605085.22148  23140679.518    94757217.44848
  20689055.165   108721724.95448  20689057.199    84718237.44649
  24719005.528   129899230.51546  24719009.112   101220195.16747
  21234825.481   111589755.44448  21234825.892    86953055.16349
  24658913.671   129583439.55147  24658917.843   100974118.11847
  5  2 13 16  7 20.0000000  0  8G 2G 4G 7G 9G24G26G28G29
  24574320.637   129138942.65646         0.000           0.00040
  21166202.614   111229163.53648  21166204.478    86672080.41649
  21016970.182   110444919.37448  21016971.544    86060981.27649
  23138082.162   121591447.87547  23138084.405    94746590.95748
  20688081.991   108716610.92048  20688084.024    84714252.48849
  24721182.439   129910670.19646  24721186.031   101229109.19247
  21235723.459   111594474.32148  21235723.870    86956732.20449
  24660981.745   129594307.35447  24660985.918   100982586.54047
  5  2 13 16  7 25.0000000  0  8G 2G 4G 7G 9G24G26G28G29
  24570733.969   129120094.68446         0.000           0.00040
  21163665.609   111215831.51248  21163667.466    86661691.83549
  21017857.096   110449580.13848  21017858.458    86064613.04249
  23135513.703   121577950.43848  23135515.941    94736073.46148
  20687136.317   108711641.37149  20687138.350    84710380.11249
  24723384.704   129922243.05146  24723388.303   101238126.97247
  21236647.452   111599329.93548  21236647.863    86960515.80149
  24663074.734   129605306.05347  24663078.908   100991156.95347
  5  2 13 16  7 30.0000000  0  8G 2G 4G 7G 9G24G26G28G29
  24567084.056   129100914.29146         0.000           0.00040
  21161067.459   111202178.11548  21161069.317    86651052.81849
  21018681.518   110453912.53749  21018682.880    86067988.94349
  23132883.923   121564130.87948  23132886.161    94725304.98448
  20686130.223   108706354.31149  20686132.256    84706260.32449
  24725524.382   129933487.04646  24725527.990   101246888.50747
  21237509.553   111603860.24548  21237509.965    86964045.90349
  24665104.756   129615973.82747  24665108.937   100999469.49147
  5  2 13 16  7 35.0000000  0  9G 2G 4G 7G 8G 9G24G26G28G29
  24563488.154   129082017.79446         0.000           0.00040
  21158525.395   111188819.60248  21158527.246    86640643.61849
  21019560.750   110458532.86848  21019562.112    86071589.18849
  23731957.266   124712254.76653         0.000           0.00040
  23130310.135   121550605.50448  23130312.367    94714765.72848
  20685180.992   108701366.06849  20685183.024    84702373.37949
  24727718.763   129945018.53446  24727722.371   101255874.06647
  21238427.040   111608681.58148  21238427.447    86967802.77349
  24667189.091   129626926.83447  24667193.287   101008004.24447
  5  2 13 16  7 40.0000000  0  8G 2G 4G 7G 9G24G26G28G29
  24559858.327   129062943.05046         0.000           0.00040
  21155951.553   111175293.84448  21155953.410    86630104.03548
  21020406.836   110462979.04748  21020408.197    86075053.73549
  23127704.402   121536912.25148  23127706.635    94704095.65948
  20684200.678   108696214.48248  20684202.711    84698359.15849
  24729879.903   129956375.36746  24729883.517   101264723.53747
  21239311.950   111613331.87548  21239312.363    86971426.39049
  24669239.724   129637702.98346  24669243.921   101016401.24847
  5  2 13 16  7 45.0000000  0  8G 2G 4G 7G 9G24G26G28G29
  24556253.225   129043998.32646         0.000           0.00040
  21153404.501   111161909.09248  21153406.351    86619674.38049
  21021278.416   110467559.20148  21021279.785    86078622.67849
  23125125.371   121523359.38647  23125127.606    94693534.99848
  20683247.938   108691207.79949  20683249.963    84694457.84849
  24732066.437   129967865.64946  24732070.059   101273676.99647
  21240222.963   111618119.28048  21240223.370    86975156.84249
  24671315.340   129648610.42047  24671319.544   101024900.54647
  5  2 13 16  7 50.0000000  0  8G 2G 4G 7G 9G24G26G28G29
  24552672.895   129025183.69546         0.000           0.00040
  21150884.325   111148665.47848  21150886.175    86609354.67948
  21022175.516   110472273.49648  21022176.885    86082296.15249
  23122573.072   121509946.93348  23122575.315    94683083.73248
  20682322.790   108686346.14549  20682324.821    84690669.54749
  24734278.394   129979489.62446  24734282.022   101282734.64847
  21241160.098   111623043.92748  21241160.505    86978994.22249
  24673415.980   129659649.32347  24673420.192   101033502.28447
  5  2 13 16  7 55.0000000  0  8G 2G 4G 7G 9G24G26G28G29
  24549029.447   129006037.40346         0.000           0.00040
  21148303.101   111135101.17648  21148304.943    86598785.12149
  21023010.250   110476660.11449  21023011.618    86085714.31049
  23119959.621   121496213.12247  23119961.859    94672382.06648
  20681337.363   108681167.66149  20681339.388    84686634.36049
  24736427.898   129990785.28046  24736431.527   101291536.44747
  21242035.463   111627643.97249  21242035.871    86982578.66749
  24675453.764   129670357.76246  24675457.996   101041846.47147
  5  2 13 16  8  0.0000000  0  8G 2G 4G 7G 9G24G26G28G29
  24545440.143   128987175.60446         0.000           0.00040
  21145778.148   111121832.39548  21145779.995    86588445.79149
  21023899.892   110481335.18148  21023901.260    86089357.21249
  23117402.261   121482774.13447  23117404.499    94661910.13548
  20680408.889   108676288.53148  20680410.913    84682832.44249
  24738632.208   130002368.94746  24738635.850   101300562.65947
  21242966.322   111632535.63848  21242966.744    86986390.34249
  24677545.898   129681352.00146  24677550.131   101050413.41247
  5  2 13 16  8  5.0000000  0  8G 2G 4G 7G 9G24G26G28G29
  24541817.074   128968136.40646         0.000           0.00040
  21143221.527   111108397.23148  21143223.367    86577976.82648
  21024756.527   110485836.79848  21024757.895    86092864.95849
  23114813.118   121469168.06748  23114815.359    94651308.00948
  20679449.498   108671246.89649  20679451.522    84678903.89849
  24740803.393   130013778.63546  24740807.041   101309453.32347
  21243864.759   111637256.98849  21243865.175    86990069.32849
  24679604.537   129692170.12846  24679608.783   101058843.09247
  5  2 13 16  8 10.0000000  0  8G 2G 4G 7G 9G24G26G28G29
  24538189.590   128949074.03447         0.000           0.00040
  21140662.583   111094949.98248  21140664.415    86567498.47149
  21025609.488   110490319.16848  21025610.855    86096357.71949
  23112221.539   121455549.19648  23112223.774    94640695.90248
  20678488.525   108666196.94949  20678490.542    84674968.87649
  24742970.840   130025168.55146  24742974.508   101318328.55047
  21244760.151   111641962.30349  21244760.567    86993735.80949
  24681658.949   129702966.22946  24681663.202   101067255.65647
  5  2 13 16  8 15.0000000  0  8G 2G 4G 7G 9G24G26G28G29
  24534616.341   128930296.57847         0.000           0.00040
  21138159.950   111081798.61948  21138161.781    86557250.66648
  21026517.422   110495090.36549  21026518.796    86100075.52249
  23109686.112   121442225.53148  23109688.348    94630313.85048
  20677584.583   108661446.73049  20677586.599    84671267.41249
  24745193.135   130036846.72846  24745196.803   101327428.41547
  21245711.107   111646959.54848  21245711.530    86997629.75049
  24683767.851   129714048.39846  24683772.124   101075891.06047
  5  2 13 16  8 20.0000000  0  8G 2G 4G 7G 9G24G26G28G29
  24530980.103   128911188.11647         0.000           0.00040
  21135596.448   111068327.26348  21135598.279    86546753.49049
  21027363.108   110499534.47648  21027364.475    86103538.46849
  23107089.680   121428581.18548  23107091.917    94619681.89948
  20676620.485   108656380.36149  20676622.500    84667319.58949
  24747353.075   130048197.22346  24747356.750   101336272.94247
  21246600.416   111651632.86648  21246600.839    87001271.29149
  24685813.934   129724800.69946  24685818.208   101084269.49147
  5  2 13 16  8 25.0000000  0  8G 2G 4G 7G 9G24G26G28G29
  24527339.512   128892056.74147         0.000           0.00040
  21133030.657   111054844.00648  21133032.480    86536247.06448
  21028205.176   110503959.50749  21028206.549    86106986.52749
  23104490.878   121414924.29948  23104493.124    94609040.14948
  20675654.847   108651305.89949  20675656.862    84663365.46249
  24749509.291   130059528.15246  24749512.973   101345102.21947
  21247486.701   111656290.32848  21247487.132    87004900.48149
  24687855.912   129735531.27446  24687860.192   101092630.95247
  5  2 13 16  8 30.0000000  0  8G 2G 4G 7G 9G24G26G28G29
  24523752.804   128873210.55747  24523755.181   100420678.14457
  21130521.244   111041656.97948  21130523.066    86525971.46649
  21029102.237   110508673.62748  21029103.609    86110659.87049
  23101948.272   121401562.87447  23101950.511    94598628.66948
  20674746.305   108646531.48149  20674748.321    84659645.13849
  24751720.412   130071147.58146  24751724.094   101354156.29847
  21248428.616   111661240.06148  21248429.055    87008757.40449
  24689952.394   129746548.17246  24689956.688   101101215.50347
  5  2 13 16  8 35.0000000  0  8G 2G 4G 7G 9G24G26G28G29
  24520162.098   128854341.80047  24520164.222   100405975.23747
  21128009.633   111028458.37948  21128011.448    86515686.84149
  21029995.744   110513369.03649  21029997.109    86114318.63549
  23099403.356   121388189.24947  23099405.596    94588207.66948
  20673836.277   108641749.28249  20673838.299    84655918.75149
  24753927.850   130082747.71146  24753931.531   101363195.35147
  21249367.573   111666174.24948  21249368.018    87012602.21049
  24692044.743   129757543.50846  24692049.044   101109783.28747
  5  2 13 16  8 40.0000000  0  8G 2G 4G 7G 9G24G26G28G29
  24516537.874   128835296.59347  24516539.709   100391134.86747
  21125466.553   111015094.40248  21125468.367    86505273.34848
  21030856.412   110517891.84649  21030857.785    86117842.89349
  23096826.811   121374649.47947  23096829.053    94577657.21848
  20672895.490   108636805.41249  20672897.505    84652066.38549
  24756102.326   130094174.63146  24756106.015   101372099.43847
  21250274.264   111670939.00649  21250274.709    87016315.02049
  24694103.728   129768363.48747  24694108.030   101118214.42847
  5  2 13 16  8 45.0000000  0  8G 2G 4G 7G 9G24G26G28G29
  24512938.687   128816382.99147  24512940.306   100376397.00747
  21122950.577   111001872.91948  21122952.382    86494970.90549
  21031742.828   110522550.02849  21031744.200    86121472.64849
  23094277.295   121361251.68247  23094279.544    94567217.37548
  20671982.568   108632007.97449  20671984.582    84648328.12149
  24758302.442   130105736.28646  24758306.131   101381108.51547
  21251207.360   111675842.39548  21251207.813    87020135.82949
  24696187.947   129779316.06947  24696192.256   101126748.89247
  5  2 13 16  8 50.0000000  0  8G 2G 4G 7G 9G24G26G28G29
  24509276.600   128797138.96647  24509278.031   100361401.70047
  21120373.860   110988332.18048  21120375.664    86484419.67749
  21032567.104   110526881.62449  21032568.469    86124847.92349
  23091666.860   121347533.78447  23091669.111    94556528.11648
  20671009.588   108626894.93148  20671011.602    84644343.93149
  24760440.299   130116970.76946  24760443.988   101389862.65047
  21252078.909   111680422.38448  21252079.369    87023704.64549
  24698209.477   129789939.28247  24698213.795   101135026.72347
  5  2 13 16  8 55.0000000  0  8G 2G 4G 7G 9G24G26G28G29
  24505668.981   128778180.80247  24505670.204   100346629.12347
  21117853.619   110975088.25748  21117855.416    86474099.74449
  21033446.521   110531502.90149  21033447.894    86128448.89549
  23089112.801   121334112.11248  23089115.052    94546069.67348
  20670093.815   108622082.54448  20670095.829    84640594.02349
  24762633.155   130128494.33946  24762636.858   101398842.05247
  21253006.181   111685295.26248  21253006.641    87027501.69849
  24700285.609   129800849.30446  24700289.934   101143528.00947
  5  2 13 16  9  0.0000000  0  8G 2G 4G 7G 9G24G26G28G29
  24502057.108   128759200.43747  24502058.172   100331839.27247
  21115331.243   110961833.08348  21115333.033    86463771.03749
  21034322.393   110536105.69949  21034323.765    86132035.50349
  23086556.482   121320678.59648  23086558.727    94535602.01248
  20669176.647   108617262.76149  20669178.661    84636838.34349
  24764822.407   130139998.83846  24764826.109   101407806.57847
  21253930.581   111690152.98948  21253931.042    87031286.93649
  24702357.670   129811738.05847  24702362.002   101152012.75347
  5  2 13 16  9  5.0000000  0  8G 2G 4G 7G 9G24G26G28G29
  24498441.070   128740198.18847  24498442.064   100317032.34948
  21112806.806   110948567.10748  21112808.595    86453433.91949
  21035194.839   110540690.37548  21035196.211    86135607.96249
  23083997.969   121307233.49048  23084000.223    94525125.30248
  20668258.127   108612435.90649  20668260.141    84633077.15649
  24767008.071   130151484.58246  24767011.780   101416756.50347
  21254852.149   111694995.79748  21254852.617    87035060.53849
  24704425.790   129822605.91346  24704430.129   101160481.16847
  5  2 13 16  9 10.0000000  0  8G 2G 4G 7G 9G24G26G28G29
  24494850.132   128721327.99347  24494851.073   100302328.34248
  21110309.597   110935444.21848  21110311.379    86443208.29949
  21036093.112   110545410.83049  21036094.477    86139286.24149
  23081466.542   121293930.78347  23081468.790    94514759.57248
  20667367.547   108607755.87549  20667369.553    84629430.37949
  24769219.452   130163105.43546  24769223.175   101425811.70147
  21255800.162   111699977.67248  21255800.630    87038942.52149
  24706519.188   129833606.69846  24706523.527   101169053.18747
  5  2 13 16  9 15.0000000  0  8G 2G 4G 7G 9G24G26G28G29
  24491255.080   128702436.08447  24491255.978   100287607.40447
  21107810.342   110922310.63648  21107812.123    86432974.35649
  21036987.960   110550113.25448  21036989.331    86142950.45649
  23078932.976   121280616.73948  23078935.225    94504384.98148
  20666475.655   108603068.92149  20666477.662    84625778.20449
  24771427.312   130174707.66146  24771431.041   101434852.35947
  21256745.383   111704944.81148  21256745.851    87042813.01449
  24708608.608   129844586.61346  24708612.939   101177608.95047
  5  2 13 16  9 20.0000000  0  8G 2G 4G 7G 9G24G26G28G29
  24487655.882   128683522.32847  24487656.736   100272869.45348
  21105309.050   110909166.16648  21105310.831    86422731.89049
  21037879.359   110554797.55949  21037880.724    86146600.56149
  23076397.204   121267291.16747  23076399.454    94494001.42648
  20665582.395   108598374.87249  20665584.402    84622120.51449
  24773631.549   130186291.03746  24773635.278   101443878.37247
  21257687.789   111709897.09248  21257688.264    87046671.91449
  24710694.061   129855545.62047  24710698.399   101186148.40447
  5  2 13 16  9 25.0000000  0  8G 2G 4G 7G 9G24G26G28G29
  24484023.285   128664432.89947  24484024.101   100257994.57848
  21102776.432   110895857.16548  21102778.205    86412361.24349
  21038738.023   110559309.90249  21038739.394    86150116.67249
  23073829.973   121253800.28047  23073832.217    94483489.05148
  20664658.546   108593519.94749  20664660.545    84618337.44449
  24775802.959   130197701.77946  24775806.682   101452769.84347
  21258598.062   111714680.67349  21258598.537    87050399.38949
  24712746.222   129866329.73647  24712750.559   101194551.59247
  5  2 13 16  9 30.0000000  0  7G 2G 4G 7G 9G24G26G28
  24480415.865   128645476.00247  24480416.637   100243223.02048
  21100271.116   110882691.70648  21100272.883    86402102.45949
  21039622.610   110563958.43749  21039623.974    86153738.91249
  23071289.933   121240452.28047  23071292.179    94473088.02048
  20663762.706   108588812.31249  20663764.706    84614669.16449
  24778000.143   130209248.02946  24778003.860   101461766.91947
  21259534.903   111719603.74348  21259535.378    87054235.53549
  5  2 13 16  9 35.0000000  0  7G 2G 4G 7G 9G24G26G28
  24476804.369   128626497.68147  24476805.137   100228434.75248
  21097763.847   110869515.88848  21097765.614    86391835.58249
  21040503.802   110568589.16349  21040505.166    86157347.27549
  23068747.781   121227093.18147  23068750.028    94462678.33749
  20662865.602   108584097.99649  20662867.601    84610995.67149
  24780193.821   130220775.82446  24780197.544   101470749.59647
  21260468.967   111724512.34348  21260469.442    87058060.43249
  5  2 13 16  9 40.0000000  0  7G 2G 4G 7G 9G24G26G28
  24473218.152   128607651.98147  24473218.898   100213749.79448
  21095283.884   110856483.62148  21095285.649    86381680.57149
  21041410.947   110573356.20949  21041412.303    86161061.85249
  23066232.836   121213877.05247  23066235.077    94452380.06348
  20661996.540   108579531.01149  20661998.532    84607436.97849
  24782413.290   130232439.21246  24782417.014   101479837.95447
  21261429.612   111729560.50748  21261430.088    87061994.05649
  5  2 13 16  9 45.0000000  0  7G 2G 4G 7G 9G24G26G28
  24469627.857   128588785.00847  24469628.574   100199048.30048
  21092801.983   110843441.14748  21092803.742    86371517.60849
  21042314.724   110578105.59248  21042316.081    86164762.66949
  23063715.821   121200649.98847  23063718.070    94442073.24548
  20661126.215   108574957.48649  20661128.214    84603873.20249
  24784629.284   130244084.27347  24784633.021   101488912.00847
  21262387.534   111734594.35849  21262388.009    87065916.52149
  5  2 13 16  9 50.0000000  0  7G 2G 4G 7G 9G24G26G28
  24465974.933   128569588.92347  24465975.623   100184090.35948
  21090259.533   110830080.54648  21090261.292    86361106.76249
  21043156.566   110582529.47048  21043157.922    86168209.83849
  23061138.138   121187104.20548  23061140.382    94431518.10548
  20660196.081   108570069.56648  20660198.080    84600064.42749
  24786783.196   130255403.13046  24786786.934   101497731.89247
  21263284.136   111739306.03248  21263284.618    87069587.95249
  5  2 13 16  9 55.0000000  0  7G 2G 4G 7G 9G24G26G28
  24462405.948   128550833.90247  24462406.643   100169476.07448
  21087803.134   110817172.08248  21087804.893    86351048.21849
  21044083.024   110587398.03948  21044084.373    86172003.53049
  23058646.357   121174009.83948  23058648.603    94421314.71948
  20659352.668   108565637.40549  20659354.661    84596610.79849
  24789021.595   130267165.86846  24789025.346   101506897.62547
  21264266.000   111744465.72848  21264266.475    87073608.49249
  5  2 13 16 10  0.0000000  0  7G 2G 4G 7G 9G24G26G28
  24458774.348   128531749.93447  24458775.053   100154605.47748
  21085286.237   110803945.72748  21085287.988    86340741.97649
  21044947.567   110591941.18049  21044948.916    86175543.62549
  23056093.948   121160596.83747  23056096.195    94410863.03649
  20658449.460   108560891.04549  20658451.459    84592912.33649
  24791197.923   130278602.54946  24791201.673   101515809.32347
  21265186.589   111749303.39848  21265187.071    87077378.08749
  5  2 13 16 10  5.0000000  0  7G 2G 4G 7G 9G24G26G28
  24455168.138   128512799.35947  24455168.846   100139838.81848
  21082796.827   110790863.75848  21082798.578    86330548.22849
  21045838.152   110596621.27049  21045839.502    86179190.45749
  23053568.886   121147327.58048  23053571.128    94400523.37148
  20657574.439   108556292.77848  20657576.437    84589329.27049
  24793400.177   130290175.40946  24793403.933   101524827.11647
  21266133.863   111754281.35448  21266134.339    87081257.02149
  5  2 13 16 10 10.0000000  0  7G 2G 4G 7G 9G24G26G28
  24451557.964   128493828.07947  24451558.678   100125056.06348
  21080305.565   110777772.12248  21080307.316    86320346.95949
  21046725.483   110601284.19049  21046726.825    86182823.89649
  23051041.868   121134047.97847  23051044.111    94390175.62748
  20656698.275   108551688.50748  20656700.266    84585741.52549
  24795599.018   130301730.36846  24795602.776   101533830.97647
  21267078.509   111759245.53449  21267078.991    87085125.21549
  5  2 13 16 10 15.0000000  0  7G 2G 4G 7G 9G24G26G28
  24447943.947   128474836.35747  24447944.667   100110257.32648
  21077812.515   110764671.08448  21077814.265    86310138.36149
  21047609.590   110605930.20749  21047610.939    86186444.16549
  23048512.927   121120758.27447  23048515.165    94379820.01648
  20655821.022   108547078.47949  20655823.012    84582149.28749
  24797794.487   130313267.60447  24797798.244   101542821.02047
  21268020.584   111764196.14048  21268021.067    87088982.82649
  5  2 13 16 10 20.0000000  0  7G 2G 4G 7G 9G24G26G28
  24444326.031   128455824.32947  24444326.756   100095442.80648
  21075317.693   110751560.70848  21075319.436    86299922.48449
  21048490.507   110610559.45349  21048491.848    86190051.37149
  23045982.086   121107458.61648  23045984.326    94369456.65448
  20654942.684   108542462.84549  20654944.674    84578552.69949
  24799986.625   130324787.33447  24799990.382   101551797.42647
  21268960.112   111769133.36048  21268960.594    87092830.00049
  5  2 13 16 10 25.0000000  0  7G 2G 4G 7G 9G24G26G28
  24440733.576   128436945.97846  24440734.312   100080732.40948
  21072850.412   110738595.08748  21072852.154    86289819.41149
  21049397.519   110615325.80448  21049398.860    86193765.40549
  23043478.656   121094303.00148  23043480.897    94359205.52948
  20654092.582   108537995.52748  20654094.577    84575071.66749
  24802204.708   130336443.40946  24802208.472   101560880.07447
  21269926.377   111774211.08848  21269926.866    87096786.66249
  5  2 13 16 10 30.0000000  0  7G 2G 4G 7G 9G24G26G28
  24437107.968   128417893.49646  24437108.729   100065886.34847
  21070352.094   110725466.37148  21070353.830    86279589.25149
  21050272.058   110619921.54049  21050273.392    86197346.49949
  23040944.070   121080983.60047  23040946.311    94348826.76448
  20653212.134   108533368.77249  20653214.129    84571466.40849
  24804390.163   130347928.08246  24804393.926   101569829.17548
  21270860.814   111779121.58649  21270861.303    87100613.02449
  5  2 13 16 10 35.0000000  0  7G 2G 4G 7G 9G24G26G28
  24433507.857   128398975.06746  24433508.631   100051144.76448
  21067881.406   110712482.82048  21067883.135    86269472.20349
  21051172.773   110624654.82948  21051174.114    86201034.77149
  23038436.955   121067808.65248  23038439.190    94338560.58348
  20652359.995   108528890.78349  20652361.982    84567977.07349
  24806601.652   130359549.50547  24806605.430   101578884.81748
  21271822.094   111784173.05548  21271822.584    87104549.21749
  5  2 13 16 10 40.0000000  0  7G 2G 4G 7G 9G24G26G28
  24429933.295   128380190.86746  24429934.088   100036507.76748
  21065438.340   110699644.42148  21065440.069    86259468.25349
  21052099.683   110629525.74049  21052101.017    86204830.28349
  23035957.359   121054778.25547  23035959.595    94328407.02448
  20651536.177   108524561.59049  20651538.171    84564603.67149
  24808839.191   130371307.78847  24808842.975   101588047.09947
  21272810.199   111789365.54949  21272810.696    87108595.30549
  5  2 13 16 10 45.0000000  0  7G 2G 4G 7G 9G24G26G28
  24426296.363   128361078.75346  24426297.189   100021615.20847
  21062934.992   110686489.20548  21062936.720    86249217.42649
  21052964.839   110634072.19948  21052966.173    86208372.98649
  23033417.340   121041430.36647  23033419.570    94318006.07948
  20650652.751   108519919.15849  20650654.745    84560986.18949
  24811014.824   130382740.78447  24811018.623   101596955.91848
  21273737.228   111794237.08749  21273737.719    87112391.31049
  5  2 13 16 10 50.0000000  0  7G 2G 4G 7G 9G24G26G28
  24422714.238   128342254.84046  24422715.076   100006947.27347
  21060488.581   110673633.23048  21060490.303    86239199.79049
  21053885.516   110638910.29248  21053886.850    86212142.90849
  23030934.126   121028381.01847  23030936.356    94307837.76348
  20649826.952   108515579.58449  20649828.945    84557604.70849
  24813245.800   130394464.58047  24813249.599   101606091.33247
  21274720.392   111799403.61949  21274720.883    87116417.17249
  5  2 13 16 10 55.0000000  0  7G 2G 4G 7G 9G24G26G28
  24419099.116   128323257.40546  24419099.960    99992144.10247
  21058011.250   110660614.76548  21058012.964    86229055.53349
  21054773.788   110643578.22749  21054775.129    86215780.26349
  23028419.884   121015168.52448  23028422.115    94297542.30448
  20648970.925   108511081.13149  20648972.924    84554099.41649
  24815444.224   130406017.37747  24815448.032   101615093.51648
  21275671.835   111804403.48449  21275672.326    87120313.17249
  5  2 13 16 11  0.0000000  0  7G 2G 4G 7G 9G24G26G28
  24415480.279   128304240.56846  24415481.129    99977325.84447
  21055532.314   110647587.90348  21055534.022    86218904.74149
  21055659.009   110648230.09148  21055660.343    86219405.09749
  23025903.893   121001946.96548  23025906.119    94287239.81448
  20648113.983   108506577.90049  20648115.982    84550590.41349
  24817639.456   130417553.34047  24817643.272   101624082.56248
  21276620.880   111809390.75349  21276621.365    87124199.35949
  5  2 13 16 11  5.0000000  0  7G 2G 4G 7G 9G24G26G28
  24411887.122   128285358.52546  24411887.980    99962612.59447
  21053081.138   110634706.88448  21053082.846    86208867.58549
  21056570.521   110653020.12449  21056571.862    86223137.58649
  23023415.541   120988870.55948  23023417.762    94277050.40848
  20647285.469   108502224.06149  20647287.468    84547197.81749
  24819860.802   130429226.52947  24819864.624   101633178.53447
  21277596.877   111814519.65049  21277597.369    87128195.89949
  5  2 13 16 11 10.0000000  0  7G 2G 4G 7G 9G24G26G28
  24408290.316   128266457.27546  24408291.181    99947884.36647
  21050628.388   110621817.65948  21050630.096    86198824.04449
  21057479.008   110657794.25248  21057480.343    86226857.69249
  23020925.494   120975785.30148  23020927.716    94266854.11848
  20646456.076   108497865.60549  20646458.075    84543801.62349
  24822078.976   130440882.98747  24822082.806   101642261.46047
  21278570.533   111819636.15249  21278571.024    87132182.76249
  5  2 13 16 11 15.0000000  0  7G 2G 4G 7G 9G24G26G28
  24404689.859   128247536.90546  24404690.733    99933141.26147
  21048174.117   110608920.34648  21048175.825    86188774.18549
  21058384.502   110662552.59648  21058385.837    86230565.47849
  23018433.793   120962691.32348  23018436.015    94256651.02048
  20645625.832   108493502.64348  20645627.831    84540401.91349
  24824293.975   130452522.82247  24824297.819   101651331.44247
  21279541.825   111824740.35649  21279542.317    87136160.07649
  5  2 13 16 11 20.0000000  0  7G 2G 4G 7G 9G24G26G28
  24401085.786   128228597.43546  24401086.663    99918383.25647
  21045718.300   110596014.97248  21045720.000    86178718.05649
  21059286.977   110667295.13449  21059288.313    86234260.96849
  23015940.424   120949588.55148  23015942.641    94246441.07048
  20644794.718   108489135.11149  20644796.718    84536998.64249
  24826505.785   130464145.95847  24826509.615   101660388.44347
  21280510.780   111829832.21949  21280511.266    87140127.75849
  5  2 13 16 11 25.0000000  0  7G 2G 4G 7G 9G24G26G28
  24397448.797   128209485.02046  24397449.701    99903490.47547
  21043231.677   110582947.68048  21043233.377    86168535.74949
  21060157.173   110671868.04249  21060158.508    86237824.27149
  23013416.108   120936323.24348  23013418.325    94236104.48148
  20643933.484   108484609.29649  20643935.497    84533472.02549
  24828685.150   130475598.60447  24828688.982   101669312.58547
  21281448.132   111834757.94349  21281448.625    87143965.96349
  5  2 13 16 11 30.0000000  0  7G 2G 4G 7G 9G24G26G28
  24393837.519   128190507.78647  24393838.426    99888703.06348
  21040772.869   110570026.61848  21040774.561    86158467.40349
  21061053.716   110676579.41049  21061055.052    86241495.46849
  23010919.484   120923203.46148  23010921.702    94225881.29048
  20643100.742   108480233.20549  20643102.754    84530062.08349
  24830890.713   130487188.85346  24830894.552   101678343.93047
  21282412.476   111839825.63549  21282412.976    87147914.81649
  5  2 13 16 11 35.0000000  0  7G 2G 4G 7G 9G24G26G28
  24390251.995   128171665.79247  24390252.911    99874021.01048
  21038341.885   110557251.74248  21038343.570    86148512.96349
  21061976.610   110681429.21849  21061977.946    86245274.53249
  23008450.566   120910229.20748  23008452.792    94215771.48248
  20642296.495   108476006.85749  20642298.501    84526768.82949
  24833122.425   130498916.60946  24833126.249   101687482.45247
  21283403.851   111845035.28648  21283404.351    87151974.27249
  5  2 13 16 11 40.0000000  0  7G 2G 4G 7G 9G24G26G28
  24386662.924   128152805.15646  24386663.843    99859324.43848
  21035909.472   110544469.29448  21035911.157    86138552.60749
  21062896.568   110686263.69149  21062897.897    86249041.67049
  23005980.075   120897246.72048  23005982.302    94205655.27048
  20641491.464   108471776.45849  20641493.469    84523472.42349
  24835351.070   130510628.09146  24835354.907   101696608.24847
  21284392.947   111850233.05148  21284393.448    87156024.49049
  5  2 13 16 11 45.0000000  0  7G 2G 4G 7G 9G24G26G28
  24383041.060   128133772.10347  24383041.968    99844493.49948
  21033446.350   110531525.53149  21033448.034    86128466.56349
  21063784.353   110690928.97349  21063785.690    86252676.94149
  23003478.750   120884102.20047  23003480.971    94195412.80148
  20640656.420   108467388.23949  20640658.419    84520053.03249
  24837547.329   130522169.51146  24837551.165   101705601.55747
  21285350.557   111855265.23349  21285351.059    87159945.65449
  5  2 13 16 11 50.0000000  0  7G 2G 4G 7G 9G24G26G28
  24379445.005   128114874.73646  24379445.910    99829768.30248
  21031011.145   110518728.41148  21031012.823    86118494.77949
  21064698.547   110695733.09449  21064699.883    86256420.40949
  23001005.215   120871103.68648  23001007.429    94185284.09348
  20639849.954   108463150.20049  20639851.960    84516750.65549
  24839769.830   130533848.83446  24839773.667   101714702.32847
  21286335.246   111860439.80749  21286335.747    87163977.78549
  5  2 13 16 11 55.0000000  0  7G 2G 4G 7G 9G24G26G28
  24375845.437   128095958.91147  24375846.346    99815028.72148
  21028574.529   110505923.94349  21028576.206    86108517.27349
  21065609.838   110700521.99049  21065611.174    86260152.02549
  22998530.142   120858097.12248  22998532.365    94175149.11748
  20639042.743   108458908.27948  20639044.742    84513445.26349
  24841989.266   130545512.01646  24841993.103   101723790.52047
  21287317.716   111865602.68848  21287318.218    87168000.80849
  5  2 13 16 12  0.0000000  0  7G 2G 4G 7G 9G24G26G28
  24372242.402   128077024.80247  24372243.320    99800274.87048
  21026136.531   110493112.20648  21026138.194    86098534.11649
  21066518.267   110705295.78548  21066519.603    86263871.85849
  22996053.558   120845082.61548  22996055.773    94165007.95348
  20638234.822   108454662.62548  20638236.820    84510136.95849
  24844205.654   130557159.15246  24844209.491   101732866.19447
  21288297.992   111870754.04248  21288298.500    87172014.83849
  5  2 13 16 12  5.0000000  0  7G 2G 4G 7G 9G24G26G28
  24368635.890   128058072.54947  24368636.804    99785506.91648
  21023697.179   110480293.32648  21023698.836    86088545.38249
  21067423.842   110710054.58148  21067425.177    86267580.00349
  22993575.511   120832060.32948  22993577.722    94154860.71348
  20637426.200   108450413.31549  20637428.197    84506825.81349
  24846418.996   130568790.30746  24846422.846   101741929.41947
  21289276.093   111875893.96848  21289276.601    87176019.96649
  5  2 13 16 12 10.0000000  0  7G 2G 4G 7G 9G24G26G28
  24365025.953   128039102.23347  24365026.883    99770724.86048
  21021256.504   110467467.45949  21021258.161    86078551.19349
  21068326.582   110714798.48248  21068327.918    86271276.54349
  22991095.986   120819030.33748  22991098.198    94144707.47948
  20636616.913   108446160.48649  20636618.911    84503511.92049
  24848629.327   130580405.61746  24848633.178   101750980.29747
  21290252.032   111881022.53449  21290252.534    87180016.25049
  5  2 13 16 12 15.0000000  0  7G 2G 4G 7G 9G24G26G28
  24361441.875   128020267.86746  24361442.812    99756048.75148
  21018843.789   110454788.59149  21018845.446    86068671.56349
  21069255.781   110719681.45549  21069257.110    86275081.46049
  22988644.315   120806146.68648  22988646.520    94134668.26948
  20635836.255   108442058.10048  20635838.245    84500315.25849
  24850865.916   130592159.03346  24850869.766   101760138.81247
  21291255.113   111886293.76048  21291255.616    87184123.70049
  5  2 13 16 12 20.0000000  0  7G 2G 4G 7G 9G24G26G28
  24357825.149   128001261.81446  24357826.089    99741238.84548
  21016400.515   110441949.06648  21016402.165    86058666.73549
  21070152.896   110724395.82849  21070154.224    86278754.99449
  22986161.951   120793101.71348  22986164.158    94124503.34748
  20635025.681   108437798.53449  20635027.678    84496996.11849
  24853070.267   130603742.85146  24853074.123   101769165.13047
  21292226.800   111891400.00949  21292227.302    87188102.59349
  5  2 13 16 12 25.0000000  0  7G 2G 4G 7G 9G24G26G28
  24354234.334   127982391.98346  24354235.283    99726535.09748
  21013985.256   110429256.82548  21013986.899    86048776.68649
  21071076.531   110729249.56149  21071077.858    86282537.12049
  22983707.473   120780203.37548  22983709.674    94114452.71048
  20634243.804   108433689.74649  20634245.795    84493794.47049
  24855300.923   130615465.08846  24855304.786   101778299.35147
  21293225.700   111896649.23048  21293226.195    87192192.89149
  5  2 13 16 12 30.0000000  0  7G 2G 4G 7G 9G24G26G28
  24350640.146   127963504.55546  24350641.091    99711817.66748
  21011568.752   110416558.00848  21011570.388    86038881.51049
  21071997.422   110734088.81449  21071998.749    86286307.95349
  22981251.653   120767297.85948  22981253.849    94104396.45248
  20633461.344   108429577.88848  20633463.334    84490590.42249
  24857528.668   130627171.81246  24857532.544   101787421.42947
  21294222.524   111901887.57648  21294223.018    87196274.71649
  5  2 13 16 12 35.0000000  0  7G 2G 4G 7G 9G24G26G28
  24347013.340   127944445.59146  24347014.292    99696966.53348
  21009121.696   110403698.64749  21009123.340    86028861.22649
  21072886.227   110738759.54749  21072887.546    86289947.49249
  22978765.131   120754231.13048  22978767.321    94094214.59948
  20632648.997   108425308.94448  20632650.980    84487263.96949
  24859724.133   130638709.05946  24859728.015   101796411.48747
  21295187.972   111906961.04348  21295188.467    87200228.06949
  5  2 13 16 12 40.0000000  0  7G 2G 4G 7G 9G24G26G28
  24343412.469   127925523.01446  24343413.423    99682221.69948
  21006702.696   110390986.77449  21006704.332    86018955.88449
  21073801.582   110743569.77149  21073802.902    86293695.71849
  22976306.541   120741311.18748  22976308.732    94084147.12148
  20631865.348   108421190.87649  20631867.331    84484055.09049
  24861945.950   130650384.78546  24861949.833   101805509.45847
  21296180.668   111912177.59948  21296181.163    87204292.90149
  5  2 13 16 12 45.0000000  0  7G 2G 4G 7G 9G24G26G28
  24339837.588   127906737.04246  24339838.542    99667583.31648
  21004311.796   110378422.48149  21004313.439    86009165.51749
  21074743.512   110748519.58649  21074744.832    86297552.70349
  22973875.922   120728538.19748  22973878.109    94074194.15448
  20631110.447   108417223.84449  20631112.431    84480963.89949
  24864194.146   130662199.07146  24864198.043   101814715.37747
  21297200.602   111917537.38748  21297201.096    87208469.35449
  5  2 13 16 12 50.0000000  0  7G 2G 4G 7G 9G24G26G28
  24336230.105   127887779.71546  24336231.052    99652811.40548
  21001890.392   110365697.95049  21001892.028    85999250.30549
  21075653.393   110753301.07349  21075654.705    86301278.54349
  22971414.667   120715604.24548  22971416.861    94064115.75748
  20630325.680   108413099.89849  20630327.663    84477750.43649
  24866410.092   130673843.97646  24866414.002   101823789.33147
  21298189.200   111922732.50848  21298189.702    87212517.49949
  5  2 13 16 12 55.0000000  0  7G 2G 4G 7G 9G24G26G28
  24332619.364   127868805.17546  24332620.325    99638026.05147
  20999467.803   110352967.22149  20999469.432    85989330.27349
  21076560.593   110758068.38048  21076561.898    86304993.31749
  22968952.126   120702663.43948  22968954.321    94054032.00448
  20629540.399   108408973.21549  20629542.381    84474534.84049
  24868623.154   130685473.60546  24868627.072   101832851.35547
  21299175.791   111927917.07948  21299176.286    87216557.42649
  5  2 13 16 13  0.0000000  0  7G 2G 4G 7G 9G24G26G28
  24329034.601   127849967.30946  24329035.569    99623347.23047
  20997073.336   110340384.20949  20997074.964    85979525.32749
  21077494.353   110762975.32048  21077495.658    86308816.90849
  22966517.551   120689869.69648  22966519.741    94044062.86748
  20628783.880   108404997.64848  20628785.855    84471436.99349
  24870862.576   130697241.84546  24870866.501   101842021.41247
  21300189.663   111933244.94748  21300190.165    87220708.99949
  5  2 13 16 13  5.0000000  0  7G 2G 4G 7G 9G24G26G28
  24325417.260   127830958.14546  24325418.241    99608534.90848
  20994648.391   110327641.00749  20994650.020    85969595.55649
  21078396.089   110767713.94448  21078397.394    86312509.33349
  22964052.358   120676915.04948  22964054.548    94033968.34748
  20627997.510   108400865.24849  20627999.485    84468216.94049
  24873069.788   130708840.72846  24873073.726   101851059.47347
  21301172.202   111938408.19448  21301172.705    87224732.30349
  5  2 13 16 13 10.0000000  0  7G 2G 4G 7G 9G24G26G28
  24321825.966   127812085.89546  24321826.955    99593829.28347
  20992251.571   110315045.63448  20992253.193    85959780.98049
  21079324.414   110772592.32348  21079325.705    86316310.67349
  22961615.200   120664107.63347  22961617.398    94023988.53148
  20627239.919   108396884.11449  20627241.901    84465114.76049
  24875303.384   130720578.29346  24875307.329   101860205.60947
  21302182.035   111943714.90248  21302182.537    87228867.39849
  5  2 13 16 13 15.0000000  0  7G 2G 4G 7G 9G24G26G28
  24318231.382   127793196.44446  24318232.363    99579110.28148
  20989853.596   110302444.25048  20989855.217    85949961.73449
  21080250.056   110777456.57449  21080251.347    86320100.99149
  22959176.733   120651293.49947  22959178.925    94014003.51648
  20626481.824   108392900.29648  20626483.799    84462010.48949
  24877534.087   130732300.68447  24877538.045   101869339.92647
  21303189.876   111949011.11248  21303190.378    87232994.30849
  5  2 13 16 13 20.0000000  0  7G 2G 4G 7G 9G24G26G28
  24314662.897   127774444.05346  24314663.886    99564498.05648
  20987483.796   110289990.83648  20987485.411    85940257.77149
  21081202.328   110782460.73348  21081203.625    86324000.31949
  22956766.319   120638626.72047  22956768.518    94004133.30348
  20625752.534   108389067.88149  20625754.515    84459024.19149
  24879791.202   130744161.87346  24879795.168   101878582.40347
  21304225.036   111954450.94648  21304225.538    87237233.14649
  5  2 13 16 13 25.0000000  0  7G 2G 4G 7G 9G24G26G28
  24311032.565   127755366.56146  24311033.554    99549632.48648
  20985054.229   110277223.40648  20985055.843    85930309.12949
  21082093.270   110787142.66848  21082094.554    86327648.58749
  22954296.016   120625645.21847  22954298.215    93994017.85748
  20624964.125   108384924.76449  20624966.100    84455795.79649
  24881986.779   130755699.77346  24881990.751   101887572.98347
  21305199.607   111959572.25748  21305200.110    87241223.76049
  5  2 13 16 13 30.0000000  0  7G 2G 4G 7G 9G24G26G28
  24307428.285   127736426.04047  24307429.283    99534873.66348
  20982652.825   110264603.94449  20982654.432    85920475.78349
  21083010.830   110791964.50848  21083012.107    86331405.87449
  22951853.758   120612811.06948  22951855.966    93984017.22248
  20624204.518   108380933.00349  20624206.500    84452685.33149
  24884208.785   130767376.40046  24884212.765   101896671.63147
  21306201.474   111964837.13148  21306201.983    87245326.26349
  5  2 13 16 13 35.0000000  0  7G 2G 4G 7G 9G24G26G28
  24303850.097   127717622.59647  24303851.103    99520221.64348
  20980279.598   110252132.58549  20980281.198    85910757.85149
  21083955.033   110796926.26448  21083956.317    86335272.16249
  22949439.563   120600124.35848  22949441.771    93974131.46848
  20623473.737   108377092.72449  20623475.713    84449692.91049
  24886457.218   130779191.86646  24886461.211   101905878.45547
  21307230.688   111970245.68848  21307231.204    87249540.71949
  5  2 13 16 13 40.0000000  0  7G 2G 4G 7G 9G24G26G28
  24300268.654   127698802.01947  24300269.662    99505556.27248
  20977905.229   110239655.19148  20977906.829    85901035.20549
  21084896.503   110801873.75549  21084897.780    86339127.35949
  22947024.072   120587430.92847  22947026.280    93964240.49948
  20622742.436   108373249.74449  20622744.419    84446698.38249
  24888702.692   130790991.94246  24888706.679   101915073.33247
  21308257.901   111975643.70148  21308258.418    87253746.95849
  5  2 13 16 13 45.0000000  0  7G 2G 4G 7G 9G24G26G28
  24296654.657   127679810.39747  24296655.674    99490757.62648
  20975500.412   110227017.76148  20975502.005    85891187.85549
  21085805.965   110806652.97749  21085807.235    86342851.42449
  22944578.015   120574576.78147  22944580.231    93954224.27348
  20621981.319   108369250.04649  20621983.302    84443581.73749
  24890915.955   130802622.65847  24890919.949   101924136.21147
  21309253.806   111980877.21748  21309254.322    87257825.01949
  5  2 13 16 13 50.0000000  0  7G 2G 4G 7G 9G24G26G28
  24293066.742   127660955.83847  24293067.760    99476065.78048
  20973123.758   110214528.42248  20973125.344    85881455.91749
  21086742.066   110811572.13149  21086743.343    86346684.50749
  22942159.995   120561870.12347  22942162.217    93944323.00648
  20621249.018   108365401.77748  20621251.000    84440583.08449
  24893155.626   130814392.11246  24893159.620   101933307.19547
  21310277.052   111986254.37948  21310277.575    87262015.00449
  5  2 13 16 13 55.0000000  0  7G 2G 4G 7G 9G24G26G28
  24289446.302   127641930.29847  24289447.321    99461240.68848
  20970716.682   110201879.15048  20970718.268    85871599.34349
  21087646.141   110816323.10848  21087647.412    86350386.57849
  22939711.426   120549002.83947  22939713.642    93934296.56348
  20620486.911   108361396.87949  20620488.887    84437462.38949
  24895363.057   130825992.27246  24895367.058   101942346.28547
  21311269.002   111991467.11048  21311269.525    87266076.87649
  5  2 13 16 14  0.0000000  0  7G 2G 4G 7G 9G24G26G28
  24285851.947   127623041.83747  24285852.961    99446522.41948
  20968337.776   110189377.94848  20968339.362    85861858.15249
  21088576.838   110821213.95149  21088578.101    86354197.62949
  22937290.933   120536283.02947  22937293.163    93924385.00948
  20619753.620   108357543.40749  20619755.596    84434459.68349
  24897596.894   130837731.10646  24897600.895   101951493.41347
  21312288.284   111996823.47348  21312288.813    87270250.65949
  5  2 13 16 14  5.0000000  0  7G 2G 4G 7G 9G24G26G28
  24282283.641   127604290.38747  24282284.663    99431910.92748
  20965987.052   110177024.81349  20965988.631    85852232.33449
  21089534.134   110826244.57549  21089535.398    86358117.59849
  22934898.480   120523710.63847  22934900.717    93914588.34548
  20619049.134   108353841.33949  20619051.109    84431574.95949
  24899857.126   130849608.61146  24899861.142   101960748.58747
  21313334.886   112002323.40248  21313335.415    87274536.31849
  5  2 13 16 14 10.0000000  0  7G 2G 4G 7G 9G24G26G28
  24278682.844   127585368.03647  24278683.860    99417166.24048
  20963605.898   110164511.82648  20963607.477    85842481.96749
  21090459.427   110831107.02348  21090460.683    86361906.51849
  22932475.470   120510977.69847  22932477.707    93904666.58648
  20618314.870   108349982.66249  20618316.838    84428568.18149
  24902085.125   130861316.79346  24902089.140   101969871.83947
  21314350.223   112007658.94348  21314350.760    87278693.86349
  5  2 13 16 14 15.0000000  0  7G 2G 4G 7G 9G24G26G28
  24275049.513   127566274.88146  24275050.524    99402288.49448
  20961194.338   110151839.02448  20961195.915    85832607.05949
  21091352.743   110835801.39949  21091354.006    86365564.46249
  22930021.931   120498084.32247  22930024.174    93894619.81148
  20617550.796   108345967.48748  20617552.756    84425439.48749
  24904280.907   130872855.67246  24904284.923   101978863.16847
  21315334.276   112012830.20848  21315334.813    87282723.42649
  5  2 13 16 14 20.0000000  0  7G 2G 4G 7G 9G24G26G28
  24271471.598   127547472.77946  24271472.604    99387637.50848
  20958840.276   110139468.34148  20958841.853    85822967.56849
  21092301.957   110840789.58348  21092303.206    86369451.37349
  22927625.773   120485492.43147  22927628.017    93884807.94948
  20616844.856   108342257.71849  20616846.810    84422548.75549
  24906532.389   130884687.22846  24906536.413   101988082.55247
  21316374.978   112018299.06948  21316375.515    87286984.86449
  5  2 13 16 14 25.0000000  0  7G 2G 4G 7G 9G24G26G28
  24267861.153   127528499.91846  24267862.159    99372853.49948
  20956455.821   110126937.94849  20956457.398    85813203.62449
  21093219.207   110845609.70648  21093220.457    86373207.29949
  22925199.073   120472740.12747  22925201.323    93874871.10648
  20616109.135   108338391.44949  20616111.089    84419536.07049
  24908751.653   130896349.44546  24908755.690   101997169.96647
  21317384.406   112023603.65148  21317384.951    87291118.30249
  5  2 13 16 14 30.0000000  0  7G 2G 4G 7G 9G24G26G28
  24264306.136   127509818.17746  24264307.131    99358296.31348
  20954128.857   110114709.70148  20954130.427    85803675.12849
  21094192.356   110850723.60448  21094193.605    86377192.14649
  22922829.761   120460289.30947  22922832.018    93865169.16548
  20615431.530   108334830.57549  20615433.470    84416761.36249
  24911026.592   130908304.23745  24911030.637   102006485.36747
  21318450.473   112029205.84248  21318451.019    87295483.64249
  5  2 13 16 14 35.0000000  0  7G 2G 4G 7G 9G24G26G28
  24260689.332   127490811.77647  24260690.328    99343486.14148
  20951742.204   110102167.75349  20951743.775    85793902.18549
  21095104.218   110855515.50648  21095105.468    86380926.10449
  22920400.618   120447524.17147  22920402.881    93855222.31748
  20614694.846   108330959.27549  20614696.779    84413744.76849
  24913240.003   130919935.79245  24913244.048   102015548.91647
  21319455.993   112034489.82048  21319456.546    87299601.01249
  5  2 13 16 14 40.0000000  0  7G 2G 4G 7G 9G24G26G28
  24257098.644   127471942.71047  24257099.641    99328783.00448
  20949383.801   110089774.32348  20949385.370    85784244.97549
  21096042.746   110860447.47149  21096043.996    86384769.18949
  22917999.611   120434906.82347  22918001.880    93845390.61948
  20613987.009   108327239.60249  20613988.942    84410846.32549
  24915479.831   130931706.13546  24915483.890   102024720.59947
  21320488.884   112039917.69848  21320489.437    87303830.52849
  5  2 13 16 14 45.0000000  0  7G 2G 4G 7G 9G24G26G28
  24253475.459   127452902.80547  24253476.450    99313946.73548
  20946994.995   110077221.03448  20946996.565    85774463.18749
  21096949.255   110865211.17549  21096950.504    86388481.15649
  22915568.066   120422129.03447  22915570.342    93835433.90948
  20613249.391   108323363.39249  20613251.310    84407825.90749
  24917687.452   130943307.13846  24917691.518   102033760.30947
  21321490.505   112045181.22148  21321491.065    87307931.96749
  5  2 13 16 14 50.0000000  0  7G 2G 4G 7G 9G24G26G28
  24249907.712   127434154.19947  24249908.697    99299337.44748
  20944663.706   110064970.09249  20944665.275    85764917.00649
  21097911.712   110870268.85749  21097912.962    86392422.19949
  22913193.936   120409652.92747  22913196.213    93825712.27848
  20612569.909   108319792.72249  20612571.827    84405043.57049
  24919950.743   130955200.77846  24919954.814   102043028.06747
  21322548.778   112050742.45548  21322549.339    87312265.39149
  5  2 13 16 14 55.0000000  0  7G 2G 4G 7G 9G24G26G28
  24246336.795   127415388.93447  24246337.782    99284715.17848
  20942331.369   110052713.57548  20942332.931    85755366.47649
  21098871.472   110875312.46549  21098872.723    86396352.29049
  22910818.625   120397170.58147  22910820.908    93815985.76948
  20611889.981   108316219.67549  20611891.891    84402259.37749
  24922211.110   130967079.12046  24922215.188   102052283.91947
  21323605.106   112056293.52748  21323605.666    87316590.90449
  5  2 13 16 15  0.0000000  0  7G 2G 4G 7G 9G24G26G28
  24242733.436   127396453.18747  24242734.418    99269960.06648
  20939968.680   110040297.56448  20939970.242    85745691.66349
  21099799.290   110880188.17848  21099800.539    86400151.54249
  22908412.842   120384528.16847  22908415.123    93806134.54748
  20611180.328   108312490.36249  20611182.232    84399353.41049
  24924439.313   130978788.30946  24924443.397   102061407.93747
  21324630.232   112061680.56648  21324630.793    87320788.59649
  5  2 13 16 15  5.0000000  0  7G 2G 4G 7G 9G24G26G28
  24239156.277   127377655.11847  24239157.254    99255312.23948
  20937634.279   110028030.23348  20937635.834    85736132.71349
  21100753.801   110885204.10948  21100755.053    86404060.05249
  22906035.249   120372033.80447  22906037.537    93796398.66648
  20610499.567   108308912.96949  20610501.471    84396565.83849
  24926693.945   130990636.42246  24926698.037   102070640.21747
  21325682.778   112067211.76448  21325683.338    87325098.62549
  5  2 13 16 15 10.0000000  0  7G 2G 4G 7G 9G24G26G28
  24235517.368   127358532.61647  24235518.346    99240411.61548
  20935240.238   110015449.49249  20935241.799    85726329.54049
  21101647.061   110889898.21949  21101648.311    86407717.79749
  22903597.874   120359225.37147  22903600.156    93786418.09248
  20609759.773   108305025.35449  20609761.668    84393536.53249
  24928887.077   131002161.40646  24928891.182   102079620.71947
  21326674.820   112072424.94748  21326675.394    87329160.83349
  5  2 13 16 15 15.0000000  0  7G 2G 4G 7G 9G24G26G28
  24231963.279   127339855.75747  24231964.252    99225858.22748
  20932933.106   110003325.43549  20932934.661    85716882.22549
  21102625.591   110895040.49349  21102626.841    86411724.77749
  22901247.286   120346872.98347  22901249.568    93776792.85748
  20609107.488   108301597.57649  20609109.383    84390865.53549
  24931165.282   131014133.33146  24931169.394   102088949.46247
  21327752.887   112078090.19748  21327753.462    87333575.31049
  5  2 13 16 15 20.0000000  0  7G 2G 4G 7G 9G24G26G28
  24228376.775   127321008.57748  24228377.743    99211172.13248
  20930595.671   109991042.16149  20930597.225    85707310.84749
  21103572.208   110900014.96748  21103573.458    86415600.98449
  22898866.280   120334360.64947  22898868.555    93767042.97848
  20608425.515   108298013.75149  20608427.403    84388072.94249
  24933411.290   131025936.14946  24933415.404   102098146.46247
  21328799.771   112083591.58048  21328800.345    87337862.09249
  5  2 13 16 15 25.0000000  0  7G 2G 4G 7G 9G24G26G28
  24224787.232   127302145.43647  24224788.203    99196473.59648
  20928257.292   109978753.89748  20928258.846    85697735.57649
  21104516.270   110904975.98649  21104517.529    86419466.70049
  22896484.196   120321842.77247  22896486.470    93757288.80048
  20607743.193   108294428.12749  20607745.081    84385278.94649
  24935654.476   131037724.17146  24935658.590   102107331.93547
  21329844.834   112089083.42448  21329845.409    87342141.45149
  5  2 13 16 15 30.0000000  0  7G 2G 4G 7G 9G24G26G28
  24221194.609   127283266.10747  24221195.581    99181762.44148
  20925917.935   109966460.55549  20925919.487    85688156.35849
  21105457.706   110909923.32549  21105458.957    86423321.78549
  22894100.992   120309319.07647  22894103.251    93747530.10548
  20607060.488   108290840.51649  20607062.368    84382483.41549
  24937894.832   131049497.16646  24937898.959   102116505.65547
  21330888.034   112094565.47448  21330888.614    87346413.17249
  5  2 13 16 15 35.0000000  0  7G 2G 4G 7G 9G24G26G28
  24217598.954   127264370.84047  24217599.934    99167038.86848
  20923577.645   109954162.27948  20923579.197    85678573.29349
  21106396.592   110914857.17649  21106397.850    86427166.33349
  22891716.770   120296789.81147  22891719.029    93737767.02148
  20606377.455   108287251.15649  20606379.328    84379686.51049
  24940132.337   131061255.36346  24940136.464   102125667.89447
  21331929.416   112100037.97848  21331930.004    87350677.45749
  5  2 13 16 15 40.0000000  0  7G 2G 4G 7G 9G24G26G28
  24214000.271   127245459.66547  24214001.245    99152302.90348
  20921236.431   109941859.11548  20921237.982    85668986.40949
  21107332.942   110919777.63149  21107334.193    86431000.43749
  22889331.473   120284255.05447  22889333.725    93727999.69348
  20605694.104   108283660.09149  20605695.971    84376888.27649
  24942367.037   131072998.79447  24942371.165   102134818.62047
  21332969.002   112105501.00348  21332969.589    87354934.35549
  5  2 13 16 15 45.0000000  0  7G 2G 4G 7G 9G24G26G28
  24210398.572   127226532.67247  24210399.548    99137554.61548
  20918894.304   109929551.18648  20918895.856    85659395.82449
  21108266.715   110924684.67349  21108267.972    86434824.10949
  22886945.148   120271714.86547  22886947.400    93718228.12248
  20605010.426   108280067.36849  20605012.285    84374088.75949
  24944598.956   131084727.54346  24944603.097   102143957.88547
  21334006.787   112110954.57048  21334007.381    87359183.87549
  5  2 13 16 15 50.0000000  0  7G 2G 4G 7G 9G24G26G28
  24206852.494   127207897.97247  24206853.472    99123034.09048
  20916609.886   109917546.52148  20916611.438    85650041.54549
  21109256.581   110929886.42348  21109257.832    86438877.41749
  22884616.421   120259477.35047  22884618.660    93708692.41448
  20604385.064   108276781.10049  20604386.922    84371528.03449
  24946886.679   131096749.64346  24946890.827   102153325.75747
  21335101.413   112116706.77648  21335102.000    87363666.09749
  5  2 13 16 15 55.0000000  0  7G 2G 4G 7G 9G24G26G28
  24203244.850   127188939.67447  24203245.828    99108261.39248
  20914265.987   109905229.27948  20914267.546    85640443.69949
  21110185.316   110934766.99248  21110186.567    86442680.46649
  22882228.098   120246926.63247  22882230.332    93698912.64048
  20603700.830   108273185.39749  20603702.689    84368726.18249
  24949113.027   131108449.20946  24949117.174   102162442.30847
  21336135.645   112122141.79448  21336136.239    87367901.19249
  5  2 13 16 16  0.0000000  0  7G 2G 4G 7G 9G24G26G28
  24199634.260   127169966.01847  24199635.232    99093476.76248
  20911921.267   109892907.72448  20911922.826    85630842.49349
  21111111.605   110939634.64048  21111112.856    86446473.43349
  22879838.829   120234370.90647  22879841.055    93689128.95148
  20603016.361   108269588.48649  20603018.213    84365923.39749
  24951336.669   131120134.40546  24951340.817   102171547.62847
  21337168.190   112127567.79648  21337168.784    87372129.22949
  5  2 13 16 16  5.0000000  0  7G 2G 4G 7G 9G24G26G28
  24196050.107   127151131.16947  24196051.081    99078800.26148
  20909605.071   109880736.06548  20909606.629    85621358.08849
  21112064.750   110944643.45248  21112066.001    86450376.40249
  22877477.935   120221964.38447  22877480.148    93679461.55548
  20602360.991   108266144.52349  20602362.849    84363239.79249
  24953586.876   131131959.35346  24953591.023   102180761.87747
  21338228.350   112133138.94148  21338228.937    87376470.38049
  5  2 13 16 16 10.0000000  0  7G 2G 4G 7G 9G24G26G28
  24192463.040   127132281.09547  24192464.007    99064111.91848
  20907288.060   109868560.12048  20907289.618    85611870.34449
  21113015.445   110949639.35549  21113016.697    86454269.30949
  22875116.147   120209553.01147  22875118.352    93669790.33548
  20601705.413   108262699.44149  20601707.265    84360555.31549
  24955834.399   131143770.10246  24955838.553   102189965.04147
  21339286.818   112138701.22748  21339287.412    87380804.62549
